ftp/pub/palmer/observations_modified/2019/June/AR190611_BASE.txt

Download

Sample DateTime	Unit Id	WS Avg 2min	WD Avg 2min	WGS 10min	WGD 10min	Air Temp	Rel Humidity	Dew Point	Pyranometer	Quantum	Air Pressure	Snow Level	Rainfall	PW Current	Visibility	CBase 1	CBase 2	CBase 3	Vert Vis
2019/06/11  00:00:00  BASE  2.058    32   2.63424  37   -5.1  100   -5.1  0     0     991.2    NA       0.0000   9999     0     0     0    
2019/06/11  00:01:00  BASE  2.05212  31   2.63424  37   -5.1  100   -5.1  0     0     991.2    NA       0.0000   9999     0     0     0    
2019/06/11  00:02:00  BASE  2.04036  31   2.59896  37   -5.1  100   -5.1  0     0     991.2    NA       0.0000   9999     0     0     0    
2019/06/11  00:03:00  BASE  1.93452  36   2.59896  37   -5.1  100   -5.1  0     0     991.3    NA       0.0000   9999     0     0     0    
2019/06/11  00:04:00  BASE  1.75812  39   2.42256  25   -5.1  100   -5.1  0     0     991.3    NA       0.0000   9999     0     0     0    
2019/06/11  00:05:00  BASE  1.74048  41   2.42256  25   -5.1  100   -5.1  0     0     991.3    NA       0.0000   9999     0     0     0    
2019/06/11  00:06:00  BASE  1.8522   45   2.42256  25   -5.0  100   -5.0  0     0     991.3    NA       0.0000   9999     0     0     0    
2019/06/11  00:07:00  BASE  1.92276  47   2.42256  25   -5.0  100   -5.0  0     0     991.3    NA       0.0000   9999     0     0     0    
2019/06/11  00:08:00  BASE  1.95804  44   2.32848  35   -5.0  100   -5.0  0     0     991.3    NA       0.0000   9999     0     0     0    
2019/06/11  00:09:00  BASE  1.99332  41   2.29908  19   -5.0  100   -5.0  0     0     991.4    NA       0.0000   9999     0     0     0    
2019/06/11  00:10:00  BASE  1.94628  38   2.29908  19   -5.0  100   -5.0  0     0     991.4    NA       0.0000   9999     0     0     0    
2019/06/11  00:11:00  BASE  2.00508  37   2.32848  46   -5.1  100   -5.1  0     0     991.4    NA       0.0000   9999     0     0     0    
2019/06/11  00:12:00  BASE  2.15208  36   2.32848  31   -5.1  100   -5.1  0     0     991.4    NA       0.0000   9999     0     0     0    
2019/06/11  00:13:00  BASE  2.24616  37   2.38728  40   -5.1  100   -5.1  0     0     991.4    NA       0.0000   9999     0     0     0    
2019/06/11  00:14:00  BASE  2.34024  40   2.59896  45   -5.1  100   -5.1  0     0     991.4    NA       0.0000   9999     0     0     0    
2019/06/11  00:15:00  BASE  2.38728  39   2.59896  34   -5.2  100   -5.2  0     0     991.4    NA       0.0000   9999     0     0     0    
2019/06/11  00:16:00  BASE  2.39904  37   2.69304  31   -5.2  100   -5.2  0     0     991.4    NA       0.0000   9999     0     0     0    
2019/06/11  00:17:00  BASE  2.45196  40   2.75184  40   -5.2  100   -5.2  0     0     991.5    NA       0.0000   9999     0     0     0    
2019/06/11  00:18:00  BASE  2.31672  45   2.75184  40   -5.2  100   -5.2  0     0     991.5    NA       0.0000   9999     0     0     0    
2019/06/11  00:19:00  BASE  2.11092  47   2.75184  40   -5.2  100   -5.2  0     0     991.5    NA       0.0000   9999     0     0     0    
2019/06/11  00:20:00  BASE  2.00508  49   2.75184  40   -5.1  100   -5.1  0     0     991.5    NA       0.0000   9999     0     0     0    
2019/06/11  00:21:00  BASE  2.0286   50   2.75184  40   -5.1  100   -5.1  0     0     991.6    NA       0.0000   9999     0     0     0    
2019/06/11  00:22:00  BASE  2.13444  46   2.75184  40   -5.0  100   -5.0  0     0     991.6    NA       0.0000   9999     0     0     0    
2019/06/11  00:23:00  BASE  2.06388  43   2.75184  40   -5.0  100   -5.0  0     0     991.6    NA       0.0000   9999     0     0     0    
2019/06/11  00:24:00  BASE  2.07564  41   2.75184  40   -5.0  100   -5.0  0     0     991.6    NA       0.0000   9999     0     0     0    
2019/06/11  00:25:00  BASE  2.13444  42   2.75184  40   -5.0  100   -5.0  0     0     991.6    NA       0.0000   9999     0     0     0    
2019/06/11  00:26:00  BASE  2.14032  36   2.75184  40   -5.1  100   -5.1  0     0     991.6    NA       0.0000   9999     0     0     0    
2019/06/11  00:27:00  BASE  2.1168   31   2.29908  51   -5.1  100   -5.1  0     0     991.6    NA       0.0000   9999     0     0     0    
2019/06/11  00:28:00  BASE  2.0286   32   2.26968  44   -5.2  100   -5.2  0     0     991.6    NA       0.0000   9999     0     0     0    
2019/06/11  00:29:00  BASE  1.9698   38   2.26968  44   -5.2  100   -5.2  0     0     991.7    NA       0.0000   9999     0     0     0    
2019/06/11  00:30:00  BASE  2.00508  42   2.26968  44   -5.2  100   -5.2  0     0     991.7    NA       0.0000   9999     0     0     0    
2019/06/11  00:31:00  BASE  2.10504  39   2.35788  31   -5.2  100   -5.2  0     0     991.7    NA       0.0000   9999     0     0     0    
2019/06/11  00:32:00  BASE  2.11092  38   2.35788  31   -5.2  100   -5.2  0     0     991.7    NA       0.0000   9999     0     0     0    
2019/06/11  00:33:00  BASE  2.07564  36   2.35788  28   -5.2  100   -5.2  0     0     991.7    NA       0.0000   9999     0     0     0    
2019/06/11  00:34:00  BASE  2.1168   34   2.42256  39   -5.1  100   -5.1  0     0     991.8    NA       0.0000   9999     0     0     0    
2019/06/11  00:35:00  BASE  2.16972  35   2.42256  37   -5.1  100   -5.1  0     0     991.8    NA       0.0000   9999     0     0     0    
2019/06/11  00:36:00  BASE  2.21676  34   2.42256  37   -5.1  100   -5.1  0     0     991.8    NA       0.0000   9999     0     0     0    
2019/06/11  00:37:00  BASE  2.19912  32   2.42256  37   -5.1  100   -5.1  0     0     991.8    NA       0.0000   9999     0     0     0    
2019/06/11  00:38:00  BASE  2.09916  36   2.42256  37   -5.1  100   -5.1  0     0     991.9    NA       0.0000   9999     0     0     0    
2019/06/11  00:39:00  BASE  1.99332  39   2.42256  37   -5.1  100   -5.1  0     0     992.0    NA       0.0000   9999     0     0     0    
2019/06/11  00:40:00  BASE  1.89336  43   2.42256  37   -5.1  100   -5.1  0     0     992.0    NA       0.0000   9999     0     0     0    
2019/06/11  00:41:00  BASE  1.78164  44   2.42256  37   -5.1  100   -5.1  0     0     992.1    NA       0.0000   9999     0     0     0    
2019/06/11  00:42:00  BASE  1.80516  43   2.42256  37   -5.1  100   -5.1  0     0     992.1    NA       0.0000   9999     0     0     0    
2019/06/11  00:43:00  BASE  1.86396  44   2.42256  37   -5.1  100   -5.1  0     0     992.1    NA       0.0000   9999     0     0     0    
2019/06/11  00:44:00  BASE  1.81692  44   2.42256  37   -5.1  100   -5.1  0     0     992.1    NA       0.0000   9999     0     0     0    
2019/06/11  00:45:00  BASE  1.81104  43   2.32848  32   -5.1  100   -5.1  0     0     992.1    NA       0.0000   9999     0     0     0    
2019/06/11  00:46:00  BASE  1.83456  43   2.29908  40   -5.1  100   -5.1  0     0     992.1    NA       0.0000   9999     0     0     0    
2019/06/11  00:47:00  BASE  1.81692  42   2.21088  34   -5.1  100   -5.1  0     0     992.2    NA       0.0000   9999     0     0     0    
2019/06/11  00:48:00  BASE  1.75224  42   2.0874   41   -5.1  100   -5.1  0     0     992.2    NA       0.0000   9999     0     0     0    
2019/06/11  00:49:00  BASE  1.85808  40   2.0874   35   -5.1  100   -5.1  0     0     992.2    NA       0.0000   9999     0     0     0    
2019/06/11  00:50:00  BASE  1.99332  39   2.0874   45   -5.1  100   -5.1  0     0     992.2    NA       0.0000   9999     0     0     0    
2019/06/11  00:51:00  BASE  2.07564  43   2.35788  46   -5.1  100   -5.1  0     0     992.2    NA       0.0000   9999     0     0     0    
2019/06/11  00:52:00  BASE  2.3226   46   2.66364  51   -5.1  100   -5.1  0     0     992.2    NA       0.0000   9999     0     0     0    
2019/06/11  00:53:00  BASE  2.45784  46   2.66364  51   -5.1  100   -5.1  0     0     992.2    NA       0.0000   9999     0     0     0    
2019/06/11  00:54:00  BASE  2.44608  45   2.75184  44   -5.0  100   -5.0  0     0     992.2    NA       0.0000   9999     0     0     0    
2019/06/11  00:55:00  BASE  2.37552  45   2.75184  44   -5.0  100   -5.0  0     0     992.2    NA       0.0000   9999     0     0     0    
2019/06/11  00:56:00  BASE  2.16384  45   2.75184  44   -4.9  100   -4.9  0     0     992.2    NA       0.0000   9999     0     0     0    
2019/06/11  00:57:00  BASE  1.89336  44   2.75184  44   -4.9  100   -4.9  0     0     992.2    NA       0.0000   9999     0     0     0    
2019/06/11  00:58:00  BASE  1.8522   43   2.75184  44   -4.9  100   -4.9  0     0     992.2    NA       0.0000   9999     0     0     0    
2019/06/11  00:59:00  BASE  1.91688  39   2.75184  44   -4.9  100   -4.9  0     0     992.2    NA       0.0000   9999     0     0     0    
2019/06/11  01:00:00  BASE  1.98744  38   2.75184  44   -4.9  100   -4.9  0     0     992.2    NA       0.0000   9999     0     0     0    
2019/06/11  01:01:00  BASE  2.058    39   2.75184  44   -4.9  100   -4.9  0     0     992.2    NA       0.0000   9999     0     0     0    
2019/06/11  01:02:00  BASE  2.03448  35   2.75184  44   -5.0  100   -5.0  0     0     992.2    NA       0.0000   9999     0     0     0    
2019/06/11  01:03:00  BASE  2.12856  33   2.75184  44   -5.0  100   -5.0  0     0     992.3    NA       0.0000   9999     0     0     0    
2019/06/11  01:04:00  BASE  2.24028  35   2.45196  43   -5.0  100   -5.0  0     0     992.3    NA       0.0000   9999     0     0     0    
2019/06/11  01:05:00  BASE  2.35788  33   2.59896  29   -5.0  100   -5.0  0     0     992.3    NA       0.0000   9999     0     0     0    
2019/06/11  01:06:00  BASE  2.5284   31   2.78124  27   -5.1  100   -5.1  0     0     992.3    NA       0.0000   9999     0     0     0    
2019/06/11  01:07:00  BASE  2.43432  31   2.78124  27   -5.0  100   -5.0  0     0     992.3    NA       0.0000   9999     0     0     0    
2019/06/11  01:08:00  BASE  2.34612  33   2.78124  27   -5.0  100   -5.0  0     0     992.3    NA       0.0000   9999     0     0     0    
2019/06/11  01:09:00  BASE  2.3226   35   2.78124  27   -5.0  100   -5.0  0     0     992.4    NA       0.0000   9999     0     0     0    
2019/06/11  01:10:00  BASE  2.29908  36   2.78124  27   -5.0  100   -5.0  0     0     992.4    NA       0.0000   9999     0     0     0    
2019/06/11  01:11:00  BASE  2.37552  36   2.78124  27   -5.0  100   -5.0  0     0     992.4    NA       0.0000   9999     0     0     0    
2019/06/11  01:12:00  BASE  2.34024  38   2.78124  27   -5.0  100   -5.0  0     0     992.4    NA       0.0000   9999     0     0     0    
2019/06/11  01:13:00  BASE  2.31084  39   2.78124  27   -5.0  100   -5.0  0     0     992.4    NA       0.0000   9999     0     0     0    
2019/06/11  01:14:00  BASE  2.36964  41   2.78124  27   -5.1  100   -5.1  0     0     992.5    NA       0.0000   9999     0     0     0    
2019/06/11  01:15:00  BASE  2.34024  41   2.78124  27   -5.1  100   -5.1  0     0     992.5    NA       0.0000   9999     0     0     0    
2019/06/11  01:16:00  BASE  2.37552  42   2.59896  44   -5.1  100   -5.1  0     0     992.6    NA       0.0000   9999     0     0     0    
2019/06/11  01:17:00  BASE  2.44608  41   2.59896  44   -5.1  100   -5.1  0     0     992.6    NA       0.0000   9999     0     0     0    
2019/06/11  01:18:00  BASE  2.35788  38   2.59896  44   -5.2  100   -5.2  0     0     992.6    NA       0.0000   9999     0     0     0    
2019/06/11  01:19:00  BASE  2.36376  40   2.66364  35   -5.2  100   -5.2  0     0     992.6    NA       0.0000   9999     0     0     0    
2019/06/11  01:20:00  BASE  2.499    40   2.69304  40   -5.2  100   -5.2  0     0     992.6    NA       0.0000   9999     0     0     0    
2019/06/11  01:21:00  BASE  2.5578   38   2.84592  44   -5.2  100   -5.2  0     0     992.6    NA       0.0000   9999     0     0     0    
2019/06/11  01:22:00  BASE  2.646    38   2.90472  36   -5.2  100   -5.2  0     0     992.6    NA       0.0000   9999     0     0     0    
2019/06/11  01:23:00  BASE  2.84004  40   3.1164   47   -5.2  100   -5.2  0     0     992.6    NA       0.0000   9999     0     0     0    
2019/06/11  01:24:00  BASE  2.90472  43   3.1164   47   -5.2  100   -5.2  0     0     992.6    NA       0.0000   9999     0     0     0    
2019/06/11  01:25:00  BASE  2.81652  44   3.1164   47   -5.2  100   -5.2  0     0     992.6    NA       0.0000   9999     0     0     0    
2019/06/11  01:26:00  BASE  2.71656  46   3.1164   47   -5.2  100   -5.2  0     0     992.6    NA       0.0000   9999     0     0     0    
2019/06/11  01:27:00  BASE  2.62836  46   3.1164   47   -5.2  100   -5.2  0     0     992.6    NA       0.0000   9999     0     0     0    
2019/06/11  01:28:00  BASE  2.44608  46   3.1164   47   -5.2  100   -5.2  0     0     992.6    NA       0.0000   9999     0     0     0    
2019/06/11  01:29:00  BASE  2.30496  48   3.1164   47   -5.2  100   -5.2  0     0     992.6    NA       0.0000   9999     0     0     0    
2019/06/11  01:30:00  BASE  2.29908  49   3.1164   47   -5.1  100   -5.1  0     0     992.7    NA       0.0000   9999     0     0     0    
2019/06/11  01:31:00  BASE  2.2932   50   3.1164   47   -5.1  100   -5.1  0     0     992.7    NA       0.0000   9999     0     0     0    
2019/06/11  01:32:00  BASE  2.25792  47   3.1164   47   -5.1  100   -5.1  0     0     992.7    NA       0.0000   9999     0     0     0    
2019/06/11  01:33:00  BASE  2.42844  44   2.96352  47   -5.0  100   -5.0  0     0     992.7    NA       0.0000   9999     0     0     0    
2019/06/11  01:34:00  BASE  2.49312  44   2.96352  47   -5.0  100   -5.0  0     0     992.7    NA       0.0000   9999     0     0     0    
2019/06/11  01:35:00  BASE  2.27556  44   2.96352  47   -5.0  100   -5.0  0     0     992.7    NA       0.0000   9999     0     0     0    
2019/06/11  01:36:00  BASE  2.205    44   2.84592  43   -5.1  100   -5.1  0     0     992.7    NA       0.0000   9999     0     0     0    
2019/06/11  01:37:00  BASE  2.3226   43   2.84592  43   -5.1  100   -5.1  0     0     992.7    NA       0.0000   9999     0     0     0    
2019/06/11  01:38:00  BASE  2.4402   42   2.87532  41   -5.2  100   -5.2  0     0     992.8    NA       0.0000   9999     0     0     0    
2019/06/11  01:39:00  BASE  2.29908  47   2.87532  41   -5.2  100   -5.2  0     0     992.8    NA       0.0000   9999     0     0     0    
2019/06/11  01:40:00  BASE  2.06388  48   2.87532  41   -5.2  100   -5.2  0     0     992.8    NA       0.0000   9999     0     0     0    
2019/06/11  01:41:00  BASE  2.0874   45   2.87532  41   -5.2  100   -5.2  0     0     992.8    NA       0.0000   9999     0     0     0    
2019/06/11  01:42:00  BASE  2.22852  46   2.87532  41   -5.1  100   -5.1  0     0     992.8    NA       0.0000   9999     0     0     0    
2019/06/11  01:43:00  BASE  2.34612  45   2.87532  41   -5.1  100   -5.1  0     0     992.8    NA       0.0000   9999     0     0     0    
2019/06/11  01:44:00  BASE  2.4696   46   2.87532  41   -5.1  100   -5.1  0     0     992.9    NA       0.0000   9999     0     0     0    
2019/06/11  01:45:00  BASE  2.4696   50   2.87532  41   -5.1  100   -5.1  0     0     992.9    NA       0.0000   9999     0     0     0    
2019/06/11  01:46:00  BASE  2.33436  50   2.87532  41   -5.1  100   -5.1  0     0     992.9    NA       0.0000   9999     0     0     0    
2019/06/11  01:47:00  BASE  2.2344   51   2.87532  41   -5.1  100   -5.1  0     0     992.9    NA       0.0000   9999     0     0     0    
2019/06/11  01:48:00  BASE  2.16384  51   2.75184  39   -5.0  100   -5.0  0     0     992.9    NA       0.0000   9999     0     0     0    
2019/06/11  01:49:00  BASE  2.16384  49   2.75184  39   -5.0  100   -5.0  0     0     992.9    NA       0.0000   9999     0     0     0    
2019/06/11  01:50:00  BASE  2.2638   47   2.75184  39   -5.0  100   -5.0  0     0     992.9    NA       0.0000   9999     0     0     0    
2019/06/11  01:51:00  BASE  2.30496  43   2.75184  39   -4.9  100   -4.9  0     0     992.9    NA       0.0000   9999     0     0     0    
2019/06/11  01:52:00  BASE  2.12856  41   2.72244  42   -4.9  100   -4.9  0     0     992.9    NA       0.0000   9999     0     0     0    
2019/06/11  01:53:00  BASE  1.98156  41   2.69304  49   -4.9  100   -4.9  0     0     992.9    NA       0.0000   9999     0     0     0    
2019/06/11  01:54:00  BASE  1.9992   43   2.66364  55   -4.9  100   -4.9  0     0     992.9    NA       0.0000   9999     0     0     0    
2019/06/11  01:55:00  BASE  2.16384  45   2.63424  51   -4.9  100   -4.9  0     0     992.9    NA       0.0000   9999     0     0     0    
2019/06/11  01:56:00  BASE  2.3226   44   2.63424  51   -4.9  100   -4.9  0     0     992.9    NA       0.0000   9999     0     0     0    
2019/06/11  01:57:00  BASE  2.3814   38   2.69304  33   -4.9  100   -4.9  0     0     992.9    NA       0.0000   9999     0     0     0    
2019/06/11  01:58:00  BASE  2.44608  35   2.69304  33   -4.9  100   -4.9  0     0     992.9    NA       0.0000   9999     0     0     0    
2019/06/11  01:59:00  BASE  2.4696   37   2.69304  37   -5.0  100   -5.0  0     0     992.9    NA       0.0000   9999     0     0     0    
2019/06/11  02:00:00  BASE  2.45784  39   2.69304  37   -5.0  100   -5.0  0     0     992.9    NA       0.0000   9999     0     0     0    
2019/06/11  02:01:00  BASE  2.45196  40   2.69304  37   -5.0  99    -5.1  0     0     992.9    NA       0.0000   9999     0     0     0    
2019/06/11  02:02:00  BASE  2.52252  40   2.96352  35   -5.1  99    -5.2  0     0     992.9    NA       0.0000   9999     0     0     0    
2019/06/11  02:03:00  BASE  2.48136  37   2.96352  35   -5.2  99    -5.3  0     0     992.9    NA       0.0000   9999     0     0     0    
2019/06/11  02:04:00  BASE  2.37552  34   2.96352  35   -5.2  99    -5.4  0     0     993.0    NA       0.0000   9999     0     0     0    
2019/06/11  02:05:00  BASE  2.54016  33   2.96352  35   -5.3  99    -5.4  0     0     993.0    NA       0.0000   9999     0     0     0    
2019/06/11  02:06:00  BASE  2.59896  32   2.96352  35   -5.3  99    -5.5  0     0     993.0    NA       0.0000   9999     0     0     0    
2019/06/11  02:07:00  BASE  2.54604  33   2.96352  35   -5.3  99    -5.4  0     0     993.0    NA       0.0000   9999     0     0     0    
2019/06/11  02:08:00  BASE  2.53428  36   2.96352  35   -5.2  99    -5.4  0     0     993.0    NA       0.0000   9999     0     0     0    
2019/06/11  02:09:00  BASE  2.52252  40   2.96352  35   -5.2  99    -5.3  0     0     993.0    NA       0.0000   9999     0     0     0    
2019/06/11  02:10:00  BASE  2.50488  41   2.96352  35   -5.1  99    -5.3  0     0     993.1    NA       0.0000   9999     0     0     0    
2019/06/11  02:11:00  BASE  2.29908  41   2.96352  35   -5.1  99    -5.2  0     0     993.2    NA       0.0000   9999     0     0     0    
2019/06/11  02:12:00  BASE  2.1756   42   2.87532  38   -5.0  99    -5.2  0     0     993.2    NA       0.0000   9999     0     0     0    
2019/06/11  02:13:00  BASE  2.33436  41   2.87532  38   -5.0  99    -5.2  0     0     993.2    NA       0.0000   9999     0     0     0    
2019/06/11  02:14:00  BASE  2.205    43   2.87532  38   -5.0  98    -5.2  0     0     993.2    NA       0.0000   9999     0     0     0    
2019/06/11  02:15:00  BASE  1.95804  48   2.87532  38   -5.0  98    -5.2  0     0     993.2    NA       0.0000   9999     0     0     0    
2019/06/11  02:16:00  BASE  1.98156  43   2.87532  38   -5.0  98    -5.3  0     0     993.2    NA       0.0000   9999     0     0     0    
2019/06/11  02:17:00  BASE  2.06976  38   2.87532  38   -4.9  98    -5.3  0     0     993.2    NA       0.0000   9999     0     0     0    
2019/06/11  02:18:00  BASE  2.01684  47   2.87532  38   -4.9  97    -5.3  0     0     993.2    NA       0.0000   9999     0     0     0    
2019/06/11  02:19:00  BASE  1.93452  49   2.81064  47   -5.0  97    -5.3  0     0     993.2    NA       0.0000   9999     0     0     0    
2019/06/11  02:20:00  BASE  1.92864  45   2.63424  39   -5.0  97    -5.4  0     0     993.3    NA       0.0000   9999     0     0     0    
2019/06/11  02:21:00  BASE  1.911    48   2.63424  39   -5.0  97    -5.4  0     0     993.3    NA       0.0000   9999     0     0     0    
2019/06/11  02:22:00  BASE  1.98156  48   2.59896  40   -5.0  96    -5.5  0     0     993.3    NA       0.0000   9999     0     0     0    
2019/06/11  02:23:00  BASE  1.98156  47   2.56956  39   -5.0  96    -5.5  0     0     993.3    NA       0.0000   9999     0     0     0    
2019/06/11  02:24:00  BASE  2.0286   45   2.56956  39   -5.0  96    -5.5  0     0     993.3    NA       0.0000   9999     0     0     0    
2019/06/11  02:25:00  BASE  1.95804  47   2.56956  39   -5.0  96    -5.5  0     0     993.3    NA       0.0000   9999     0     0     0    
2019/06/11  02:26:00  BASE  1.90512  48   2.56956  39   -5.0  96    -5.5  0     0     993.3    NA       0.0000   9999     0     0     0    
2019/06/11  02:27:00  BASE  2.01096  43   2.35788  42   -5.0  96    -5.6  0     0     993.3    NA       0.0000   9999     0     0     0    
2019/06/11  02:28:00  BASE  1.9992   42   2.35788  42   -5.0  96    -5.6  0     0     993.3    NA       0.0000   9999     0     0     0    
2019/06/11  02:29:00  BASE  2.05212  43   2.35788  42   -5.1  95    -5.7  0     0     993.3    NA       0.0000   9999     0     0     0    
2019/06/11  02:30:00  BASE  2.0874   45   2.29908  43   -5.1  95    -5.8  0     0     993.3    NA       0.0000   9999     0     0     0    
2019/06/11  02:31:00  BASE  2.04036  47   2.29908  43   -5.1  94    -5.9  0     0     993.3    NA       0.0000   9999     0     0     0    
2019/06/11  02:32:00  BASE  2.205    47   2.42256  46   -5.1  94    -5.9  0     0     993.3    NA       0.0000   9999     0     0     0    
2019/06/11  02:33:00  BASE  2.25792  45   2.42256  46   -5.1  94    -5.9  0     0     993.3    NA       0.0000   9999     0     0     0    
2019/06/11  02:34:00  BASE  2.16972  47   2.42256  46   -5.1  94    -5.9  0     0     993.3    NA       0.0000   9999     0     0     0    
2019/06/11  02:35:00  BASE  2.19324  48   2.42256  46   -5.1  94    -5.9  0     0     993.3    NA       0.0000   9999     0     0     0    
2019/06/11  02:36:00  BASE  2.12268  47   2.42256  46   -5.1  94    -5.9  0     0     993.3    NA       0.0000   9999     0     0     0    
2019/06/11  02:37:00  BASE  1.92864  49   2.42256  46   -5.0  94    -5.8  0     0     993.3    NA       0.0000   9999     0     0     0    
2019/06/11  02:38:00  BASE  1.84632  53   2.42256  46   -5.0  94    -5.8  0     0     993.4    NA       0.0000   9999     0     0     0    
2019/06/11  02:39:00  BASE  1.90512  54   2.42256  46   -4.9  94    -5.8  0     0     993.4    NA       0.0000   9999     0     0     0    
2019/06/11  02:40:00  BASE  2.058    53   2.42256  46   -4.8  93    -5.7  0     0     993.4    NA       0.0000   9999     0     0     0    
2019/06/11  02:41:00  BASE  2.15796  56   2.42256  46   -4.8  93    -5.7  0     0     993.4    NA       0.0000   9999     0     0     0    
2019/06/11  02:42:00  BASE  2.1756   54   2.35788  59   -4.8  93    -5.7  0     0     993.3    NA       0.0000   9999     0     0     0    
2019/06/11  02:43:00  BASE  2.16384  49   2.35788  59   -4.7  93    -5.7  0     0     993.4    NA       0.0000   9999     0     0     0    
2019/06/11  02:44:00  BASE  2.16972  48   2.35788  47   -4.7  92    -5.7  0     0     993.4    NA       0.0000   9999     0     0     0    
2019/06/11  02:45:00  BASE  2.28732  51   2.56956  54   -4.7  92    -5.7  0     0     993.4    NA       0.0000   9999     0     0     0    
2019/06/11  02:46:00  BASE  2.31084  50   2.84592  42   -4.7  92    -5.8  0     0     993.4    NA       0.0000   9999     0     0     0    
2019/06/11  02:47:00  BASE  2.1756   48   2.84592  42   -4.7  92    -5.8  0     0     993.4    NA       0.0000   9999     0     0     0    
2019/06/11  02:48:00  BASE  2.11092  48   2.84592  42   -4.7  92    -5.9  0     0     993.4    NA       0.0000   9999     0     0     0    
2019/06/11  02:49:00  BASE  2.15796  49   2.84592  42   -4.8  92    -6.0  0     0     993.4    NA       0.0000   9999     0     0     0    
2019/06/11  02:50:00  BASE  2.18736  52   2.84592  42   -4.8  92    -6.0  0     0     993.4    NA       0.0000   9999     0     0     0    
2019/06/11  02:51:00  BASE  2.06388  52   2.84592  42   -4.8  92    -6.0  0     0     993.5    NA       0.0000   9999     0     0     0    
2019/06/11  02:52:00  BASE  1.97568  47   2.84592  42   -4.8  91    -6.0  0     0     993.5    NA       0.0000   9999     0     0     0    
2019/06/11  02:53:00  BASE  1.95804  43   2.84592  42   -4.9  91    -6.0  0     0     993.5    NA       0.0000   9999     0     0     0    
2019/06/11  02:54:00  BASE  1.85808  48   2.84592  42   -4.8  91    -6.0  0     0     993.5    NA       0.0000   9999     0     0     0    
2019/06/11  02:55:00  BASE  1.7346   50   2.84592  42   -4.8  91    -6.0  0     0     993.5    NA       0.0000   9999     0     0     0    
2019/06/11  02:56:00  BASE  1.84632  48   2.48136  47   -4.8  91    -6.0  0     0     993.5    NA       0.0000   9999     0     0     0    
2019/06/11  02:57:00  BASE  2.01096  48   2.48136  47   -4.8  91    -6.0  0     0     993.5    NA       0.0000   9999     0     0     0    
2019/06/11  02:58:00  BASE  2.0286   46   2.48136  47   -4.8  91    -6.0  0     0     993.5    NA       0.0000   9999     0     0     0    
2019/06/11  02:59:00  BASE  2.22852  39   2.75184  39   -4.8  91    -6.0  0     0     993.5    NA       0.0000   9999     0     0     0    
2019/06/11  03:00:00  BASE  2.06388  35   2.75184  39   -4.8  91    -6.1  0     0     993.5    NA       0.0000   9999     0     0     0    
2019/06/11  03:01:00  BASE  1.74636  37   2.75184  39   -4.9  91    -6.1  0     0     993.5    NA       0.0000   9999     0     0     0    
2019/06/11  03:02:00  BASE  1.86984  36   2.75184  39   -4.9  91    -6.2  0     0     993.5    NA       0.0000   9999     0     0     0    
2019/06/11  03:03:00  BASE  1.9404   33   2.75184  39   -4.9  91    -6.2  0     0     993.6    NA       0.0000   9999     0     0     0    
2019/06/11  03:04:00  BASE  1.72872  31   2.75184  39   -4.9  91    -6.1  0     0     993.6    NA       0.0000   9999     0     0     0    
2019/06/11  03:05:00  BASE  1.53468  29   2.75184  39   -4.9  91    -6.1  0     0     993.6    NA       0.0000   9999     0     0     0    
2019/06/11  03:06:00  BASE  1.4994   33   2.75184  39   -4.9  91    -6.1  0     0     993.6    NA       0.0000   9999     0     0     0    
2019/06/11  03:07:00  BASE  1.58172  39   2.75184  39   -4.9  91    -6.2  0     0     993.7    NA       0.0000   9999     0     0     0    
2019/06/11  03:08:00  BASE  1.69932  42   2.75184  39   -4.9  91    -6.2  0     0     993.7    NA       0.0000   9999     0     0     0    
2019/06/11  03:09:00  BASE  1.71696  41   2.35788  39   -4.9  91    -6.2  0     0     993.7    NA       0.0000   9999     0     0     0    
2019/06/11  03:10:00  BASE  1.88748  35   2.35788  39   -4.9  91    -6.2  0     0     993.7    NA       0.0000   9999     0     0     0    
2019/06/11  03:11:00  BASE  2.058    30   2.35788  39   -5.0  91    -6.3  0     0     993.7    NA       0.0000   9999     0     0     0    
2019/06/11  03:12:00  BASE  2.11092  29   2.35788  39   -5.0  91    -6.2  0     0     993.7    NA       0.0000   9999     0     0     0    
2019/06/11  03:13:00  BASE  2.06976  28   2.32848  23   -4.9  91    -6.2  0     0     993.7    NA       0.0000   9999     0     0     0    
2019/06/11  03:14:00  BASE  1.89924  28   2.32848  23   -4.9  91    -6.2  0     0     993.7    NA       0.0000   9999     0     0     0    
2019/06/11  03:15:00  BASE  1.8816   27   2.32848  23   -4.9  91    -6.1  0     0     993.8    NA       0.0000   9999     0     0     0    
2019/06/11  03:16:00  BASE  1.86396  33   2.32848  23   -4.8  91    -6.1  0     0     993.9    NA       0.0000   9999     0     0     0    
2019/06/11  03:17:00  BASE  1.89336  36   2.32848  23   -4.9  91    -6.1  0     0     993.9    NA       0.0000   9999     0     0     0    
2019/06/11  03:18:00  BASE  1.89336  29   2.32848  23   -4.9  91    -6.2  0     0     993.9    NA       0.0000   9999     0     0     0    
2019/06/11  03:19:00  BASE  1.8228   27   2.32848  23   -4.9  91    -6.2  0     0     993.9    NA       0.0000   9999     0     0     0    
2019/06/11  03:20:00  BASE  1.84044  28   2.29908  32   -4.9  91    -6.2  0     0     993.9    NA       0.0000   9999     0     0     0    
2019/06/11  03:21:00  BASE  1.75224  24   2.29908  32   -4.9  91    -6.1  0     0     994.0    NA       0.0000   9999     0     0     0    
2019/06/11  03:22:00  BASE  1.84044  18   2.29908  32   -4.8  91    -6.0  0     0     994.0    NA       0.0000   9999     0     0     0    
2019/06/11  03:23:00  BASE  1.911    20   2.29908  32   -4.7  91    -6.0  0     0     994.0    NA       0.0000   9999     0     0     0    
2019/06/11  03:24:00  BASE  1.8522   27   2.29908  32   -4.7  91    -6.0  0     0     994.0    NA       0.0000   9999     0     0     0    
2019/06/11  03:25:00  BASE  1.93452  32   2.29908  32   -4.7  90    -6.0  0     0     994.0    NA       0.0000   9999     0     0     0    
2019/06/11  03:26:00  BASE  2.06976  35   2.48136  43   -4.7  90    -6.1  0     0     994.0    NA       0.0000   9999     0     0     0    
2019/06/11  03:27:00  BASE  2.205    37   2.48136  43   -4.8  90    -6.2  0     0     994.0    NA       0.0000   9999     0     0     0    
2019/06/11  03:28:00  BASE  2.16972  39   2.48136  43   -4.8  90    -6.2  0     0     994.0    NA       0.0000   9999     0     0     0    
2019/06/11  03:29:00  BASE  2.06976  41   2.48136  43   -4.8  90    -6.2  0     0     994.0    NA       0.0000   9999     0     0     0    
2019/06/11  03:30:00  BASE  2.15796  37   2.48136  43   -4.8  90    -6.2  0     0     994.0    NA       0.0000   9999     0     0     0    
2019/06/11  03:31:00  BASE  2.2932   35   2.54016  37   -4.9  90    -6.2  0     0     994.0    NA       0.0000   9999     0     0     0    
2019/06/11  03:32:00  BASE  2.42844  34   2.63424  27   -4.9  90    -6.2  0     0     994.0    NA       0.0000   9999     0     0     0    
2019/06/11  03:33:00  BASE  2.53428  31   2.81064  36   -4.9  90    -6.3  0     0     994.1    NA       0.0000   9999     0     0     0    
2019/06/11  03:34:00  BASE  2.45196  34   2.81064  36   -5.0  90    -6.4  0     0     994.1    NA       0.0000   9999     0     0     0    
2019/06/11  03:35:00  BASE  2.4108   43   2.81064  36   -5.1  90    -6.5  0     0     994.1    NA       0.0000   9999     0     0     0    
2019/06/11  03:36:00  BASE  2.5578   48   2.90472  51   -5.1  90    -6.5  0     0     994.1    NA       0.0000   9999     0     0     0    
2019/06/11  03:37:00  BASE  2.68716  46   2.93412  45   -5.1  90    -6.5  0     0     994.1    NA       0.0000   9999     0     0     0    
2019/06/11  03:38:00  BASE  2.71068  43   2.93412  45   -5.0  90    -6.4  0     0     994.1    NA       0.0000   9999     0     0     0    
2019/06/11  03:39:00  BASE  2.646    41   2.93412  41   -5.0  90    -6.4  0     0     994.1    NA       0.0000   9999     0     0     0    
2019/06/11  03:40:00  BASE  2.59896  37   2.93412  41   -5.0  90    -6.4  0     0     994.1    NA       0.0000   9999     0     0     0    
2019/06/11  03:41:00  BASE  2.41668  33   2.93412  41   -5.0  90    -6.4  0     0     994.1    NA       0.0000   9999     0     0     0    
2019/06/11  03:42:00  BASE  2.45196  33   2.93412  41   -5.0  90    -6.4  0     0     994.1    NA       0.0000   9999     0     0     0    
2019/06/11  03:43:00  BASE  2.7048   33   2.93412  35   -5.0  90    -6.4  0     0     994.1    NA       0.0000   9999     0     0     0    
2019/06/11  03:44:00  BASE  2.71068  38   2.93412  35   -5.0  90    -6.4  0     0     994.1    NA       0.0000   9999     0     0     0    
2019/06/11  03:45:00  BASE  2.646    47   2.93412  35   -5.0  90    -6.4  0     0     994.1    NA       0.0000   9999     0     0     0    
2019/06/11  03:46:00  BASE  2.65188  50   2.93412  35   -5.0  90    -6.4  0     0     994.1    NA       0.0000   9999     0     0     0    
2019/06/11  03:47:00  BASE  2.61072  51   2.93412  35   -5.0  90    -6.3  0     0     994.1    NA       0.0000   9999     0     0     0    
2019/06/11  03:48:00  BASE  2.47548  53   2.93412  35   -4.9  90    -6.3  0     0     994.1    NA       0.0000   9999     0     0     0    
2019/06/11  03:49:00  BASE  2.28732  56   2.93412  35   -4.9  90    -6.3  0     0     994.1    NA       0.0000   9999     0     0     0    
2019/06/11  03:50:00  BASE  2.18736  56   2.93412  35   -4.8  90    -6.2  0     0     994.1    NA       0.0000   9999     0     0     0    
2019/06/11  03:51:00  BASE  2.11092  49   2.93412  35   -4.8  90    -6.2  0     0     994.1    NA       0.0000   9999     0     0     0    
2019/06/11  03:52:01  BASE  1.9698   48   2.93412  35   -4.8  90    -6.2  0     0     994.1    NA       0.0000   9999     0     0     0    
2019/06/11  03:53:00  BASE  1.95216  47   2.90472  54   -4.8  90    -6.2  0     0     994.2    NA       0.0000   9999     0     0     0    
2019/06/11  03:54:00  BASE  1.81692  47   2.90472  54   -4.8  89    -6.2  0     0     994.2    NA       0.0000   9999     0     0     0    
2019/06/11  03:55:00  BASE  1.77576  46   2.84592  57   -4.7  89    -6.2  0     0     994.2    NA       0.0000   9999     0     0     0    
2019/06/11  03:56:00  BASE  1.83456  44   2.84592  57   -4.7  89    -6.3  0     0     994.2    NA       0.0000   9999     0     0     0    
2019/06/11  03:57:00  BASE  1.76988  44   2.59896  54   -4.7  89    -6.3  0     0     994.2    NA       0.0000   9999     0     0     0    
2019/06/11  03:58:00  BASE  1.72284  42   2.56956  49   -4.7  89    -6.3  0     0     994.2    NA       0.0000   9999     0     0     0    
2019/06/11  03:59:00  BASE  1.74636  42   2.56956  49   -4.7  88    -6.4  0     0     994.2    NA       0.0000   9999     0     0     0    
2019/06/11  04:00:00  BASE  1.6464   42   2.1756   45   -4.8  88    -6.4  0     0     994.2    NA       0.0000   9999     0     0     0    
2019/06/11  04:01:00  BASE  1.69932  42   2.29908  48   -4.8  88    -6.5  0     0     994.2    NA       0.0000   9999     0     0     0    
2019/06/11  04:02:01  BASE  1.8816   39   2.29908  14   -4.8  88    -6.5  0     0     994.2    NA       0.0000   9999     0     0     0    
2019/06/11  04:03:00  BASE  1.80516  39   2.29908  14   -4.8  88    -6.5  0     0     994.2    NA       0.0000   9999     0     0     0    
2019/06/11  04:04:00  BASE  1.68168  43   2.29908  14   -4.8  88    -6.5  0     0     994.2    NA       0.0000   9999     0     0     0    
2019/06/11  04:05:00  BASE  1.83456  41   2.29908  32   -4.8  87    -6.6  0     0     994.2    NA       0.0000   9999     0     0     0    
2019/06/11  04:06:00  BASE  1.95216  36   2.29908  32   -4.8  87    -6.6  0     0     994.3    NA       0.0000   9999     0     0     0    
2019/06/11  04:07:00  BASE  1.8522   40   2.29908  51   -4.7  87    -6.6  0     0     994.4    NA       0.0000   9999     0     0     0    
2019/06/11  04:08:00  BASE  1.8228   50   2.29908  51   -4.7  87    -6.6  0     0     994.4    NA       0.0000   9999     0     0     0    
2019/06/11  04:09:00  BASE  1.96392  48   2.75184  31   -4.7  86    -6.6  0     0     994.4    NA       0.0000   9999     0     0     0    
2019/06/11  04:10:00  BASE  2.15796  37   2.75184  31   -4.7  86    -6.7  0     0     994.4    NA       0.0000   9999     0     0     0    
2019/06/11  04:11:00  BASE  2.08152  33   2.75184  31   -4.7  85    -6.8  0     0     994.4    NA       0.0000   9999     0     0     0    
2019/06/11  04:12:00  BASE  1.98156  37   2.75184  31   -4.7  84    -6.9  0     0     994.4    NA       0.0000   9999     0     0     0    
2019/06/11  04:13:00  BASE  1.90512  40   2.75184  31   -4.7  84    -7.0  0     0     994.4    NA       0.0000   9999     0     0     0    
2019/06/11  04:14:01  BASE  1.8522   38   2.75184  31   -4.7  83    -7.1  0     0     994.4    NA       0.0000   9999     0     0     0    
2019/06/11  04:15:00  BASE  1.81692  34   2.75184  31   -4.6  83    -7.1  0     0     994.5    NA       0.0000   9999     0     0     0    
2019/06/11  04:16:00  BASE  1.75812  35   2.75184  31   -4.6  82    -7.2  0     0     994.5    NA       0.0000   9999     0     0     0    
2019/06/11  04:17:00  BASE  1.75812  37   2.75184  31   -4.5  81    -7.3  0     0     994.5    NA       0.0000   9999     0     0     0    
2019/06/11  04:18:01  BASE  1.75812  41   2.75184  31   -4.5  81    -7.4  0     0     994.5    NA       0.0000   9999     0     0     0    
2019/06/11  04:19:00  BASE  1.75224  44   2.48136  26   -4.6  80    -7.5  0     0     994.5    NA       0.0000   9999     0     0     0    
2019/06/11  04:20:00  BASE  1.76988  43   2.1462   40   -4.6  80    -7.6  0     0     994.5    NA       0.0000   9999     0     0     0    
2019/06/11  04:21:00  BASE  1.69932  46   2.1462   40   -4.7  80    -7.7  0     0     994.5    NA       0.0000   9999     0     0     0    
2019/06/11  04:22:00  BASE  1.617    48   2.1168   44   -4.7  79    -7.7  0     0     994.5    NA       0.0000   9999     0     0     0    
2019/06/11  04:23:00  BASE  1.5288   52   2.1168   44   -4.7  79    -7.8  0     0     994.5    NA       0.0000   9999     0     0     0    
2019/06/11  04:24:00  BASE  1.39356  53   2.1168   44   -4.7  79    -7.8  0     0     994.5    NA       0.0000   9999     0     0     0    
2019/06/11  04:25:00  BASE  1.45824  46   2.1168   44   -4.6  79    -7.7  0     0     994.5    NA       0.0000   9999     0     0     0    
2019/06/11  04:26:00  BASE  1.53468  49   2.1168   44   -4.6  79    -7.7  0     0     994.5    NA       0.0000   9999     0     0     0    
2019/06/11  04:27:00  BASE  1.5876   53   2.1168   44   -4.6  79    -7.6  0     0     994.5    NA       0.0000   9999     0     0     0    
2019/06/11  04:28:00  BASE  1.51704  47   2.1168   44   -4.6  80    -7.6  0     0     994.5    NA       0.0000   9999     0     0     0    
2019/06/11  04:29:00  BASE  1.43472  43   2.1168   44   -4.7  80    -7.5  0     0     994.5    NA       0.0000   9999     0     0     0    
2019/06/11  04:30:00  BASE  1.764    41   2.54016  38   -4.7  81    -7.5  0     0     994.5    NA       0.0000   9999     0     0     0    
2019/06/11  04:31:00  BASE  2.15208  40   2.54016  45   -4.7  81    -7.4  0     0     994.5    NA       0.0000   9999     0     0     0    
2019/06/11  04:32:00  BASE  2.14032  37   2.54016  45   -4.8  82    -7.4  0     0     994.5    NA       0.0000   9999     0     0     0    
2019/06/11  04:33:00  BASE  2.06388  36   2.54016  45   -4.8  82    -7.4  0     0     994.5    NA       0.0000   9999     0     0     0    
2019/06/11  04:34:00  BASE  2.14032  36   2.54016  45   -4.8  82    -7.4  0     0     994.6    NA       0.0000   9999     0     0     0    
2019/06/11  04:35:00  BASE  2.15796  39   2.54016  45   -4.8  81    -7.6  0     0     994.6    NA       0.0000   9999     0     0     0    
2019/06/11  04:36:00  BASE  2.19912  37   2.54016  45   -4.8  80    -7.7  0     0     994.6    NA       0.0000   9999     0     0     0    
2019/06/11  04:37:00  BASE  2.2638   30   2.54016  45   -4.8  79    -7.9  0     0     994.6    NA       0.0000   9999     0     0     0    
2019/06/11  04:38:00  BASE  2.25204  29   2.63424  28   -4.8  78    -8.0  0     0     994.6    NA       0.0000   9999     0     0     0    
2019/06/11  04:39:00  BASE  2.09916  33   2.63424  28   -4.8  77    -8.2  0     0     994.6    NA       0.0000   9999     0     0     0    
2019/06/11  04:40:01  BASE  1.90512  37   2.63424  28   -4.8  76    -8.3  0     0     994.6    NA       0.0000   9999     0     0     0    
2019/06/11  04:41:00  BASE  1.68756  45   2.63424  28   -4.7  75    -8.5  0     0     994.6    NA       0.0000   9999     0     0     0    
2019/06/11  04:42:00  BASE  1.84632  53   2.63424  52   -4.7  74    -8.6  0     0     994.6    NA       0.0000   9999     0     0     0    
2019/06/11  04:43:00  BASE  2.27556  51   2.81064  46   -4.6  73    -8.7  0     0     994.6    NA       0.0000   9999     0     0     0    
2019/06/11  04:44:00  BASE  2.46372  45   2.81064  46   -4.7  73    -8.8  0     0     994.6    NA       0.0000   9999     0     0     0    
2019/06/11  04:45:00  BASE  2.18148  41   2.81064  46   -4.7  72    -8.9  0     0     994.7    NA       0.0000   9999     0     0     0    
2019/06/11  04:46:00  BASE  1.89336  47   2.81064  46   -4.7  72    -8.9  0     0     994.7    NA       0.0000   9999     0     0     0    
2019/06/11  04:47:00  BASE  1.97568  48   2.81064  46   -4.7  72    -9.0  0     0     994.7    NA       0.0000   9999     0     0     0    
2019/06/11  04:48:00  BASE  2.2344   44   2.81064  46   -4.8  72    -9.1  0     0     994.7    NA       0.0000   9999     0     0     0    
2019/06/11  04:49:00  BASE  2.41668  45   2.81064  46   -4.8  72    -9.1  0     0     994.7    NA       0.0000   9999     0     0     0    
2019/06/11  04:50:00  BASE  2.3814   48   2.81064  46   -4.8  71    -9.2  0     0     994.7    NA       0.0000   9999     0     0     0    
2019/06/11  04:51:00  BASE  2.39316  48   2.81064  46   -4.8  71    -9.3  0     0     994.7    NA       0.0000   9999     0     0     0    
2019/06/11  04:52:00  BASE  2.32848  43   2.81064  46   -4.8  70    -9.4  0     0     994.7    NA       0.0000   9999     0     0     0    
2019/06/11  04:53:00  BASE  2.22264  43   2.75184  41   -4.8  70    -9.5  0     0     994.7    NA       0.0000   9999     0     0     0    
2019/06/11  04:54:00  BASE  1.9404   48   2.69304  50   -4.8  69    -9.6  0     0     994.8    NA       0.0000   9999     0     0     0    
2019/06/11  04:55:00  BASE  1.617    55   2.69304  50   -4.8  69    -9.6  0     0     994.8    NA       0.0000   9999     0     0     0    
2019/06/11  04:56:00  BASE  1.64052  53   2.69304  50   -4.8  69    -9.6  0     0     994.9    NA       0.0000   9999     0     0     0    
2019/06/11  04:57:00  BASE  1.65228  51   2.69304  50   -4.8  69    -9.6  0     0     994.9    NA       0.0000   9999     0     0     0    
2019/06/11  04:58:00  BASE  1.47     49   2.63424  42   -4.7  68    -9.6  0     0     994.9    NA       0.0000   9999     0     0     0    
2019/06/11  04:59:00  BASE  1.25832  41   2.54016  42   -4.7  68    -9.6  0     0     995.0    NA       0.0000   9999     0     0     0    
2019/06/11  05:00:00  BASE  1.13484  38   2.54016  42   -4.6  68    -9.7  0     0     995.1    NA       0.0000   9999     0     0     0    
2019/06/11  05:01:00  BASE  0.86436  34   2.51076  40   -4.6  68    -9.7  0     0     995.1    NA       0.0000   9999     0     0     0    
2019/06/11  05:02:00  BASE  0.58212  23   2.51076  40   -4.6  67    -9.7  0     0     995.2    NA       0.0000   9999     0     0     0    
2019/06/11  05:03:00  BASE  0.77616  357  2.0286   44   -4.5  67    -9.7  0     0     995.3    NA       0.0000   9999     0     0     0    
2019/06/11  05:04:00  BASE  1.06428  331  1.93452  45   -4.5  67    -9.8  0     0     995.3    NA       0.0000   9999     0     0     0    
2019/06/11  05:05:00  BASE  1.28772  325  1.93452  45   -4.5  67    -9.8  0     0     995.3    NA       0.0000   9999     0     0     0    
2019/06/11  05:06:00  BASE  1.35828  330  1.69344  323  -4.5  67    -9.8  0     0     995.3    NA       0.0000   9999     0     0     0    
2019/06/11  05:07:00  BASE  1.39356  332  1.69344  323  -4.5  67    -9.7  0     0     995.3    NA       0.0000   9999     0     0     0    
2019/06/11  05:08:00  BASE  1.4406   329  1.69344  323  -4.5  67    -9.6  0     0     995.3    NA       0.0000   9999     0     0     0    
2019/06/11  05:09:00  BASE  1.34064  343  1.69344  323  -4.5  68    -9.5  0     0     995.3    NA       0.0000   9999     0     0     0    
2019/06/11  05:10:00  BASE  1.2642   4    1.69344  323  -4.5  70    -9.2  0     0     995.3    NA       0.0000   9999     0     0     0    
2019/06/11  05:11:00  BASE  1.2348   12   1.69344  323  -4.5  71    -9.0  0     0     995.3    NA       0.0000   9999     0     0     0    
2019/06/11  05:12:00  BASE  1.39944  14   1.81692  6    -4.5  72    -8.8  0     0     995.3    NA       0.0000   9999     0     0     0    
2019/06/11  05:13:00  BASE  1.79928  17   2.32848  18   -4.6  73    -8.6  0     0     995.3    NA       0.0000   9999     0     0     0    
2019/06/11  05:14:00  BASE  2.205    21   2.54016  24   -4.6  74    -8.5  0     0     995.3    NA       0.0000   9999     0     0     0    
2019/06/11  05:15:00  BASE  2.32848  27   2.54016  26   -4.6  75    -8.4  0     0     995.3    NA       0.0000   9999     0     0     0    
2019/06/11  05:16:00  BASE  2.32848  31   2.69304  29   -4.6  75    -8.4  0     0     995.2    NA       0.0000   9999     0     0     0    
2019/06/11  05:17:00  BASE  2.38728  26   2.69304  29   -4.7  76    -8.3  0     0     995.2    NA       0.0000   9999     0     0     0    
2019/06/11  05:18:00  BASE  2.26968  20   2.69304  29   -4.8  76    -8.4  0     0     995.2    NA       0.0000   9999     0     0     0    
2019/06/11  05:19:00  BASE  1.90512  20   2.69304  29   -4.8  76    -8.5  0     0     995.3    NA       0.0000   9999     0     0     0    
2019/06/11  05:20:00  BASE  1.71696  27   2.69304  29   -4.9  75    -8.6  0     0     995.3    NA       0.0000   9999     0     0     0    
2019/06/11  05:21:00  BASE  1.80516  30   2.69304  29   -4.9  75    -8.7  0     0     995.3    NA       0.0000   9999     0     0     0    
2019/06/11  05:22:00  BASE  1.86396  25   2.69304  29   -5.0  74    -8.9  0     0     995.2    NA       0.0000   9999     0     0     0    
2019/06/11  05:23:00  BASE  1.84044  24   2.69304  29   -4.9  74    -8.9  0     0     995.2    NA       0.0000   9999     0     0     0    
2019/06/11  05:24:00  BASE  1.86396  21   2.69304  29   -4.9  73    -8.9  0     0     995.2    NA       0.0000   9999     0     0     0    
2019/06/11  05:25:00  BASE  1.95804  16   2.69304  29   -4.9  74    -8.9  0     0     995.3    NA       0.0000   9999     0     0     0    
2019/06/11  05:26:00  BASE  1.91688  19   2.59896  12   -4.9  74    -8.8  0     0     995.3    NA       0.0000   9999     0     0     0    
2019/06/11  05:27:00  BASE  1.75224  15   2.59896  12   -5.0  74    -8.8  0     0     995.3    NA       0.0000   9999     0     0     0    
2019/06/11  05:28:00  BASE  1.54056  12   2.59896  12   -5.0  75    -8.7  0     0     995.3    NA       0.0000   9999     0     0     0    
2019/06/11  05:29:00  BASE  1.52292  15   2.59896  12   -4.9  75    -8.7  0     0     995.3    NA       0.0000   9999     0     0     0    
2019/06/11  05:30:00  BASE  1.76988  12   2.59896  12   -4.9  75    -8.6  0     0     995.3    NA       0.0000   9999     0     0     0    
2019/06/11  05:31:00  BASE  1.89336  14   2.59896  12   -4.7  75    -8.5  0     0     995.3    NA       0.0000   9999     0     0     0    
2019/06/11  05:32:01  BASE  1.85808  16   2.59896  12   -4.6  75    -8.3  0     0     995.3    NA       0.0000   9999     0     0     0    
2019/06/11  05:33:00  BASE  1.764    13   2.59896  12   -4.5  76    -8.2  0     0     995.3    NA       0.0000   9999     0     0     0    
2019/06/11  05:34:00  BASE  1.764    26   2.42256  45   -4.5  76    -8.1  0     0     995.3    NA       0.0000   9999     0     0     0    
2019/06/11  05:35:00  BASE  1.99332  43   2.48136  43   -4.6  76    -8.1  0     0     995.3    NA       0.0000   9999     0     0     0    
2019/06/11  05:36:00  BASE  2.24028  47   2.56956  50   -4.6  77    -8.1  0     0     995.3    NA       0.0000   9999     0     0     0    
2019/06/11  05:37:00  BASE  1.97568  52   2.56956  50   -4.7  77    -8.1  0     0     995.3    NA       0.0000   9999     0     0     0    
2019/06/11  05:38:00  BASE  1.83456  55   2.56956  50   -4.7  77    -8.1  0     0     995.3    NA       0.0000   9999     0     0     0    
2019/06/11  05:39:00  BASE  2.1168   53   2.59896  66   -4.7  77    -8.1  0     0     995.3    NA       0.0000   9999     0     0     0    
2019/06/11  05:40:00  BASE  2.18736  47   2.59896  29   -4.7  77    -8.1  0     0     995.3    NA       0.0000   9999     0     0     0    
2019/06/11  05:41:00  BASE  2.24028  33   2.59896  29   -4.6  77    -8.0  0     0     995.3    NA       0.0000   9999     0     0     0    
2019/06/11  05:42:00  BASE  2.04624  33   2.59896  29   -4.6  78    -7.9  0     0     995.3    NA       0.0000   9999     0     0     0    
2019/06/11  05:43:00  BASE  1.90512  40   2.59896  29   -4.7  78    -7.9  0     0     995.3    NA       0.0000   9999     0     0     0    
2019/06/11  05:44:00  BASE  1.85808  34   2.59896  29   -4.7  78    -7.9  0     0     995.3    NA       0.0000   9999     0     0     0    
2019/06/11  05:45:00  BASE  1.3524   32   2.59896  29   -4.7  78    -7.9  0     0     995.3    NA       0.0000   9999     0     0     0    
2019/06/11  05:46:00  BASE  1.62288  26   2.59896  29   -4.7  78    -7.9  0     0     995.3    NA       0.0000   9999     0     0     0    
2019/06/11  05:47:00  BASE  2.49312  13   2.87532  16   -4.8  78    -7.9  0     0     995.3    NA       0.0000   9999     0     0     0    
2019/06/11  05:48:00  BASE  2.78712  7    3.1458   360  -4.7  79    -7.8  0     0     995.3    NA       0.0000   9999     0     0     0    
2019/06/11  05:49:00  BASE  2.8224   7    3.1458   360  -4.7  79    -7.8  0     0     995.3    NA       0.0000   9999     0     0     0    
2019/06/11  05:50:00  BASE  2.76948  10   3.1458   360  -4.6  79    -7.7  0     0     995.3    NA       0.0000   9999     0     0     0    
2019/06/11  05:51:00  BASE  2.74008  14   3.1458   15   -4.6  80    -7.5  0     0     995.3    NA       0.0000   9999     0     0     0    
2019/06/11  05:52:00  BASE  2.8224   18   3.35748  19   -4.5  80    -7.4  0     0     995.3    NA       0.0000   9999     0     0     0    
2019/06/11  05:53:00  BASE  3.02232  17   3.48096  12   -4.5  80    -7.3  0     0     995.3    NA       0.0000   9999     0     0     0    
2019/06/11  05:54:00  BASE  3.1752   15   3.48096  12   -4.5  80    -7.4  0     0     995.3    NA       0.0000   9999     0     0     0    
2019/06/11  05:55:00  BASE  3.234    17   3.53976  11   -4.5  80    -7.3  0     0     995.3    NA       0.0000   9999     0     0     0    
2019/06/11  05:56:00  BASE  3.22224  16   3.53976  11   -4.5  80    -7.3  0     0     995.3    NA       0.0000   9999     0     0     0    
2019/06/11  05:57:00  BASE  3.087    16   3.53976  11   -4.5  80    -7.4  0     0     995.3    NA       0.0000   9999     0     0     0    
2019/06/11  05:58:00  BASE  2.92824  15   3.53976  11   -4.5  80    -7.5  0     0     995.3    NA       0.0000   9999     0     0     0    
2019/06/11  05:59:00  BASE  2.64012  15   3.53976  11   -4.5  79    -7.6  0     0     995.3    NA       0.0000   9999     0     0     0    
2019/06/11  06:00:00  BASE  2.50488  15   3.53976  11   -4.5  79    -7.6  0     0     995.3    NA       0.0000   9999     0     0     0    
2019/06/11  06:01:00  BASE  2.77536  12   3.53976  11   -4.6  79    -7.7  0     0     995.3    NA       0.0000   9999     0     0     0    
2019/06/11  06:02:00  BASE  3.00468  15   3.53976  11   -4.6  79    -7.7  0     0     995.3    NA       0.0000   9999     0     0     0    
2019/06/11  06:03:00  BASE  3.13404  15   3.69264  5    -4.6  79    -7.7  0     0     995.3    NA       0.0000   9999     0     0     0    
2019/06/11  06:04:00  BASE  3.2046   17   3.75144  17   -4.6  79    -7.7  0     0     995.3    NA       0.0000   9999     0     0     0    
2019/06/11  06:05:00  BASE  3.39276  21   3.81024  20   -4.6  79    -7.7  0     0     995.3    NA       0.0000   9999     0     0     0    
2019/06/11  06:06:00  BASE  3.48684  21   3.81024  20   -4.6  79    -7.7  0     0     995.3    NA       0.0000   9999     0     0     0    
2019/06/11  06:07:00  BASE  3.2928   18   3.81024  20   -4.5  79    -7.6  0     0     995.3    NA       0.0000   9999     0     0     0    
2019/06/11  06:08:00  BASE  3.21048  15   3.83964  14   -4.5  79    -7.6  0     0     995.3    NA       0.0000   9999     0     0     0    
2019/06/11  06:09:00  BASE  3.12228  15   3.83964  14   -4.5  79    -7.6  0     0     995.3    NA       0.0000   9999     0     0     0    
2019/06/11  06:10:00  BASE  2.75184  19   3.83964  14   -4.5  79    -7.6  0     0     995.4    NA       0.0000   9999     0     0     0    
2019/06/11  06:11:00  BASE  2.41668  18   3.83964  14   -4.5  79    -7.6  0     0     995.4    NA       0.0000   9999     0     0     0    
2019/06/11  06:12:00  BASE  2.1756   17   3.83964  14   -4.5  79    -7.6  0     0     995.5    NA       0.0000   9999     0     0     0    
2019/06/11  06:13:00  BASE  2.02272  16   3.83964  14   -4.5  79    -7.6  0     0     995.5    NA       0.0000   9999     0     0     0    
2019/06/11  06:14:00  BASE  2.15208  14   3.83964  14   -4.5  79    -7.6  0     0     995.5    NA       0.0000   9999     0     0     0    
2019/06/11  06:15:00  BASE  2.39904  20   3.83964  14   -4.6  79    -7.6  0     0     995.5    NA       0.0000   9999     0     0     0    
2019/06/11  06:16:00  BASE  2.60484  24   3.83964  14   -4.6  79    -7.6  0     0     995.5    NA       0.0000   9999     0     0     0    
2019/06/11  06:17:00  BASE  2.58132  25   3.83964  14   -4.6  79    -7.7  0     0     995.5    NA       0.0000   9999     0     0     0    
2019/06/11  06:18:00  BASE  2.48136  24   3.62796  10   -4.6  79    -7.7  0     0     995.5    NA       0.0000   9999     0     0     0    
2019/06/11  06:19:00  BASE  2.44608  27   2.90472  17   -4.7  79    -7.8  0     0     995.5    NA       0.0000   9999     0     0     0    
2019/06/11  06:20:00  BASE  2.39904  38   2.90472  17   -4.7  79    -7.8  0     0     995.5    NA       0.0000   9999     0     0     0    
2019/06/11  06:21:00  BASE  2.40492  44   3.1164   57   -4.7  78    -8.0  0     0     995.5    NA       0.0000   9999     0     0     0    
2019/06/11  06:22:00  BASE  2.42256  35   3.1164   57   -4.8  78    -8.0  0     0     995.5    NA       0.0000   9999     0     0     0    
2019/06/11  06:23:00  BASE  2.28144  31   3.1164   57   -4.8  78    -7.9  0     0     995.5    NA       0.0000   9999     0     0     0    
2019/06/11  06:24:00  BASE  2.06388  41   3.1164   57   -4.8  79    -8.0  0     0     995.5    NA       0.0000   9999     0     0     0    
2019/06/11  06:25:00  BASE  2.16384  57   3.1164   57   -4.9  79    -8.0  0     0     995.5    NA       0.0000   9999     0     0     0    
2019/06/11  06:26:00  BASE  2.43432  61   3.1164   57   -4.9  79    -8.0  0     0     995.5    NA       0.0000   9999     0     0     0    
2019/06/11  06:27:00  BASE  2.45196  54   3.1164   57   -5.0  79    -8.0  0     0     995.5    NA       0.0000   9999     0     0     0    
2019/06/11  06:28:00  BASE  2.42844  54   3.44568  46   -5.0  79    -8.0  0     0     995.5    NA       0.0000   9999     0     0     0    
2019/06/11  06:29:00  BASE  2.63424  63   3.44568  46   -5.0  79    -8.0  0     0     995.5    NA       0.0000   9999     0     0     0    
2019/06/11  06:30:00  BASE  2.76948  70   3.44568  46   -5.0  79    -8.0  0     0     995.5    NA       0.0000   9999     0     0     0    
2019/06/11  06:31:00  BASE  2.7342   64   3.44568  46   -5.0  79    -8.0  0     0     995.5    NA       0.0000   9999     0     0     0    
2019/06/11  06:32:00  BASE  2.78712  60   3.44568  46   -5.0  79    -8.1  0     0     995.6    NA       0.0000   9999     0     0     0    
2019/06/11  06:33:00  BASE  2.793    57   3.44568  46   -5.1  79    -8.1  0     0     995.6    NA       0.0000   9999     0     0     0    
2019/06/11  06:34:00  BASE  2.6754   54   3.44568  46   -5.1  79    -8.1  0     0     995.6    NA       0.0000   9999     0     0     0    
2019/06/11  06:35:01  BASE  2.81652  51   3.59856  45   -5.1  80    -8.1  0     0     995.6    NA       0.0000   9999     0     0     0    
2019/06/11  06:36:00  BASE  3.1458   46   3.59856  45   -5.1  80    -8.1  0     0     995.6    NA       0.0000   9999     0     0     0    
2019/06/11  06:37:00  BASE  3.40452  43   3.72204  38   -5.1  80    -8.0  0     0     995.7    NA       0.0000   9999     0     0     0    
2019/06/11  06:38:00  BASE  3.21636  39   3.72204  38   -5.1  80    -7.9  0     0     995.7    NA       0.0000   9999     0     0     0    
2019/06/11  06:39:00  BASE  2.91648  34   3.72204  38   -5.1  81    -7.9  0     0     995.7    NA       0.0000   9999     0     0     0    
2019/06/11  06:40:00  BASE  2.82828  31   3.72204  38   -5.2  81    -7.9  0     0     995.7    NA       0.0000   9999     0     0     0    
2019/06/11  06:41:00  BASE  2.75772  28   3.72204  38   -5.1  82    -7.8  0     0     995.7    NA       0.0000   9999     0     0     0    
2019/06/11  06:42:00  BASE  2.59896  27   3.72204  38   -5.1  82    -7.7  0     0     995.7    NA       0.0000   9999     0     0     0    
2019/06/11  06:43:00  BASE  2.40492  32   3.72204  38   -5.1  83    -7.5  0     0     995.7    NA       0.0000   9999     0     0     0    
2019/06/11  06:44:00  BASE  2.16384  33   3.72204  38   -5.0  83    -7.4  0     0     995.8    NA       0.0000   9999     0     0     0    
2019/06/11  06:45:00  BASE  2.09328  34   3.72204  38   -5.0  84    -7.3  0     0     995.8    NA       0.0000   9999     0     0     0    
2019/06/11  06:46:00  BASE  2.16972  32   3.72204  38   -5.0  84    -7.2  0     0     995.8    NA       0.0000   9999     0     0     0    
2019/06/11  06:47:00  BASE  2.01096  36   3.35748  36   -5.0  85    -7.2  0     0     995.9    NA       0.0000   9999     0     0     0    
2019/06/11  06:48:00  BASE  1.72284  41   3.1458   38   -5.1  85    -7.2  0     0     995.9    NA       0.0000   9999     0     0     0    
2019/06/11  06:49:00  BASE  1.45236  39   3.02232  35   -5.0  85    -7.1  0     0     995.9    NA       0.0000   9999     0     0     0    
2019/06/11  06:50:00  BASE  1.61112  46   2.93412  26   -5.0  86    -7.1  0     0     996.0    NA       0.0000   9999     0     0     0    
2019/06/11  06:51:00  BASE  1.98156  42   2.78124  27   -5.0  86    -7.1  0     0     996.0    NA       0.0000   9999     0     0     0    
2019/06/11  06:52:01  BASE  2.27556  28   2.78124  28   -5.0  86    -7.0  0     0     996.0    NA       0.0000   9999     0     0     0    
2019/06/11  06:53:00  BASE  2.53428  27   2.84592  26   -4.9  86    -6.9  0     0     996.0    NA       0.0000   9999     0     0     0    
2019/06/11  06:54:00  BASE  2.39904  32   2.84592  26   -4.9  86    -6.8  0     0     996.0    NA       0.0000   9999     0     0     0    
2019/06/11  06:55:00  BASE  2.10504  42   2.84592  26   -4.8  87    -6.7  0     0     996.0    NA       0.0000   9999     0     0     0    
2019/06/11  06:56:00  BASE  2.01684  52   2.84592  26   -4.8  87    -6.7  0     0     996.0    NA       0.0000   9999     0     0     0    
2019/06/11  06:57:00  BASE  1.95804  50   2.84592  26   -4.8  87    -6.7  0     0     996.1    NA       0.0000   9999     0     0     0    
2019/06/11  06:58:00  BASE  1.86984  41   2.84592  26   -4.8  87    -6.6  0     0     996.1    NA       0.0000   9999     0     0     0    
2019/06/11  06:59:00  BASE  1.75812  44   2.84592  26   -4.8  87    -6.6  0     0     996.1    NA       0.0000   9999     0     0     0    
2019/06/11  07:00:00  BASE  1.89924  47   2.84592  26   -4.8  87    -6.6  0     0     996.1    NA       0.0000   9999     1480  0     0    
2019/06/11  07:01:00  BASE  1.91688  49   2.84592  26   -4.8  87    -6.6  0     0     996.1    NA       0.0000   9999     1440  0     0    
2019/06/11  07:02:00  BASE  1.86984  59   2.84592  26   -4.8  87    -6.6  0     0     996.1    NA       0.0000   9999     0     0     0    
2019/06/11  07:03:00  BASE  2.01096  69   2.56956  33   -4.8  87    -6.7  0     0     996.2    NA       0.0000   9999     1480  0     0    
2019/06/11  07:04:01  BASE  1.87572  64   2.59896  67   -4.8  87    -6.7  0     0     996.2    NA       0.0000   9999     0     0     0    
2019/06/11  07:05:01  BASE  1.72284  55   2.59896  67   -4.9  87    -6.7  0     0     996.3    NA       0.0000   9999     0     0     0    
2019/06/11  07:06:00  BASE  1.62288  56   2.59896  67   -4.8  87    -6.7  0     0     996.3    NA       0.0000   9999     0     0     0    
2019/06/11  07:07:01  BASE  1.84632  47   2.59896  67   -4.8  87    -6.7  0     0     996.3    NA       0.0000   9999     0     0     0    
2019/06/11  07:08:00  BASE  1.95804  40   2.59896  67   -4.8  87    -6.6  0     0     996.3    NA       0.0000   9999     0     0     0    
2019/06/11  07:09:00  BASE  1.50528  42   2.59896  67   -4.7  87    -6.6  0     0     996.3    NA       0.0000   9999     0     0     0    
2019/06/11  07:10:00  BASE  1.4112   40   2.59896  67   -4.7  87    -6.5  0     0     996.3    NA       0.0000   9999     0     0     0    
2019/06/11  07:11:00  BASE  1.7934   32   2.59896  67   -4.7  87    -6.5  0     0     996.3    NA       0.0000   9999     0     0     0    
2019/06/11  07:12:00  BASE  2.24616  19   3.26928  20   -4.7  87    -6.6  0     0     996.3    NA       0.0000   9999     0     0     0    
2019/06/11  07:13:00  BASE  2.75184  11   3.26928  20   -4.8  87    -6.6  0     0     996.3    NA       0.0000   9999     0     0     0    
2019/06/11  07:14:00  BASE  3.05172  7    3.26928  6    -4.8  87    -6.5  0     0     996.3    NA       0.0000   9999     0     0     0    
2019/06/11  07:15:00  BASE  3.28104  9    3.86904  11   -4.7  88    -6.5  0     0     996.3    NA       0.0000   9999     0     0     0    
2019/06/11  07:16:00  BASE  3.36924  9    3.86904  11   -4.7  88    -6.4  0     0     996.3    NA       0.0000   9999     0     0     0    
2019/06/11  07:17:00  BASE  3.19872  5    3.86904  11   -4.5  88    -6.2  0     0     996.2    NA       0.0000   9999     0     0     0    
2019/06/11  07:18:00  BASE  3.26928  360  3.86904  11   -4.4  88    -6.1  0     0     996.2    NA       0.0000   9999     0     0     0    
2019/06/11  07:19:00  BASE  3.39864  1    3.86904  11   -4.3  88    -6.0  0     0     996.1    NA       0.0000   9999     0     0     0    
2019/06/11  07:20:00  BASE  3.51036  10   4.263    6    -4.3  88    -6.0  0     0     996.1    NA       0.0000   9999     0     0     0    
2019/06/11  07:21:00  BASE  3.78084  8    4.263    6    -4.2  88    -5.9  0     0     996.1    NA       0.0000   9999     0     0     0    
2019/06/11  07:22:00  BASE  4.03368  2    4.41588  5    -4.2  88    -5.9  0     0     996.0    NA       0.0000   9999     0     0     0    
2019/06/11  07:23:00  BASE  4.21008  5    4.50996  10   -4.2  88    -5.9  0     0     996.0    NA       0.0000   9999     0     0     0    
2019/06/11  07:24:00  BASE  4.2042   11   4.50996  10   -4.2  88    -5.9  0     0     996.0    NA       0.0000   9999     0     0     0    
2019/06/11  07:25:00  BASE  4.10424  15   4.50996  10   -4.2  88    -5.9  0     0     996.0    NA       0.0000   9999     0     0     0    
2019/06/11  07:26:00  BASE  3.9396   16   4.50996  10   -4.3  88    -6.0  0     0     996.0    NA       0.0000   9999     0     0     0    
2019/06/11  07:27:01  BASE  3.81024  15   4.50996  10   -4.3  88    -6.0  0     0     996.0    NA       0.0000   9999     0     0     0    
2019/06/11  07:28:00  BASE  3.7338   14   4.50996  10   -4.4  88    -6.1  0     0     996.1    NA       0.0000   9999     0     0     0    
2019/06/11  07:29:00  BASE  3.60444  13   4.50996  10   -4.4  88    -6.1  0     0     996.1    NA       0.0000   9999     0     0     0    
2019/06/11  07:30:00  BASE  3.2928   14   4.50996  10   -4.5  89    -6.1  0     0     996.2    NA       0.0000   9999     0     0     0    
2019/06/11  07:31:00  BASE  2.86356  10   4.50996  10   -4.5  89    -6.0  0     0     996.3    NA       0.0000   9999     0     0     0    
2019/06/11  07:32:00  BASE  2.59896  6    4.50996  10   -4.4  89    -6.0  0     0     996.3    NA       0.0000   9999     0     0     0    
2019/06/11  07:33:00  BASE  2.40492  9    4.44528  16   -4.4  89    -5.9  0     0     996.4    NA       0.0000   9999     0     0     0    
2019/06/11  07:34:00  BASE  2.59896  11   4.38648  13   -4.4  89    -5.9  0     0     996.4    NA       0.0000   9999     0     0     0    
2019/06/11  07:35:00  BASE  2.84004  14   4.29828  7    -4.5  89    -5.9  0     0     996.4    NA       0.0000   9999     0     0     0    
2019/06/11  07:36:00  BASE  2.81652  18   4.1454   17   -4.5  90    -5.9  0     0     996.4    NA       0.0000   9999     0     0     0    
2019/06/11  07:37:00  BASE  2.74596  13   4.1454   17   -4.5  90    -5.9  0     0     996.4    NA       0.0000   9999     0     0     0    
2019/06/11  07:38:00  BASE  2.34024  13   4.1454   17   -4.6  90    -6.0  0     0     996.5    NA       0.0000   9999     0     0     0    
2019/06/11  07:39:00  BASE  2.01096  20   3.29868  11   -4.6  90    -6.0  0     0     996.5    NA       0.0000   9999     0     0     0    
2019/06/11  07:40:00  BASE  1.8816   26   3.26928  18   -4.6  90    -6.0  0     0     996.5    NA       0.0000   9999     0     0     0    
2019/06/11  07:41:00  BASE  2.04036  27   3.26928  18   -4.6  90    -6.0  0     0     996.5    NA       0.0000   9999     0     0     0    
2019/06/11  07:42:00  BASE  2.15208  27   3.26928  18   -4.7  90    -6.1  0     0     996.5    NA       0.0000   9999     0     0     0    
2019/06/11  07:43:00  BASE  1.88748  33   3.26928  18   -4.7  90    -6.2  0     0     996.5    NA       0.0000   9999     0     0     0    
2019/06/11  07:44:00  BASE  2.0286   30   3.26928  18   -4.8  90    -6.2  0     0     996.5    NA       0.0000   9999     0     0     0    
2019/06/11  07:45:00  BASE  2.2932   25   3.26928  18   -4.9  90    -6.3  0     0     996.5    NA       0.0000   9999     0     0     0    
2019/06/11  07:46:00  BASE  2.28144  23   2.96352  10   -5.0  90    -6.4  0     0     996.5    NA       0.0000   9999     0     0     0    
2019/06/11  07:47:00  BASE  2.21088  18   2.69304  1    -5.1  90    -6.5  0     0     996.5    NA       0.0000   9999     0     0     0    
2019/06/11  07:48:00  BASE  2.24616  13   2.69304  1    -5.2  90    -6.5  0     0     996.6    NA       0.0000   9999     0     0     0    
2019/06/11  07:49:00  BASE  2.56956  14   3.087    16   -5.2  90    -6.5  0     0     996.5    NA       0.0000   9999     0     0     0    
2019/06/11  07:50:00  BASE  2.56956  23   3.087    16   -5.1  91    -6.4  0     0     996.6    NA       0.0000   9999     0     0     0    
2019/06/11  07:51:00  BASE  2.00508  32   3.087    16   -5.0  91    -6.3  0     0     996.6    NA       0.0000   9999     0     0     0    
2019/06/11  07:52:00  BASE  1.42884  43   3.087    16   -5.0  91    -6.2  0     0     996.6    NA       0.0000   9999     0     0     0    
2019/06/11  07:53:00  BASE  1.48176  56   3.087    16   -5.0  91    -6.2  0     0     996.6    NA       0.0000   9999     0     0     0    
2019/06/11  07:54:00  BASE  2.04036  68   3.087    16   -5.0  91    -6.2  0     0     996.6    NA       0.0000   9999     0     0     0    
2019/06/11  07:55:00  BASE  2.39904  70   3.087    16   -5.1  91    -6.3  0     0     996.5    NA       0.0000   9999     0     0     0    
2019/06/11  07:56:00  BASE  2.26968  67   3.087    16   -5.2  91    -6.4  0     0     996.6    NA       0.0000   9999     0     0     0    
2019/06/11  07:57:00  BASE  2.28732  64   3.26928  54   -5.1  91    -6.4  0     0     996.6    NA       0.0000   9999     0     0     0    
2019/06/11  07:58:00  BASE  2.45196  58   3.26928  54   -5.1  91    -6.3  0     0     996.6    NA       0.0000   9999     0     0     0    
2019/06/11  07:59:00  BASE  2.05212  58   3.26928  54   -5.1  92    -6.3  0     0     996.6    NA       0.0000   9999     0     0     0    
2019/06/11  08:00:01  BASE  1.89924  56   3.26928  54   -5.1  92    -6.2  0     0     996.6    NA       0.0000   9999     0     0     0    
2019/06/11  08:01:01  BASE  2.38728  40   3.26928  54   -5.1  92    -6.2  0     0     996.6    NA       0.0000   9999     0     0     0    
2019/06/11  08:02:01  BASE  2.90472  27   3.51036  25   -5.1  92    -6.2  0     0     996.6    NA       0.0000   9999     0     0     0    
2019/06/11  08:03:01  BASE  3.32808  22   3.69264  18   -5.1  92    -6.1  0     0     996.5    NA       0.0000   9999     0     0     0    
2019/06/11  08:04:01  BASE  3.4986   20   3.75144  19   -5.0  92    -6.0  0     0     996.5    NA       0.0000   9999     0     0     0    
2019/06/11  08:05:01  BASE  3.56916  21   3.86904  22   -4.9  93    -6.0  0     0     996.5    NA       0.0000   9999     0     0     0    
2019/06/11  08:06:01  BASE  3.71616  20   3.96312  15   -4.9  93    -5.9  0     0     996.5    NA       0.0000   9999     0     0     0    
2019/06/11  08:07:01  BASE  3.72792  17   3.96312  15   -4.8  93    -5.7  0     0     996.5    NA       0.0000   9999     0     0     0    
2019/06/11  08:08:01  BASE  3.6162   15   3.96312  15   -4.7  93    -5.7  0     0     996.5    NA       0.0000   9999     0     0     0    
2019/06/11  08:09:01  BASE  3.45156  14   3.96312  15   -4.7  93    -5.7  0     0     996.5    NA       0.0000   9999     0     0     0    
2019/06/11  08:10:01  BASE  3.4104   12   3.96312  15   -4.7  93    -5.6  0     0     996.5    NA       0.0000   9999     0     0     0    
2019/06/11  08:11:01  BASE  3.36924  14   3.96312  15   -4.7  93    -5.6  0     0     996.5    NA       0.0000   9999     0     0     0    
2019/06/11  08:12:01  BASE  3.60444  18   4.1454   21   -4.7  94    -5.5  0     0     996.4    NA       0.0000   9999     0     0     0    
2019/06/11  08:13:00  BASE  4.02192  20   4.41588  19   -4.6  94    -5.5  0     0     996.4    NA       0.0000   9999     0     0     0    
2019/06/11  08:14:00  BASE  3.93372  20   4.41588  19   -4.6  94    -5.4  0     0     996.4    NA       0.0000   9999     0     0     0    
2019/06/11  08:15:00  BASE  3.72792  16   4.41588  19   -4.6  94    -5.4  0     0     996.4    NA       0.0000   9999     0     0     0    
2019/06/11  08:16:00  BASE  3.56916  16   4.41588  19   -4.6  94    -5.4  0     0     996.4    NA       0.0000   9999     0     0     0    
2019/06/11  08:17:00  BASE  3.4398   17   4.41588  19   -4.6  95    -5.4  0     0     996.4    NA       0.0000   9999     0     0     0    
2019/06/11  08:18:00  BASE  3.36924  16   4.41588  19   -4.6  95    -5.3  0     0     996.4    NA       0.0000   9999     0     0     0    
2019/06/11  08:19:00  BASE  3.4398   14   4.41588  19   -4.6  95    -5.3  0     0     996.4    NA       0.0000   9999     0     0     0    
2019/06/11  08:20:00  BASE  3.76908  12   4.41588  19   -4.6  95    -5.3  0     0     996.4    NA       0.0000   9999     0     0     0    
2019/06/11  08:21:00  BASE  3.86904  13   4.41588  19   -4.6  95    -5.2  0     0     996.4    NA       0.0000   9999     0     0     0    
2019/06/11  08:22:00  BASE  3.75732  12   4.41588  19   -4.6  96    -5.2  0     0     996.4    NA       0.0000   9999     0     0     0    
2019/06/11  08:23:00  BASE  3.35748  11   4.29828  15   -4.6  96    -5.2  0     0     996.4    NA       0.0000   9999     0     0     0    
2019/06/11  08:24:00  BASE  3.03996  10   4.29828  15   -4.6  96    -5.1  0     0     996.5    NA       0.0000   9999     0     0     0    
2019/06/11  08:25:00  BASE  3.2046   12   4.263    7    -4.6  96    -5.2  0     0     996.5    NA       0.0000   9999     0     0     0    
2019/06/11  08:26:00  BASE  3.4398   9    4.263    7    -4.6  96    -5.1  0     0     996.5    NA       0.0000   9999     0     0     0    
2019/06/11  08:27:00  BASE  3.7338   6    4.263    7    -4.6  96    -5.1  0     0     996.4    NA       0.0000   9999     0     0     0    
2019/06/11  08:28:00  BASE  4.00428  6    4.50996  5    -4.6  97    -5.1  0     0     996.4    NA       0.0000   9999     0     0     0    
2019/06/11  08:29:00  BASE  3.95724  10   4.50996  5    -4.6  97    -5.0  0     0     996.5    NA       0.0000   9999     0     0     0    
2019/06/11  08:30:00  BASE  3.63972  14   4.50996  5    -4.5  97    -5.0  0     0     996.5    NA       0.0000   9999     0     0     0    
2019/06/11  08:31:00  BASE  3.32808  13   4.50996  5    -4.5  97    -5.0  0     0     996.5    NA       0.0000   9999     0     0     0    
2019/06/11  08:32:00  BASE  3.34572  13   4.50996  5    -4.5  97    -4.9  0     0     996.5    NA       0.0000   9999     0     0     0    
2019/06/11  08:33:00  BASE  3.27516  16   4.50996  5    -4.6  97    -5.0  0     0     996.5    NA       0.0000   9999     0     0     0    
2019/06/11  08:34:00  BASE  2.9106   19   4.50996  5    -4.6  97    -5.1  0     0     996.5    NA       0.0000   9999     0     0     0    
2019/06/11  08:35:00  BASE  3.01056  13   4.50996  5    -4.7  97    -5.1  0     0     996.6    NA       0.0000   9999     0     0     0    
2019/06/11  08:36:01  BASE  3.234    9    4.50996  5    -4.7  97    -5.2  0     0     996.6    NA       0.0000   9999     0     0     0    
2019/06/11  08:37:01  BASE  3.33396  8    4.50996  5    -4.8  97    -5.2  0     0     996.6    NA       0.0000   9999     0     0     0    
2019/06/11  08:38:01  BASE  3.18108  9    4.2336   19   -4.7  97    -5.2  0     0     996.6    NA       0.0000   9999     0     0     0    
2019/06/11  08:39:01  BASE  2.9106   10   3.93372  10   -4.7  97    -5.1  0     0     996.7    NA       0.0000   9999     0     0     0    
2019/06/11  08:40:01  BASE  3.19872  8    3.93372  10   -4.6  97    -5.0  0     0     996.7    NA       0.0000   9999     0     0     0    
2019/06/11  08:41:00  BASE  3.4398   8    3.93372  10   -4.6  97    -5.0  0     0     996.7    NA       0.0000   9999     0     0     0    
2019/06/11  08:42:00  BASE  3.30456  9    3.72204  5    -4.6  97    -5.0  0     0     996.7    NA       0.0000   9999     0     0     0    
2019/06/11  08:43:00  BASE  2.74008  17   3.72204  5    -4.6  96    -5.1  0     0     996.7    NA       0.0000   9999     0     0     0    
2019/06/11  08:44:00  BASE  2.50488  18   3.72204  5    -4.7  96    -5.2  0     0     996.7    NA       0.0000   9999     0     0     0    
2019/06/11  08:45:00  BASE  2.47548  14   3.69264  13   -4.8  96    -5.4  0     0     996.8    NA       0.0000   9999     0     0     0    
2019/06/11  08:46:01  BASE  2.44608  15   3.69264  13   -4.8  95    -5.5  0     0     996.8    NA       0.0000   9999     0     0     0    
2019/06/11  08:47:01  BASE  3.12228  13   3.99252  7    -4.9  95    -5.6  0     0     996.8    NA       0.0000   9999     0     0     0    
2019/06/11  08:48:01  BASE  3.22224  11   3.99252  7    -4.9  95    -5.5  0     0     996.8    NA       0.0000   9999     0     0     0    
2019/06/11  08:49:01  BASE  3.04584  11   3.99252  7    -4.8  95    -5.5  0     0     996.8    NA       0.0000   9999     0     0     0    
2019/06/11  08:50:01  BASE  3.31632  7    3.99252  7    -4.8  95    -5.4  0     0     996.8    NA       0.0000   9999     0     0     0    
2019/06/11  08:51:01  BASE  3.48096  4    3.99252  7    -4.7  95    -5.4  0     0     996.8    NA       0.0000   9999     0     0     0    
2019/06/11  08:52:00  BASE  3.55152  5    3.99252  7    -4.7  95    -5.3  0     0     996.8    NA       0.0000   9999     0     0     0    
2019/06/11  08:53:00  BASE  3.61032  7    3.99252  7    -4.7  95    -5.3  0     0     996.8    NA       0.0000   9999     0     0     0    
2019/06/11  08:54:00  BASE  3.8514   7    4.263    9    -4.6  95    -5.3  0     0     996.8    NA       0.0000   9999     0     0     0    
2019/06/11  08:55:00  BASE  4.06308  6    4.41588  2    -4.6  95    -5.3  0     0     996.8    NA       0.0000   9999     0     0     0    
2019/06/11  08:56:00  BASE  4.09836  5    4.41588  2    -4.6  95    -5.3  0     0     996.8    NA       0.0000   9999     0     0     0    
2019/06/11  08:57:00  BASE  4.07484  3    4.41588  2    -4.5  94    -5.3  0     0     996.8    NA       0.0000   9999     0     0     0    
2019/06/11  08:58:00  BASE  4.0572   360  4.41588  2    -4.5  94    -5.4  0     0     996.8    NA       0.0000   9999     0     0     0    
2019/06/11  08:59:00  BASE  4.2336   360  4.53936  360  -4.5  93    -5.5  0     0     996.8    NA       0.0000   9999     0     0     0    
2019/06/11  09:00:00  BASE  4.30416  0    4.53936  360  -4.5  93    -5.5  0     0     996.8    NA       0.0000   9999     0     0     0    
2019/06/11  09:01:00  BASE  4.1748   0    4.53936  360  -4.5  93    -5.5  0     0     996.8    NA       0.0000   9999     0     0     0    
2019/06/11  09:02:00  BASE  4.09836  2    4.53936  360  -4.5  93    -5.5  0     0     996.9    NA       0.0000   9999     0     0     0    
2019/06/11  09:03:00  BASE  3.89844  3    4.53936  360  -4.5  93    -5.5  0     0     996.9    NA       0.0000   9999     0     0     0    
2019/06/11  09:04:00  BASE  3.86316  3    4.53936  360  -4.5  92    -5.6  0     0     996.9    NA       0.0000   9999     0     0     0    
2019/06/11  09:05:00  BASE  3.7632   3    4.53936  360  -4.5  92    -5.6  0     0     997.0    NA       0.0000   9999     0     0     0    
2019/06/11  09:06:00  BASE  3.57504  6    4.53936  360  -4.5  92    -5.6  0     0     997.0    NA       0.0000   9999     0     0     0    
2019/06/11  09:07:00  BASE  3.59268  6    4.53936  360  -4.4  92    -5.5  0     0     997.0    NA       0.0000   9999     0     0     0    
2019/06/11  09:08:00  BASE  3.42216  2    4.53936  360  -4.4  92    -5.5  0     0     997.1    NA       0.0000   9999     0     0     0    
2019/06/11  09:09:01  BASE  3.2634   0    4.47468  1    -4.4  92    -5.5  0     0     997.1    NA       0.0000   9999     0     0     0    
2019/06/11  09:10:01  BASE  3.44568  359  4.32768  2    -4.4  92    -5.5  0     0     997.1    NA       0.0000   9999     0     0     0    
2019/06/11  09:11:00  BASE  3.62208  1    4.263    6    -4.4  92    -5.6  0     0     997.1    NA       0.0000   9999     0     0     0    
2019/06/11  09:12:00  BASE  3.54564  3    4.1454   2    -4.4  91    -5.6  0     0     997.1    NA       0.0000   9999     0     0     0    
2019/06/11  09:13:00  BASE  3.42216  358  4.1454   2    -4.4  91    -5.7  0     0     997.2    NA       0.0000   9999     1570  0     0    
2019/06/11  09:14:00  BASE  3.48096  348  3.90432  4    -4.5  91    -5.8  0     0     997.2    NA       0.0000   9999     1570  0     0    
2019/06/11  09:15:00  BASE  3.56916  345  3.90432  4    -4.6  91    -5.9  0     0     997.2    NA       0.0000   9999     0     0     0    
2019/06/11  09:16:00  BASE  3.48684  347  3.90432  4    -4.6  90    -5.9  0     0     997.2    NA       0.0000   9999     0     0     0    
2019/06/11  09:17:00  BASE  3.48096  345  3.86904  1    -4.6  90    -5.9  0     0     997.2    NA       0.0000   9999     0     0     0    
2019/06/11  09:18:00  BASE  3.44568  344  3.86904  1    -4.6  90    -5.9  0     0     997.2    NA       0.0000   9999     1540  0     0    
2019/06/11  09:19:00  BASE  3.35748  347  3.86904  1    -4.5  90    -5.9  0     0     997.2    NA       0.0000   9999     0     0     0    
2019/06/11  09:20:00  BASE  3.22224  352  3.83964  3    -4.5  90    -5.8  0     0     997.2    NA       0.0000   9999     0     0     0    
2019/06/11  09:21:00  BASE  3.18108  355  3.75144  340  -4.4  91    -5.7  0     0     997.2    NA       0.0000   9999     0     0     0    
2019/06/11  09:22:00  BASE  3.381    356  3.75144  340  -4.4  91    -5.7  0     0     997.2    NA       0.0000   9999     0     0     0    
2019/06/11  09:23:00  BASE  3.56328  358  3.86904  1    -4.4  91    -5.7  0     0     997.2    NA       0.0000   9999     1510  0     0    
2019/06/11  09:24:00  BASE  3.50448  360  3.86904  1    -4.4  91    -5.7  0     0     997.2    NA       0.0000   9999     0     0     0    
2019/06/11  09:25:00  BASE  3.30456  356  3.96312  3    -4.5  91    -5.7  0     0     997.3    NA       0.0000   9999     0     0     0    
2019/06/11  09:26:01  BASE  3.34572  355  3.96312  3    -4.5  91    -5.8  0     0     997.3    NA       0.0000   9999     0     0     0    
2019/06/11  09:27:01  BASE  3.37512  356  3.96312  3    -4.5  91    -5.8  0     0     997.3    NA       0.0000   9999     1440  0     0    
2019/06/11  09:28:01  BASE  3.4104   359  3.96312  3    -4.5  90    -5.8  0     0     997.3    NA       0.0000   9999     1510  0     0    
2019/06/11  09:29:01  BASE  3.42216  359  3.96312  3    -4.4  90    -5.8  0     0     997.4    NA       0.0000   9999     0     0     0    
2019/06/11  09:30:01  BASE  3.3222   352  3.96312  3    -4.4  90    -5.8  0     0     997.5    NA       0.0000   9999     0     0     0    
2019/06/11  09:31:01  BASE  3.39864  351  3.96312  3    -4.3  90    -5.7  0     0     997.5    NA       0.0000   9999     1380  0     0    
2019/06/11  09:32:01  BASE  3.59268  356  4.1454   360  -4.2  90    -5.6  0     0     997.5    NA       0.0000   9999     0     0     0    
2019/06/11  09:33:00  BASE  3.8808   359  4.29828  354  -4.2  90    -5.6  0     0     997.5    NA       0.0000   9999     1380  0     0    
2019/06/11  09:34:00  BASE  3.9396   7    4.29828  354  -4.2  90    -5.6  0     0     997.5    NA       0.0000   9999     0     0     0    
2019/06/11  09:35:00  BASE  3.95136  10   4.38648  3    -4.2  90    -5.5  0     0     997.5    NA       0.0000   9999     1570  0     0    
2019/06/11  09:36:00  BASE  4.3512   3    4.80984  5    -4.2  91    -5.5  0     0     997.5    NA       0.0000   9999     1480  0     0    
2019/06/11  09:37:00  BASE  4.49232  2    4.80984  5    -4.3  91    -5.6  0     0     997.6    NA       0.0000   9999     1480  0     0    
2019/06/11  09:38:00  BASE  4.06896  0    4.80984  5    -4.3  91    -5.6  0     0     997.6    NA       0.0000   9999     1510  0     0    
2019/06/11  09:39:00  BASE  3.9102   357  4.80984  5    -4.3  91    -5.5  0     0     997.6    NA       0.0000   9999     1440  0     0    
2019/06/11  09:40:00  BASE  3.86904  356  4.80984  5    -4.3  91    -5.5  0     0     997.6    NA       0.0000   9999     0     0     0    
2019/06/11  09:41:00  BASE  3.74556  357  4.80984  5    -4.3  91    -5.4  0     0     997.5    NA       0.0000   9999     0     0     0    
2019/06/11  09:42:01  BASE  3.55152  353  4.80984  5    -4.2  92    -5.3  0     0     997.6    NA       0.0000   9999     0     0     0    
2019/06/11  09:43:01  BASE  3.381    352  4.80984  5    -4.1  92    -5.2  0     0     997.6    NA       0.0000   9999     1570  0     0    
2019/06/11  09:44:00  BASE  3.48684  354  4.80984  5    -4.0  93    -5.0  0     0     997.6    NA       0.0000   9999     1570  0     0    
2019/06/11  09:45:00  BASE  3.53388  355  4.80984  5    -4.0  93    -5.0  0     0     997.6    NA       0.0000   9999     1570  0     0    
2019/06/11  09:46:00  BASE  3.65736  3    4.53936  4    -4.0  93    -4.9  0     0     997.6    NA       0.0000   9999     1610  0     0    
2019/06/11  09:47:00  BASE  3.7338   6    4.38648  346  -4.0  93    -4.9  0     0     997.6    NA       0.0000   9999     0     0     0    
2019/06/11  09:48:00  BASE  3.57504  360  4.38648  346  -4.1  94    -4.9  0     0     997.6    NA       0.0000   9999     0     0     0    
2019/06/11  09:49:00  BASE  3.55152  357  4.02192  2    -4.1  94    -4.9  0     0     997.6    NA       0.0000   9999     0     0     0    
2019/06/11  09:50:00  BASE  3.63972  355  4.02192  2    -4.0  94    -4.9  0     0     997.6    NA       0.0000   9999     0     0     0    
2019/06/11  09:51:00  BASE  3.68088  357  4.02192  1    -4.0  94    -4.8  0     0     997.5    NA       0.0000   9999     0     0     0    
2019/06/11  09:52:00  BASE  3.7632   2    4.116    3    -4.0  94    -4.9  0     0     997.5    NA       0.0000   9999     0     0     0    
2019/06/11  09:53:00  BASE  3.83964  0    4.32768  339  -4.1  94    -4.9  0     0     997.5    NA       0.0000   9999     0     0     0    
2019/06/11  09:54:00  BASE  3.57504  354  4.32768  339  -4.1  94    -4.9  0     0     997.5    NA       0.0000   9999     0     0     0    
2019/06/11  09:55:00  BASE  3.39276  353  4.32768  339  -4.1  94    -4.9  0     0     997.5    NA       0.0000   9999     0     0     0    
2019/06/11  09:56:00  BASE  3.59856  351  4.32768  339  -4.1  95    -4.9  0     0     997.5    NA       0.0000   9999     0     0     0    
2019/06/11  09:57:00  BASE  3.65736  346  4.32768  339  -4.1  95    -4.8  0     0     997.4    NA       0.0000   9999     0     0     0    
2019/06/11  09:58:00  BASE  3.40452  348  4.32768  339  -4.0  95    -4.7  0     0     997.4    NA       0.0000   9999     0     0     0    
2019/06/11  09:59:00  BASE  3.61032  352  4.41588  354  -4.0  96    -4.6  0     0     997.3    NA       0.0000   9999     0     0     0    
2019/06/11  10:00:00  BASE  3.75732  357  4.41588  354  -4.0  96    -4.6  0     0     997.3    NA       0.0000   9999     0     0     0    
2019/06/11  10:01:00  BASE  3.68676  357  4.41588  354  -4.0  96    -4.5  0     0     997.3    NA       0.0000   9999     0     0     0    
2019/06/11  10:02:00  BASE  4.03368  357  4.41588  354  -4.0  96    -4.6  0     0     997.3    NA       0.0000   9999     0     0     0    
2019/06/11  10:03:00  BASE  4.15716  0    4.41588  354  -4.1  96    -4.6  0     0     997.4    NA       0.0000   9999     0     0     0    
2019/06/11  10:04:00  BASE  3.88668  359  4.41588  354  -4.1  96    -4.7  0     0     997.4    NA       0.0000   9999     0     0     0    
2019/06/11  10:05:00  BASE  3.6456   356  4.41588  354  -4.1  96    -4.7  0     0     997.5    NA       0.0000   9999     0     0     0    
2019/06/11  10:06:01  BASE  3.58092  350  4.41588  354  -4.2  96    -4.6  0     0     997.5    NA       0.0000   9999     0     0     0    
2019/06/11  10:07:01  BASE  3.32808  352  4.41588  354  -4.1  97    -4.6  0     0     997.5    NA       0.0000   9999     0     0     0    
2019/06/11  10:08:01  BASE  3.26928  357  4.41588  354  -4.1  97    -4.5  0     0     997.5    NA       0.0000   9999     0     0     0    
2019/06/11  10:09:01  BASE  3.39276  1    4.29828  1    -4.1  97    -4.5  0     0     997.5    NA       0.0000   9999     1570  0     0    
2019/06/11  10:10:01  BASE  3.4986   1    4.29828  1    -4.1  97    -4.5  0     0     997.5    NA       0.0000   9999     1540  0     0    
2019/06/11  10:11:01  BASE  3.45156  0    4.29828  1    -4.1  97    -4.5  0     0     997.5    NA       0.0000   9999     1510  0     0    
2019/06/11  10:12:01  BASE  3.56328  4    4.263    1    -4.2  97    -4.6  0     0     997.5    NA       0.0000   9999     1510  0     0    
2019/06/11  10:13:01  BASE  3.78672  6    4.1748   9    -4.2  97    -4.6  0     0     997.5    NA       0.0000   9999     1510  0     0    
2019/06/11  10:14:01  BASE  3.69264  7    4.1748   9    -4.3  97    -4.7  0     0     997.5    NA       0.0000   9999     1480  0     0    
2019/06/11  10:15:01  BASE  3.60444  8    4.1748   9    -4.3  97    -4.7  0     0     997.5    NA       0.0000   9999     1570  0     0    
2019/06/11  10:16:00  BASE  3.68676  6    4.1748   9    -4.3  97    -4.7  0     0     997.5    NA       0.0000   9999     1510  0     0    
2019/06/11  10:17:00  BASE  3.81612  5    4.1748   9    -4.4  98    -4.7  0     0     997.5    NA       0.0000   9999     1480  0     0    
2019/06/11  10:18:00  BASE  3.65736  5    4.1748   9    -4.4  98    -4.7  0     0     997.5    NA       0.0000   9999     1540  0     0    
2019/06/11  10:19:00  BASE  3.69852  3    4.1748   9    -4.4  98    -4.6  0     0     997.5    NA       0.0000   9999     1480  0     0    
2019/06/11  10:20:00  BASE  3.96312  3    4.29828  1    -4.4  98    -4.6  0     0     997.5    NA       0.0000   9999     1480  0     0    
2019/06/11  10:21:00  BASE  3.86316  4    4.29828  1    -4.3  98    -4.6  0     0     997.5    NA       0.0000   9999     1480  0     0    
2019/06/11  10:22:00  BASE  3.65148  5    4.29828  1    -4.3  98    -4.6  0     0     997.5    NA       0.0000   9999     1480  0     0    
2019/06/11  10:23:00  BASE  3.48684  6    4.29828  1    -4.3  98    -4.6  0     0     997.5    NA       0.0000   9999     0     0     0    
2019/06/11  10:24:00  BASE  3.62796  5    4.29828  1    -4.3  98    -4.6  0     0     997.4    NA       0.0000   9999     0     0     0    
2019/06/11  10:25:00  BASE  4.01604  4    4.32768  1    -4.3  98    -4.6  0     0     997.3    NA       0.0000   9999     0     0     0    
2019/06/11  10:26:00  BASE  4.09248  6    4.32768  1    -4.3  98    -4.6  0     0     997.3    NA       0.0000   9999     1540  0     0    
2019/06/11  10:27:00  BASE  4.16304  6    4.53936  6    -4.3  98    -4.6  0     0     997.3    NA       0.0000   9999     1510  0     0    
2019/06/11  10:28:00  BASE  4.1748   7    4.53936  6    -4.3  98    -4.6  0     0     997.4    NA       0.0000   9999     1540  0     0    
2019/06/11  10:29:00  BASE  4.116    7    4.53936  6    -4.3  98    -4.6  0     0     997.4    NA       0.0000   9999     1510  0     0    
2019/06/11  10:30:00  BASE  3.8808   8    4.53936  6    -4.4  98    -4.6  0     0     997.5    NA       0.0000   9999     0     0     0    
2019/06/11  10:31:00  BASE  3.35748  10   4.53936  6    -4.4  99    -4.6  0     0     997.5    NA       0.0000   9999     0     0     0    
2019/06/11  10:32:00  BASE  3.1458   13   4.53936  6    -4.4  99    -4.6  0     0     997.5    NA       0.0000   9999     0     0     0    
2019/06/11  10:33:00  BASE  3.48684  13   4.56876  10   -4.5  99    -4.6  0     0     997.5    NA       0.0000   9999     0     0     0    
2019/06/11  10:34:00  BASE  3.83964  12   4.56876  10   -4.5  99    -4.7  0     0     997.5    NA       0.0000   9999     0     0     0    
2019/06/11  10:35:00  BASE  3.9396   15   4.65696  8    -4.6  99    -4.7  0     0     997.5    NA       0.0000   9999     0     0     0    
2019/06/11  10:36:00  BASE  4.10424  12   4.93332  7    -4.7  99    -4.8  0     0     997.5    NA       0.0000   9999     0     0     0    
2019/06/11  10:37:00  BASE  3.96312  9    4.93332  7    -4.6  99    -4.7  0     0     997.5    NA       0.0000   9999     0     0     0    
2019/06/11  10:38:00  BASE  4.03368  9    4.93332  7    -4.6  99    -4.7  0     0     997.6    NA       0.0000   9999     0     0     0    
2019/06/11  10:39:00  BASE  4.33356  9    4.93332  7    -4.6  100   -4.6  0     0     997.6    NA       0.0000   9999     0     0     0    
2019/06/11  10:40:00  BASE  4.24536  10   4.93332  7    -4.5  100   -4.6  0     0     997.6    NA       0.0000   9999     0     0     0    
2019/06/11  10:41:00  BASE  3.7926   10   4.93332  7    -4.5  100   -4.5  0     0     997.7    NA       0.0000   9999     0     0     0    
2019/06/11  10:42:00  BASE  3.46332  9    4.93332  7    -4.5  100   -4.5  0     0     997.7    NA       0.0000   9999     0     0     0    
2019/06/11  10:43:00  BASE  3.75732  9    4.93332  7    -4.4  100   -4.4  0     0     997.7    NA       0.0000   9999     0     0     0    
2019/06/11  10:44:00  BASE  3.96312  11   4.93332  7    -4.5  100   -4.5  0     0     997.7    NA       0.0000   9999     0     0     0    
2019/06/11  10:45:00  BASE  3.72792  14   4.93332  7    -4.5  100   -4.5  0     0     997.7    NA       0.0000   9999     1740  0     0    
2019/06/11  10:46:00  BASE  3.48684  13   4.65696  6    -4.6  100   -4.6  0     0     997.8    NA       0.0000   9999     1740  0     0    
2019/06/11  10:47:01  BASE  3.51624  8    4.65696  6    -4.6  100   -4.6  0     0     997.8    NA       0.0000   9999     0     0     0    
2019/06/11  10:48:01  BASE  3.49272  8    4.65696  6    -4.7  100   -4.7  0     0     997.8    NA       0.0000   9999     0     0     0    
2019/06/11  10:49:00  BASE  3.28104  3    4.44528  10   -4.7  100   -4.7  0     0     997.8    NA       0.0000   9999     0     0     0    
2019/06/11  10:50:00  BASE  3.381    1    4.35708  5    -4.6  100   -4.6  0     0     997.8    NA       0.0000   9999     0     0     0    
2019/06/11  10:51:00  BASE  3.74556  7    4.35708  5    -4.6  100   -4.6  0     0     997.8    NA       0.0000   9999     0     0     0    
2019/06/11  10:52:00  BASE  4.03956  9    4.50996  17   -4.5  100   -4.5  0     0     997.8    NA       0.0000   9999     0     0     0    
2019/06/11  10:53:00  BASE  4.03368  13   4.59816  10   -4.5  100   -4.5  0     0     997.8    NA       0.0000   9999     0     0     0    
2019/06/11  10:54:00  BASE  3.5868   13   4.59816  10   -4.5  100   -4.5  0     0     997.8    NA       0.0000   9999     0     0     0    
2019/06/11  10:55:00  BASE  3.40452  8    4.59816  10   -4.5  100   -4.5  0     0     997.9    NA       0.0000   9999     0     0     0    
2019/06/11  10:56:00  BASE  3.7044   8    4.59816  2    -4.5  100   -4.5  0     0     997.8    NA       0.0000   9999     0     0     0    
2019/06/11  10:57:00  BASE  3.86316  16   4.59816  2    -4.5  100   -4.5  0     0     997.8    NA       0.0000   9999     0     0     0    
2019/06/11  10:58:00  BASE  3.95136  19   4.59816  2    -4.6  100   -4.6  0     0     997.8    NA       0.0000   9999     0     0     0    
2019/06/11  10:59:00  BASE  3.9984   24   4.59816  2    -4.6  100   -4.6  0     0     997.8    NA       0.0000   9999     0     0     0    
2019/06/11  11:00:00  BASE  3.86904  26   4.59816  2    -4.7  100   -4.7  0     0     997.8    NA       0.0000   9999     0     0     0    
2019/06/11  11:01:00  BASE  3.68676  26   4.59816  2    -4.7  100   -4.7  0     0     997.8    NA       0.0000   9999     0     0     0    
2019/06/11  11:02:00  BASE  3.528    24   4.59816  2    -4.7  100   -4.7  0     0     997.8    NA       0.0000   9999     0     0     0    
2019/06/11  11:03:00  BASE  3.53388  18   4.59816  2    -4.7  100   -4.7  0     0     997.8    NA       0.0000   9999     0     0     0    
2019/06/11  11:04:00  BASE  3.56328  13   4.59816  2    -4.7  100   -4.7  0     0     997.8    NA       0.0000   9999     0     0     0    
2019/06/11  11:05:00  BASE  3.68088  13   4.59816  2    -4.6  100   -4.6  0     0     997.8    NA       0.0000   9999     0     0     0    
2019/06/11  11:06:00  BASE  3.57504  15   4.53936  15   -4.6  100   -4.6  0     0     997.8    NA       0.0000   9999     0     0     0    
2019/06/11  11:07:00  BASE  3.48096  18   4.53936  15   -4.6  100   -4.6  0     0     997.8    NA       0.0000   9999     0     0     0    
2019/06/11  11:08:00  BASE  3.675    21   4.38648  5    -4.5  100   -4.5  0     0     997.8    NA       0.0000   9999     0     0     0    
2019/06/11  11:09:00  BASE  3.71616  16   4.38648  5    -4.5  100   -4.5  0     0     997.8    NA       0.0000   9999     0     0     0    
2019/06/11  11:10:00  BASE  3.53976  14   4.38648  5    -4.5  100   -4.5  0     0     997.8    NA       0.0000   9999     0     0     0    
2019/06/11  11:11:00  BASE  3.48684  16   4.38648  5    -4.5  100   -4.5  0     0     997.8    NA       0.0000   9999     0     0     0    
2019/06/11  11:12:00  BASE  3.56328  16   4.38648  5    -4.6  100   -4.6  0     0     997.8    NA       0.0000   9999     0     0     0    
2019/06/11  11:13:00  BASE  3.48096  20   4.38648  5    -4.6  100   -4.6  0     0     997.8    NA       0.0000   9999     0     0     0    
2019/06/11  11:14:00  BASE  3.6456   24   4.1748   12   -4.6  100   -4.6  0     0     997.8    NA       0.0000   9999     0     0     0    
2019/06/11  11:15:00  BASE  3.74556  24   4.1748   12   -4.6  100   -4.6  0     0     997.8    NA       0.0000   9999     0     0     0    
2019/06/11  11:16:00  BASE  3.48096  23   4.1748   12   -4.7  100   -4.7  0     0     997.8    NA       0.0000   9999     0     0     0    
2019/06/11  11:17:00  BASE  3.31632  23   4.1748   12   -4.7  100   -4.7  0     0     997.8    NA       0.0000   9999     0     0     0    
2019/06/11  11:18:00  BASE  3.31044  18   4.1748   12   -4.7  100   -4.7  0     0     997.9    NA       0.0000   9999     0     0     0    
2019/06/11  11:19:00  BASE  3.12228  13   4.08072  22   -4.7  100   -4.7  0     0     997.9    NA       0.0000   9999     0     0     0    
2019/06/11  11:20:00  BASE  3.0282   14   4.08072  22   -4.6  100   -4.6  0     0     998.0    NA       0.0000   9999     0     0     0    
2019/06/11  11:21:00  BASE  2.94588  16   4.08072  22   -4.6  100   -4.6  0     0     998.0    NA       0.0000   9999     0     0     0    
2019/06/11  11:22:00  BASE  2.61072  18   4.08072  22   -4.6  100   -4.6  0     0     998.0    NA       0.0000   9999     0     0     0    
2019/06/11  11:23:00  BASE  2.55192  19   4.08072  22   -4.7  100   -4.7  0     0     998.0    NA       0.0000   9999     0     0     0    
2019/06/11  11:24:00  BASE  2.66952  15   3.90432  25   -4.7  100   -4.7  0     0     998.0    NA       0.0000   9999     0     0     0    
2019/06/11  11:25:00  BASE  2.66952  14   3.51036  15   -4.7  100   -4.7  0     0     998.0    NA       0.0000   9999     0     0     0    
2019/06/11  11:26:00  BASE  2.68128  18   3.51036  15   -4.7  100   -4.7  0     0     998.0    NA       0.0000   9999     0     0     0    
2019/06/11  11:27:00  BASE  2.79888  19   3.51036  15   -4.7  100   -4.7  0     0     998.0    NA       0.0000   9999     0     0     0    
2019/06/11  11:28:00  BASE  3.087    21   3.62796  20   -4.8  100   -4.8  0     0     997.0    NA       0.0000   9999     0     0     0    
2019/06/11  11:29:00  BASE  3.36336  23   3.65736  19   -4.8  100   -4.8  0     0     998.0    NA       0.0000   9999     0     0     0    
2019/06/11  11:30:00  BASE  3.34572  19   3.65736  19   -4.8  100   -4.8  0     0     998.0    NA       0.0000   9999     0     0     0    
2019/06/11  11:31:00  BASE  3.18696  15   3.65736  19   -4.8  100   -4.8  0     0     998.0    NA       0.0000   9999     0     0     0    
2019/06/11  11:32:00  BASE  3.06348  13   3.65736  19   -4.7  100   -4.7  0     0     998.1    NA       0.0000   9999     0     0     0    
2019/06/11  11:33:00  BASE  2.84004  14   3.65736  19   -4.7  100   -4.7  0     0     998.1    NA       0.0000   9999     0     0     0    
2019/06/11  11:34:00  BASE  2.646    14   3.65736  19   -4.7  100   -4.7  0     0     998.2    NA       0.0000   9999     0     0     0    
2019/06/11  11:35:00  BASE  2.646    8    3.65736  19   -4.7  100   -4.7  0     0     998.2    NA       0.0000   9999     0     0     0    
2019/06/11  11:36:00  BASE  2.51076  8    3.65736  19   -4.6  100   -4.6  0     0     998.2    NA       0.0000   9999     0     0     0    
2019/06/11  11:37:00  BASE  2.38728  8    3.65736  19   -4.5  100   -4.5  0     0     998.2    NA       0.0000   9999     0     0     0    
2019/06/11  11:38:00  BASE  2.36376  10   3.65736  19   -4.5  100   -4.5  0     0     998.2    NA       0.0000   9999     0     0     0    
2019/06/11  11:39:00  BASE  2.33436  10   3.59856  16   -4.5  100   -4.5  0     0     998.2    NA       0.0000   9999     0     0     0    
2019/06/11  11:40:00  BASE  2.6166   7    3.38688  12   -4.5  100   -4.5  0     0     998.2    NA       0.0000   9999     0     0     0    
2019/06/11  11:41:00  BASE  2.8812   10   3.38688  12   -4.6  100   -4.6  0     0     998.3    NA       0.0000   9999     0     0     0    
2019/06/11  11:42:00  BASE  2.91648  18   3.38688  12   -4.6  100   -4.6  0     0     998.3    NA       0.0000   9999     0     0     0    
2019/06/11  11:43:00  BASE  2.8224   22   3.38688  12   -4.7  100   -4.7  0     0     998.2    NA       0.0000   9999     0     0     0    
2019/06/11  11:44:00  BASE  2.646    22   3.38688  12   -4.7  100   -4.7  0     0     998.2    NA       0.0000   9999     0     0     0    
2019/06/11  11:45:00  BASE  2.6166   20   3.38688  12   -4.8  100   -4.8  0     0     998.2    NA       0.0000   9999     0     0     0    
2019/06/11  11:46:00  BASE  2.95764  15   3.81024  18   -4.8  100   -4.8  0     0     998.2    NA       0.0000   9999     0     0     0    
2019/06/11  11:47:00  BASE  3.42216  13   3.81024  18   -4.8  100   -4.8  0     0     998.1    NA       0.0000   9999     0     0     0    
2019/06/11  11:48:00  BASE  3.4692   9    3.81024  18   -4.7  100   -4.7  0     0     998.0    NA       0.0000   9999     0     0     0    
2019/06/11  11:49:00  BASE  3.41628  9    3.83964  19   -4.6  100   -4.6  0     0     998.0    NA       0.0000   9999     0     0     0    
2019/06/11  11:50:00  BASE  3.6162   15   4.02192  17   -4.6  100   -4.6  0     0     998.0    NA       0.0000   9999     0     0     0    
2019/06/11  11:51:00  BASE  3.97488  12   4.44528  9    -4.5  100   -4.5  0     0     997.9    NA       0.0000   9999     0     0     0    
2019/06/11  11:52:00  BASE  3.9984   7    4.44528  9    -4.5  100   -4.5  0     0     997.9    NA       0.0000   9999     0     0     0    
2019/06/11  11:53:00  BASE  3.77496  2    4.44528  9    -4.5  100   -4.5  0     0     997.9    NA       0.0000   9999     0     0     0    
2019/06/11  11:54:00  BASE  3.83964  0    4.44528  9    -4.5  100   -4.5  0     0     997.9    NA       0.0000   9999     0     0     0    
2019/06/11  11:55:00  BASE  3.969    3    4.44528  7    -4.4  100   -4.4  0     0     997.9    NA       0.0000   9999     0     0     0    
2019/06/11  11:56:00  BASE  3.95136  3    4.44528  7    -4.3  100   -4.3  0     0     998.0    NA       0.0000   9999     0     0     0    
2019/06/11  11:57:00  BASE  3.74556  4    4.44528  7    -4.3  100   -4.3  0     0     998.0    NA       0.0000   9999     0     0     0    
2019/06/11  11:58:00  BASE  3.31044  0    4.44528  7    -4.3  100   -4.3  0     0     998.1    NA       0.0000   9999     0     0     0    
2019/06/11  11:59:00  BASE  2.99292  351  4.44528  7    -4.3  100   -4.3  0     0     998.2    NA       0.0000   9999     0     0     0    
2019/06/11  12:00:00  BASE  2.93412  354  4.44528  7    -4.3  100   -4.3  0     0     998.2    NA       0.0000   9999     0     0     0    
2019/06/11  12:01:00  BASE  2.91648  352  4.44528  7    -4.3  100   -4.3  0     0     998.2    NA       0.0000   9999     0     0     0    
2019/06/11  12:02:00  BASE  2.55192  345  4.44528  7    -4.3  100   -4.3  0     0     998.2    NA       0.0000   9999     0     0     0    
2019/06/11  12:03:00  BASE  2.2344   353  4.44528  7    -4.2  100   -4.2  0     0     998.2    NA       0.0000   9999     0     0     0    
2019/06/11  12:04:00  BASE  2.48724  3    4.44528  7    -4.2  100   -4.2  0     0     998.2    NA       0.0000   9999     0     0     0    
2019/06/11  12:05:00  BASE  2.7636   10   4.29828  360  -4.3  100   -4.3  0     0     998.2    NA       0.0000   9999     0     0     0    
2019/06/11  12:06:00  BASE  2.75184  16   3.93372  3    -4.3  100   -4.3  0     0     998.2    NA       0.0000   9999     0     0     0    
2019/06/11  12:07:00  BASE  2.71656  23   3.56916  2    -4.4  100   -4.4  0     0     998.2    NA       0.0000   9999     0     0     0    
2019/06/11  12:08:00  BASE  2.65188  24   3.48096  3    -4.5  100   -4.5  0     0     998.2    NA       0.0000   9999     0     0     0    
2019/06/11  12:09:00  BASE  2.49312  24   3.48096  3    -4.6  100   -4.6  0     0     998.3    NA       0.0000   9999     0     0     0    
2019/06/11  12:10:00  BASE  2.3226   28   3.41628  351  -4.6  100   -4.6  0     0     998.3    NA       0.0000   9999     0     0     0    
2019/06/11  12:11:01  BASE  2.2344   25   3.234    7    -4.6  100   -4.6  0     0     998.3    NA       0.0000   9999     0     0     0    
2019/06/11  12:12:01  BASE  2.27556  18   3.234    7    -4.7  100   -4.7  0     0     998.4    NA       0.0000   9999     0     0     0    
2019/06/11  12:13:01  BASE  2.25792  13   3.234    7    -4.7  100   -4.7  0     0     998.4    NA       0.0000   9999     0     0     0    
2019/06/11  12:14:01  BASE  2.2344   13   3.087    23   -4.7  100   -4.7  0     0     998.4    NA       0.0000   9999     0     0     0    
2019/06/11  12:15:01  BASE  2.25204  17   3.087    23   -4.6  100   -4.6  0     0     998.4    NA       0.0000   9999     0     0     0    
2019/06/11  12:16:01  BASE  2.15208  22   2.96352  5    -4.5  100   -4.5  0     0     998.4    NA       0.0000   9999     0     0     0    
2019/06/11  12:17:01  BASE  2.12268  24   2.96352  5    -4.5  100   -4.5  0     0     998.4    NA       0.0000   9999     0     0     0    
2019/06/11  12:18:01  BASE  2.29908  19   2.96352  5    -4.4  100   -4.5  0     0     998.4    NA       0.0000   9999     0     0     0    
2019/06/11  12:19:01  BASE  2.28144  12   2.96352  5    -4.5  100   -4.5  0     0     998.4    NA       0.0000   9999     0     0     0    
2019/06/11  12:20:01  BASE  2.2932   12   2.96352  5    -4.5  99    -4.6  0     0     998.5    NA       0.0000   9999     0     0     0    
2019/06/11  12:21:01  BASE  2.499    14   2.96352  5    -4.5  99    -4.6  0     0     998.4    NA       0.0000   9999     0     0     0    
2019/06/11  12:22:01  BASE  2.54604  15   2.96352  5    -4.6  99    -4.7  0     0     998.4    NA       0.0000   9999     0     0     0    
2019/06/11  12:23:01  BASE  2.45784  18   2.96352  5    -4.6  99    -4.7  0     0     998.4    NA       0.0000   9999     0     0     0    
2019/06/11  12:24:01  BASE  2.352    14   2.96352  5    -4.6  100   -4.7  0     0     998.5    NA       0.0000   9999     0     0     0    
2019/06/11  12:25:01  BASE  2.21088  9    2.87532  15   -4.6  100   -4.7  0     0     998.5    NA       0.0000   9999     0     0     0    
2019/06/11  12:26:01  BASE  2.1168   16   2.87532  15   -4.7  100   -4.7  0     0     998.5    NA       0.0000   9999     0     0     0    
2019/06/11  12:27:01  BASE  2.07564  25   2.87532  15   -4.7  100   -4.7  0     0     998.5    NA       0.0000   9999     0     0     0    
2019/06/11  12:28:01  BASE  1.98744  28   2.87532  15   -4.8  100   -4.8  0     0     998.5    NA       0.0000   9999     0     0     0    
2019/06/11  12:29:01  BASE  1.81104  32   2.87532  15   -4.8  100   -4.8  0     0     998.4    NA       0.0000   9999     0     0     0    
2019/06/11  12:30:00  BASE  1.80516  39   2.87532  15   -4.8  100   -4.8  0     0     998.4    NA       0.0000   9999     0     0     0    
2019/06/11  12:31:01  BASE  2.07564  39   2.75184  16   -4.8  100   -4.8  0     0     998.4    NA       0.0000   9999     0     0     0    
2019/06/11  12:32:01  BASE  2.1756   35   2.63424  12   -4.9  100   -4.9  0     0     998.4    NA       0.0000   9999     0     0     0    
2019/06/11  12:33:00  BASE  2.1168   34   2.63424  39   -4.9  100   -4.9  0     0     998.4    NA       0.0000   9999     1740  0     0    
2019/06/11  12:34:00  BASE  2.22264  31   2.81064  26   -4.9  100   -4.9  0     0     998.4    NA       0.0000   9999     1670  0     0    
2019/06/11  12:35:00  BASE  2.3226   28   2.81064  26   -4.9  100   -4.9  0     0     998.4    NA       0.0000   9999     1640  0     0    
2019/06/11  12:36:00  BASE  2.25204  23   2.81064  26   -4.9  100   -4.9  0     0     998.5    NA       0.0000   9999     1710  0     0    
2019/06/11  12:37:00  BASE  1.94628  22   2.81064  26   -4.9  100   -4.9  0     0     998.5    NA       0.0000   9999     0     0     0    
2019/06/11  12:38:00  BASE  1.8522   23   2.81064  26   -4.9  100   -4.9  0     0     998.5    NA       0.0000   9999     1670  0     0    
2019/06/11  12:39:00  BASE  1.92864  20   2.81064  26   -4.9  100   -4.9  0     0     998.5    NA       0.0000   9999     1570  0     0    
2019/06/11  12:40:00  BASE  1.65228  27   2.81064  26   -4.9  100   -4.9  0     0     998.5    NA       0.0000   9999     1570  0     0    
2019/06/11  12:41:00  BASE  1.42884  48   2.81064  26   -4.9  100   -4.9  0     0     998.4    NA       0.0000   9999     1570  0     0    
2019/06/11  12:42:00  BASE  1.62876  43   2.81064  26   -4.9  100   -4.9  0     0     998.5    NA       0.0000   9999     1610  0     0    
2019/06/11  12:43:00  BASE  1.8228   25   2.81064  26   -4.9  100   -4.9  0     0     998.5    NA       0.0000   9999     1670  0     0    
2019/06/11  12:44:00  BASE  1.84044  24   2.54016  11   -4.9  100   -4.9  0     0     998.4    NA       0.0000   9999     1640  0     0    
2019/06/11  12:45:00  BASE  1.90512  19   2.54016  11   -4.9  100   -4.9  0     0     997.9    NA       0.0000   9999     1670  0     0    
2019/06/11  12:46:00  BASE  1.86984  20   2.38728  21   -4.9  100   -4.9  0     0     998.6    NA       0.0000   9999     1670  0     0    
2019/06/11  12:47:00  BASE  1.89924  13   2.38728  21   -4.8  100   -4.8  0     0     998.6    NA       0.0000   9999     1770  0     0    
2019/06/11  12:48:00  BASE  1.95216  353  2.35788  5    -4.7  100   -4.7  0     0     998.6    NA       0.0000   9999     0     0     0    
2019/06/11  12:49:00  BASE  2.21676  339  3.29868  339  -4.6  100   -4.6  0     0     998.7    NA       0.0000   9999     0     0     0    
2019/06/11  12:50:00  BASE  2.28732  337  3.29868  339  -4.5  100   -4.5  0     0     998.8    NA       0.0000   9999     0     0     0    
2019/06/11  12:51:00  BASE  2.50488  338  3.48096  339  -4.3  100   -4.3  0     0     998.8    NA       0.0000   9999     1740  0     0    
2019/06/11  12:52:00  BASE  2.58132  331  3.48096  339  -4.1  100   -4.1  0     0     998.8    NA       0.0000   9999     1640  0     0    
2019/06/11  12:53:00  BASE  2.3226   339  3.48096  339  -4.0  100   -4.0  0     0     998.8    NA       0.0000   9999     1610  0     0    
2019/06/11  12:54:00  BASE  2.62836  356  3.48096  339  -3.9  100   -3.9  0     0     998.8    NA       0.0000   9999     1570  0     0    
2019/06/11  12:55:00  BASE  2.5872   359  3.48096  339  -3.9  100   -3.9  0     0     998.7    NA       0.0000   9999     1740  0     0    
2019/06/11  12:56:00  BASE  1.98156  354  3.48096  339  -3.9  100   -3.9  0     0     998.3    NA       0.0000   9999     1570  0     0    
2019/06/11  12:57:00  BASE  1.65228  358  3.48096  339  -3.9  100   -3.9  0     0     998.8    NA       0.0000   9999     1570  0     0    
2019/06/11  12:58:00  BASE  1.75812  353  3.48096  339  -3.9  100   -3.9  0     0     998.9    NA       0.0000   9999     1640  0     0    
2019/06/11  12:59:00  BASE  1.78752  346  3.48096  339  -4.0  100   -4.0  0     0     998.9    NA       0.0000   9999     1570  0     0    
2019/06/11  13:00:00  BASE  2.03448  346  3.48096  339  -4.0  100   -4.0  0     0     998.9    NA       0.0000   9999     0     0     0    
2019/06/11  13:01:00  BASE  2.35788  347  3.087    360  -4.0  100   -4.0  0     0     998.9    NA       0.0000   9999     1670  0     0    
2019/06/11  13:02:00  BASE  2.31672  350  3.087    360  -4.0  100   -4.0  0     0     998.9    NA       0.0000   9999     1540  0     0    
2019/06/11  13:03:00  BASE  2.24028  354  3.087    360  -3.9  100   -3.9  0     0     999.0    NA       0.0000   9999     1770  0     0    
2019/06/11  13:04:00  BASE  2.39316  352  3.1752   350  -3.9  100   -3.9  0     0     999.0    NA       0.0000   9999     1510  0     0    
2019/06/11  13:05:00  BASE  2.59896  343  3.1752   350  -3.8  100   -3.8  0     0     999.0    NA       0.0000   9999     1570  0     0    
2019/06/11  13:06:00  BASE  2.52252  331  3.1752   350  -3.8  100   -3.9  0     0     999.0    NA       0.0000   9999     1670  0     0    
2019/06/11  13:07:00  BASE  2.18736  326  3.1752   350  -3.8  100   -3.9  0     0     999.1    NA       0.0000   9999     0     0     0    
2019/06/11  13:08:00  BASE  2.34024  337  3.1752   350  -3.8  99    -3.9  0     0     999.1    NA       0.0000   9999     1570  0     0    
2019/06/11  13:09:00  BASE  2.84004  338  3.1752   350  -3.8  99    -3.9  0     0     999.1    NA       0.0000   9999     1570  0     0    
2019/06/11  13:10:00  BASE  2.81652  337  3.1752   350  -3.8  99    -4.0  0     0     999.1    NA       0.0000   9999     1610  0     0    
2019/06/11  13:11:00  BASE  2.71656  343  3.1752   350  -3.9  99    -4.0  0     0     999.1    NA       0.0000   9999     1610  0     0    
2019/06/11  13:12:00  BASE  2.499    344  3.1752   350  -3.9  99    -4.0  0     0     999.1    NA       0.0000   9999     1710  0     0    
2019/06/11  13:13:00  BASE  2.19324  339  3.1752   350  -3.9  99    -4.0  0     0     999.1    NA       0.0000   9999     1710  0     0    
2019/06/11  13:14:00  BASE  2.28732  337  3.1458   335  -3.9  99    -4.0  0     0     999.1    NA       0.0000   9999     1770  0     0    
2019/06/11  13:15:00  BASE  2.45784  334  3.1458   335  -3.9  99    -4.0  0     0     999.1    NA       0.0000   9999     1800  0     0    
2019/06/11  13:16:00  BASE  2.4696   331  3.1458   335  -3.8  99    -4.0  1     0     999.1    NA       0.0000   9999     1740  0     0    
2019/06/11  13:17:00  BASE  2.26968  329  3.1458   335  -3.8  99    -3.9  1     0     999.1    NA       0.0000   9999     1610  0     0    
2019/06/11  13:18:00  BASE  2.21676  329  3.1458   335  -3.8  99    -3.9  1     0     999.1    NA       0.0000   9999     1640  0     0    
2019/06/11  13:19:00  BASE  2.43432  335  3.1458   335  -3.8  99    -4.0  1     0     999.1    NA       0.0000   9999     1710  0     0    
2019/06/11  13:20:00  BASE  2.42256  339  2.96352  342  -3.8  98    -4.0  1     0     999.1    NA       0.0000   9999     0     0     0    
2019/06/11  13:21:00  BASE  2.24028  331  2.81064  345  -3.7  98    -4.0  1     0     999.1    NA       0.0000   9999     0     0     0    
2019/06/11  13:22:00  BASE  2.34024  314  2.81064  345  -3.7  98    -4.0  1     0     999.1    NA       0.0000   9999     1710  0     0    
2019/06/11  13:23:00  BASE  2.4696   309  2.81064  311  -3.7  98    -4.0  1     0     999.1    NA       0.0000   9999     1710  0     0    
2019/06/11  13:24:00  BASE  2.27556  309  2.81064  307  -3.7  98    -4.0  1     0     999.1    NA       0.0000   9999     1670  0     0    
2019/06/11  13:25:00  BASE  1.81104  311  2.81064  307  -3.7  98    -4.0  1     0     999.1    NA       0.0000   9999     1640  0     0    
2019/06/11  13:26:01  BASE  1.55232  310  2.81064  307  -3.8  98    -4.1  1     0     999.1    NA       0.0000   9999     1640  0     0    
2019/06/11  13:27:01  BASE  1.84632  313  2.81064  307  -3.8  98    -4.1  2     0     999.1    NA       0.0000   9999     0     0     0    
2019/06/11  13:28:01  BASE  2.13444  317  2.81064  307  -3.8  98    -4.1  2     0     999.0    NA       0.0000   9999     0     0     0    
2019/06/11  13:29:01  BASE  1.86396  310  2.81064  307  -3.8  98    -4.1  2     0     999.0    NA       0.0000   9999     1570  0     0    
2019/06/11  13:30:01  BASE  1.32888  316  2.81064  307  -3.8  98    -4.1  2     0     998.9    NA       0.0000   9999     1570  0     0    
2019/06/11  13:31:01  BASE  1.51116  327  2.81064  307  -3.8  98    -4.1  2     0     998.9    NA       0.0000   9999     1570  0     0    
2019/06/11  13:32:01  BASE  2.36376  326  3.02232  327  -3.8  98    -4.1  3     0     998.9    NA       0.0000   9999     0     0     0    
2019/06/11  13:33:01  BASE  2.86356  329  3.087    326  -3.8  98    -4.1  3     0     998.8    NA       0.0000   9999     0     0     0    
2019/06/11  13:34:01  BASE  2.79888  328  3.087    326  -3.9  98    -4.1  3     0     998.8    NA       0.0000   9999     0     0     0    
2019/06/11  13:35:01  BASE  2.50488  324  3.1458   327  -3.9  98    -4.2  3     0     998.9    NA       0.0000   9999     0     0     0    
2019/06/11  13:36:01  BASE  2.28144  319  3.1458   327  -3.9  98    -4.1  4     0     998.9    NA       0.0000   9999     0     0     0    
2019/06/11  13:37:01  BASE  2.26968  320  3.1458   320  -3.9  98    -4.1  4     0     998.9    NA       0.0000   9999     1570  0     0    
2019/06/11  13:38:01  BASE  2.47548  320  3.1458   320  -3.9  98    -4.1  4     0     999.0    NA       0.0000   9999     0     0     0    
2019/06/11  13:39:01  BASE  2.56368  314  3.1458   320  -3.9  98    -4.1  5     0     999.0    NA       0.0000   9999     0     0     0    
2019/06/11  13:40:01  BASE  2.21676  318  3.1458   320  -3.9  98    -4.2  5     0     999.0    NA       0.0000   9999     0     0     0    
2019/06/11  13:41:00  BASE  1.98156  319  3.1458   320  -4.0  98    -4.2  5     0     999.0    NA       0.0000   9999     0     0     0    
2019/06/11  13:42:00  BASE  1.81692  314  3.1458   320  -4.0  98    -4.3  6     0     999.0    NA       0.0000   9999     0     0     0    
2019/06/11  13:43:00  BASE  1.98156  318  3.1458   320  -4.1  98    -4.3  6     0     999.0    NA       0.0000   9999     0     0     0    
2019/06/11  13:44:00  BASE  2.35788  321  3.1458   320  -4.1  98    -4.3  6     0     999.1    NA       0.0000   9999     0     0     0    
2019/06/11  13:45:00  BASE  2.40492  314  3.1458   320  -4.1  98    -4.3  6     0     999.1    NA       0.0000   9999     0     0     0    
2019/06/11  13:46:00  BASE  2.25792  312  3.1458   320  -4.0  98    -4.2  6     0     998.6    NA       0.0000   9999     0     0     0    
2019/06/11  13:47:00  BASE  2.08152  318  2.96352  306  -3.9  99    -4.1  6     0     999.1    NA       0.0000   9999     0     0     0    
2019/06/11  13:48:00  BASE  1.83456  319  2.90472  298  -3.9  99    -4.1  6     0     999.1    NA       0.0000   9999     0     0     0    
2019/06/11  13:49:00  BASE  1.56996  322  2.90472  298  -3.8  99    -4.0  6     0     999.1    NA       0.0000   9999     0     0     0    
2019/06/11  13:50:00  BASE  1.52292  342  2.90472  298  -3.8  98    -4.0  6     0     999.1    NA       0.0000   9999     0     0     0    
2019/06/11  13:51:00  BASE  1.54644  360  2.90472  298  -3.9  98    -4.1  6     0     999.1    NA       0.0000   9999     0     0     0    
2019/06/11  13:52:00  BASE  1.68168  4    2.90472  298  -3.9  98    -4.2  6     0     999.0    NA       0.0000   9999     0     0     0    
2019/06/11  13:53:00  BASE  1.68168  6    2.90472  298  -3.9  98    -4.2  6     0     999.0    NA       0.0000   9999     0     0     0    
2019/06/11  13:54:00  BASE  1.57584  9    2.90472  298  -4.0  98    -4.2  6     0     999.0    NA       0.0000   9999     0     0     0    
2019/06/11  13:55:00  BASE  1.42296  7    2.45196  328  -4.0  98    -4.3  6     0     999.0    NA       0.0000   9999     0     0     0    
2019/06/11  13:56:00  BASE  1.19364  6    2.35788  336  -4.0  98    -4.3  6     0     999.1    NA       0.0000   9999     0     0     0    
2019/06/11  13:57:00  BASE  1.12308  6    1.87572  321  -4.0  98    -4.2  7     0     998.7    NA       0.0000   9999     0     0     0    
2019/06/11  13:58:00  BASE  1.22304  4    1.84632  1    -4.0  98    -4.2  7     0     998.8    NA       0.0000   9999     0     0     0    
2019/06/11  13:59:00  BASE  1.176    358  1.84632  1    -3.9  98    -4.2  7     0     999.0    NA       0.0000   9999     0     0     0    
2019/06/11  14:00:00  BASE  0.9702   6    1.84632  1    -3.9  98    -4.2  7     0     999.1    NA       0.0000   9999     0     0     0    
2019/06/11  14:01:00  BASE  0.9702   32   1.84632  1    -3.9  98    -4.2  7     0     999.1    NA       0.0000   9999     0     0     0    
2019/06/11  14:02:00  BASE  1.27008  47   1.87572  43   -4.0  98    -4.3  7     0     998.7    NA       0.0000   9999     0     0     0    
2019/06/11  14:03:00  BASE  1.65228  42   2.058    47   -4.1  98    -4.3  7     0     999.0    NA       0.0000   9999     0     0     0    
2019/06/11  14:04:00  BASE  1.8228   43   2.0874   54   -4.1  98    -4.3  7     0     998.7    NA       0.0000   9999     0     0     0    
2019/06/11  14:05:00  BASE  2.2344   53   3.32808  58   -4.2  98    -4.4  7     0     998.9    NA       0.0000   9999     0     0     0    
2019/06/11  14:06:00  BASE  2.52252  56   3.32808  58   -4.2  98    -4.4  7     0     998.8    NA       0.0000   9999     0     0     0    
2019/06/11  14:07:00  BASE  2.66952  55   3.41628  52   -4.2  98    -4.4  7     0     998.8    NA       0.0000   9999     0     0     0    
2019/06/11  14:08:00  BASE  2.75772  58   3.41628  52   -4.2  98    -4.5  7     0     998.8    NA       0.0000   9999     0     0     0    
2019/06/11  14:09:00  BASE  2.61072  65   3.41628  52   -4.4  98    -4.6  7     0     998.9    NA       0.0000   9999     0     0     0    
2019/06/11  14:10:00  BASE  2.56956  67   3.41628  52   -4.5  98    -4.7  7     0     998.9    NA       0.0000   9999     0     0     0    
2019/06/11  14:11:00  BASE  2.29908  73   3.41628  52   -4.6  98    -4.9  7     0     999.0    NA       0.0000   9999     0     0     0    
2019/06/11  14:12:00  BASE  2.13444  78   3.41628  52   -4.8  98    -5.0  7     0     999.0    NA       0.0000   9999     0     0     0    
2019/06/11  14:13:00  BASE  2.02272  76   3.41628  52   -4.9  98    -5.1  7     0     999.1    NA       0.0000   9999     0     0     0    
2019/06/11  14:14:00  BASE  2.0286   70   3.41628  52   -4.9  99    -5.1  7     0     999.1    NA       0.0000   9999     0     0     0    
2019/06/11  14:15:00  BASE  1.96392  64   3.41628  52   -4.8  99    -5.0  7     0     999.1    NA       0.0000   9999     0     0     0    
2019/06/11  14:16:00  BASE  1.74048  60   3.41628  52   -4.8  99    -4.9  7     0     999.1    NA       0.0000   9999     0     0     0    
2019/06/11  14:17:00  BASE  1.68756  53   3.35748  75   -4.8  99    -4.8  7     0     999.1    NA       0.0000   9999     0     0     0    
2019/06/11  14:18:00  BASE  1.58172  56   3.35748  75   -4.7  100   -4.8  8     0     999.1    NA       0.0000   9999     0     0     0    
2019/06/11  14:19:00  BASE  1.49352  65   2.84592  73   -4.7  100   -4.7  8     0     999.2    NA       0.0000   9999     0     0     0    
2019/06/11  14:20:00  BASE  1.4112   66   2.48136  75   -4.7  100   -4.7  8     0     999.2    NA       0.0000   9999     2200  0     0    
2019/06/11  14:21:00  BASE  1.47     61   2.48136  75   -4.6  100   -4.6  9     0     999.2    NA       0.0000   9999     2200  0     0    
2019/06/11  14:22:00  BASE  1.50528  58   2.42256  70   -4.6  100   -4.6  9     0     999.2    NA       0.0000   9999     2170  0     0    
2019/06/11  14:23:00  BASE  1.5876   54   2.42256  70   -4.6  100   -4.6  9     0     999.1    NA       0.0000   9999     0     0     0    
2019/06/11  14:24:00  BASE  1.95216  46   2.54016  36   -4.6  100   -4.7  8     0     999.1    NA       0.0000   9999     0     0     0    
2019/06/11  14:25:00  BASE  2.22264  38   2.54016  36   -4.7  100   -4.7  8     0     999.1    NA       0.0000   9999     2100  0     0    
2019/06/11  14:26:00  BASE  2.22852  34   2.54016  36   -4.7  100   -4.7  8     0     999.1    NA       0.0000   9999     2100  0     0    
2019/06/11  14:27:00  BASE  2.16384  36   2.54016  36   -4.7  100   -4.7  8     0     999.2    NA       0.0000   9999     2030  0     0    
2019/06/11  14:28:00  BASE  2.2344   34   2.54016  36   -4.7  100   -4.8  8     0     999.2    NA       0.0000   9999     2070  0     0    
2019/06/11  14:29:00  BASE  2.40492  35   2.75184  40   -4.7  100   -4.7  8     0     999.2    NA       0.0000   9999     1940  0     0    
2019/06/11  14:30:00  BASE  2.51664  39   2.99292  45   -4.7  100   -4.7  8     0     999.2    NA       0.0000   9999     1970  0     0    
2019/06/11  14:31:00  BASE  2.793    39   3.35748  36   -4.7  100   -4.7  8     0     999.1    NA       0.0000   9999     1940  0     0    
2019/06/11  14:32:00  BASE  2.96352  40   3.35748  36   -4.8  100   -4.8  8     0     999.1    NA       0.0000   9999     1900  0     0    
2019/06/11  14:33:00  BASE  2.92824  43   3.35748  36   -4.8  100   -4.8  9     0     999.1    NA       0.0000   9999     1870  0     0    
2019/06/11  14:34:00  BASE  3.12228  47   3.48096  47   -4.8  100   -4.8  9     0     999.1    NA       0.0000   9999     1870  0     0    
2019/06/11  14:35:00  BASE  2.95176  52   3.48096  47   -4.8  100   -4.8  9     0     999.1    NA       0.0000   9999     1840  0     0    
2019/06/11  14:36:01  BASE  2.74596  57   3.48096  47   -4.8  100   -4.8  9     0     998.8    NA       0.0000   9999     1940  0     0    
2019/06/11  14:37:01  BASE  2.76948  56   3.48096  47   -4.8  100   -4.8  9     0     999.0    NA       0.0000   9999     1940  0     0    
2019/06/11  14:38:01  BASE  3.15756  48   4.65696  37   -4.9  100   -4.9  9     0     999.0    NA       0.0000   9999     1840  0     0    
2019/06/11  14:39:01  BASE  4.01604  40   4.65696  37   -4.9  100   -4.9  9     0     999.0    NA       0.0000   9999     2000  0     0    
2019/06/11  14:40:01  BASE  4.49232  38   4.80984  39   -5.0  100   -5.0  9     0     999.0    NA       0.0000   9999     1900  0     0    
2019/06/11  14:41:01  BASE  4.33944  37   4.80984  39   -5.0  100   -5.0  10    0     999.1    NA       0.0000   9999     2000  0     0    
2019/06/11  14:42:01  BASE  3.83964  39   4.80984  39   -5.0  100   -5.0  10    0     999.1    NA       0.0000   9999     1940  0     0    
2019/06/11  14:43:01  BASE  3.57504  40   4.80984  39   -5.0  100   -5.0  10    0     999.1    NA       0.0000   9999     1900  0     0    
2019/06/11  14:44:01  BASE  3.68676  41   4.80984  39   -5.0  100   -5.0  10    0     999.0    NA       0.0000   9999     1870  0     0    
2019/06/11  14:45:01  BASE  3.86316  41   4.80984  39   -5.0  100   -5.0  11    0     999.1    NA       0.0000   9999     1840  0     0    
2019/06/11  14:46:01  BASE  3.94548  43   4.80984  39   -5.0  100   -5.0  11    0     999.1    NA       0.0000   9999     0     0     0    
2019/06/11  14:47:01  BASE  3.85728  43   4.80984  39   -5.0  100   -5.0  12    0     999.1    NA       0.0000   9999     0     0     0    
2019/06/11  14:48:01  BASE  3.91608  42   4.80984  39   -4.9  100   -4.9  12    0     999.1    NA       0.0000   9999     1870  0     0    
2019/06/11  14:49:00  BASE  4.16892  41   4.80984  39   -4.9  100   -4.9  12    0     999.0    NA       0.0000   9999     0     0     0    
2019/06/11  14:50:00  BASE  4.15128  37   4.72164  38   -4.8  100   -4.8  13    0     999.1    NA       0.0000   9999     1800  0     0    
2019/06/11  14:51:00  BASE  4.18656  37   4.72164  38   -4.8  100   -4.8  13    0     999.1    NA       0.0000   9999     1770  0     0    
2019/06/11  14:52:00  BASE  4.3218   40   4.72164  38   -4.7  100   -4.7  13    0     999.1    NA       0.0000   9999     1740  0     0    
2019/06/11  14:53:00  BASE  4.36884  40   5.02152  37   -4.7  100   -4.7  13    0     999.0    NA       0.0000   9999     1740  0     0    
2019/06/11  14:54:00  BASE  4.3806   38   5.08032  36   -4.7  100   -4.7  14    0     999.0    NA       0.0000   9999     1670  0     0    
2019/06/11  14:55:00  BASE  4.03368  38   5.08032  36   -4.7  100   -4.7  14    0     999.1    NA       0.0000   9999     1670  0     0    
2019/06/11  14:56:00  BASE  3.69852  37   5.08032  36   -4.7  100   -4.7  15    0     999.1    NA       0.0000   9999     1640  0     0    
2019/06/11  14:57:00  BASE  3.36924  34   5.08032  36   -4.6  100   -4.6  15    0     998.7    NA       0.0000   9999     1840  0     0    
2019/06/11  14:58:00  BASE  3.13992  38   5.08032  36   -4.6  100   -4.6  15    0     999.1    NA       0.0000   9999     1900  0     0    
2019/06/11  14:59:00  BASE  3.2928   41   5.08032  36   -4.6  100   -4.6  16    0     999.0    NA       0.0000   9999     1870  0     0    
2019/06/11  15:00:00  BASE  3.49272  40   5.08032  36   -4.6  100   -4.6  17    0     999.0    NA       0.0000   9999     1840  0     0    
2019/06/11  15:01:00  BASE  3.46332  39   5.08032  36   -4.6  100   -4.6  18    0     999.0    NA       0.0000   9999     1800  0     0    
2019/06/11  15:02:00  BASE  3.47508  40   5.08032  36   -4.6  100   -4.6  18    0     999.0    NA       0.0000   9999     1740  0     0    
2019/06/11  15:03:00  BASE  3.675    37   5.08032  36   -4.7  100   -4.7  19    0     999.0    NA       0.0000   9999     1710  0     0    
2019/06/11  15:04:00  BASE  3.80436  35   4.38648  41   -4.7  100   -4.7  18    0     999.0    NA       0.0000   9999     1840  0     0    
2019/06/11  15:05:00  BASE  3.68088  38   4.32768  39   -4.7  100   -4.7  18    0     999.0    NA       0.0000   9999     1740  0     0    
2019/06/11  15:06:00  BASE  3.29868  40   4.08072  37   -4.7  100   -4.7  18    0     999.0    NA       0.0000   9999     1740  0     0    
2019/06/11  15:07:00  BASE  3.234    35   4.08072  37   -4.7  100   -4.7  18    0     998.9    NA       0.0000   9999     0     0     0    
2019/06/11  15:08:00  BASE  3.53388  30   4.116    31   -4.6  100   -4.6  18    0     998.9    NA       0.0000   9999     0     0     0    
2019/06/11  15:09:00  BASE  3.59268  31   4.116    31   -4.6  100   -4.6  19    0     998.9    NA       0.0000   9999     1670  0     0    
2019/06/11  15:10:00  BASE  3.30456  29   4.116    31   -4.6  100   -4.6  19    0     999.0    NA       0.0000   9999     1770  0     0    
2019/06/11  15:11:00  BASE  3.12228  30   4.116    31   -4.6  100   -4.6  19    0     999.1    NA       0.0000   9999     0     0     0    
2019/06/11  15:12:00  BASE  2.9694   30   4.116    31   -4.6  100   -4.6  19    0     999.1    NA       0.0000   9999     1840  0     0    
2019/06/11  15:13:00  BASE  2.7342   28   4.116    31   -4.6  100   -4.6  19    0     999.1    NA       0.0000   9999     1770  0     0    
2019/06/11  15:14:00  BASE  2.58132  21   4.116    31   -4.5  100   -4.5  19    0     999.1    NA       0.0000   9999     1740  0     0    
2019/06/11  15:15:00  BASE  2.43432  14   4.116    31   -4.4  100   -4.4  19    0     999.1    NA       0.0000   9999     1710  0     0    
2019/06/11  15:16:00  BASE  2.25204  15   4.116    31   -4.3  100   -4.3  18    0     999.1    NA       0.0000   9999     1740  0     0    
2019/06/11  15:17:00  BASE  2.0874   17   4.116    31   -4.2  100   -4.2  18    0     999.1    NA       0.0000   9999     1710  0     0    
2019/06/11  15:18:00  BASE  1.84044  12   3.78084  31   -4.2  100   -4.2  19    0     999.2    NA       0.0000   9999     1740  0     0    
2019/06/11  15:19:00  BASE  1.68168  9    3.29868  32   -4.1  100   -4.1  20    0     999.2    NA       0.0000   9999     1740  0     0    
2019/06/11  15:20:00  BASE  1.6758   11   3.2046   27   -4.0  100   -4.1  20    0     999.1    NA       0.0000   9999     1740  0     0    
2019/06/11  15:21:00  BASE  1.64052  16   2.99292  32   -4.0  99    -4.1  19    0     999.1    NA       0.0000   9999     1670  0     0    
2019/06/11  15:22:00  BASE  1.63464  19   2.81064  15   -4.0  99    -4.1  19    0     999.1    NA       0.0000   9999     1800  0     0    
2019/06/11  15:23:00  BASE  1.59348  22   2.81064  15   -4.0  99    -4.1  19    0     999.1    NA       0.0000   9999     1870  0     0    
2019/06/11  15:24:00  BASE  1.40532  24   2.51076  13   -4.0  99    -4.1  19    0     999.1    NA       0.0000   9999     1870  0     0    
2019/06/11  15:25:00  BASE  1.39356  22   2.42256  12   -4.0  99    -4.2  19    0     999.1    NA       0.0000   9999     1870  0     0    
2019/06/11  15:26:00  BASE  1.323    16   2.21088  21   -4.1  98    -4.3  19    0     999.1    NA       0.0000   9999     1800  0     0    
2019/06/11  15:27:00  BASE  0.85848  19   1.90512  20   -4.1  98    -4.4  20    0     999.2    NA       0.0000   9999     1800  0     0    
2019/06/11  15:28:00  BASE  0.69972  24   1.90512  20   -4.1  98    -4.4  20    0     999.2    NA       0.0000   9999     1870  0     0    
2019/06/11  15:29:00  BASE  0.69972  37   1.90512  20   -4.1  98    -4.4  21    0     999.2    NA       0.0000   9999     0     0     0    
2019/06/11  15:30:00  BASE  0.68796  54   1.84632  26   -4.1  99    -4.3  21    0     999.2    NA       0.0000   9999     0     0     0    
2019/06/11  15:31:00  BASE  1.12308  47   1.84632  26   -4.1  99    -4.2  21    0     999.2    NA       0.0000   9999     1970  0     0    
2019/06/11  15:32:00  BASE  1.2348   38   1.69344  8    -4.0  99    -4.2  22    0     999.2    NA       0.0000   9999     0     0     0    
2019/06/11  15:33:00  BASE  1.02312  36   1.69344  8    -4.1  99    -4.2  22    0     999.2    NA       0.0000   9999     0     0     0    
2019/06/11  15:34:00  BASE  0.92316  28   1.69344  8    -4.1  99    -4.2  22    0     999.2    NA       0.0000   9999     0     0     0    
2019/06/11  15:35:00  BASE  1.28772  9    1.96392  347  -4.1  99    -4.2  22    0     999.3    NA       0.0000   9999     0     0     0    
2019/06/11  15:36:00  BASE  1.82868  354  2.0874   353  -4.1  99    -4.2  22    0     999.2    NA       0.0000   9999     2000  0     0    
2019/06/11  15:37:00  BASE  2.10504  356  2.56956  352  -4.1  99    -4.2  23    0     999.2    NA       0.0000   9999     1900  0     0    
2019/06/11  15:38:00  BASE  2.44608  353  2.75184  233  -4.0  99    -4.2  24    0     999.2    NA       0.0000   9999     1940  0     0    
2019/06/11  15:39:00  BASE  2.69304  346  2.84592  346  -4.0  99    -4.1  25    0     999.1    NA       0.0000   9999     0     0     0    
2019/06/11  15:40:00  BASE  2.7636   346  3.02232  341  -3.9  99    -4.1  26    0     999.1    NA       0.0000   9999     0     0     0    
2019/06/11  15:41:00  BASE  2.83416  343  3.26928  341  -3.9  99    -4.0  27    0     999.1    NA       0.0000   9999     0     0     0    
2019/06/11  15:42:00  BASE  2.75184  341  3.26928  341  -3.9  99    -4.0  28    0     999.1    NA       0.0000   9999     1900  0     0    
2019/06/11  15:43:00  BASE  2.91648  342  3.75144  344  -3.8  99    -4.0  28    0     999.1    NA       0.0000   9999     1940  0     0    
2019/06/11  15:44:00  BASE  3.45156  345  3.86904  343  -3.8  98    -4.0  28    0     999.1    NA       0.0000   9999     1870  0     0    
2019/06/11  15:45:00  BASE  3.4986   352  3.86904  343  -3.8  98    -4.0  28    0     999.1    NA       0.0000   9999     1900  0     0    
2019/06/11  15:46:00  BASE  3.16344  352  3.86904  343  -3.7  98    -4.0  28    0     999.1    NA       0.0000   9999     1940  0     0    
2019/06/11  15:47:00  BASE  2.92824  349  3.86904  343  -3.7  98    -3.9  28    0     999.2    NA       0.0000   9999     1900  0     0    
2019/06/11  15:48:01  BASE  2.69892  350  3.86904  343  -3.7  98    -3.9  28    0     999.0    NA       0.0000   9999     1870  0     0    
2019/06/11  15:49:01  BASE  2.35788  354  3.86904  343  -3.7  98    -3.9  28    0     998.4    NA       0.0000   9999     1870  0     0    
2019/06/11  15:50:00  BASE  2.10504  355  3.86904  343  -3.7  98    -3.9  27    0     999.4    NA       0.0000   9999     1940  0     0    
2019/06/11  15:51:01  BASE  2.13444  351  3.86904  343  -3.7  98    -4.0  27    0     998.9    NA       0.0000   9999     1900  0     0    
2019/06/11  15:52:01  BASE  2.19324  349  3.86904  343  -3.7  98    -3.9  27    0     999.2    NA       0.0000   9999     2000  0     0    
2019/06/11  15:53:01  BASE  2.19324  348  3.86904  343  -3.7  98    -3.9  27    0     999.2    NA       0.0000   9999     1970  0     0    
2019/06/11  15:54:01  BASE  2.27556  339  3.65736  360  -3.7  98    -4.0  28    0     999.2    NA       0.0000   9999     1970  0     0    
2019/06/11  15:55:01  BASE  2.2638   331  3.1458   349  -3.7  98    -4.0  28    0     999.2    NA       0.0000   9999     0     0     0    
2019/06/11  15:56:00  BASE  2.1462   333  3.1458   349  -3.7  97    -4.1  28    0     999.3    NA       0.0000   9999     0     0     0    
2019/06/11  15:57:00  BASE  2.16384  336  2.96352  347  -3.8  97    -4.1  29    0     999.4    NA       0.0000   9999     0     0     0    
2019/06/11  15:58:00  BASE  2.3226   340  2.54016  347  -3.8  97    -4.2  29    0     999.3    NA       0.0000   9999     0     0     0    
2019/06/11  15:59:00  BASE  2.46372  343  2.93412  350  -3.8  97    -4.2  29    0     999.2    NA       0.0000   9999     0     0     0    
2019/06/11  16:00:00  BASE  2.57544  344  2.93412  350  -3.8  97    -4.2  29    0     999.2    NA       0.0000   9999     0     0     0    
2019/06/11  16:01:00  BASE  2.52252  342  2.93412  350  -3.8  97    -4.2  29    0     999.3    NA       0.0000   9999     0     0     0    
2019/06/11  16:02:00  BASE  2.5578   339  2.93412  350  -3.8  98    -4.1  30    0     999.0    NA       0.0000   9999     0     0     0    
2019/06/11  16:03:00  BASE  2.56368  343  2.93412  350  -3.8  98    -4.1  30    0     999.3    NA       0.0000   9999     0     0     0    
2019/06/11  16:04:00  BASE  2.6754   351  3.087    350  -3.8  98    -4.1  29    0     999.2    NA       0.0000   9999     0     0     0    
2019/06/11  16:05:00  BASE  2.793    354  3.087    350  -3.8  98    -4.1  29    0     999.2    NA       0.0000   9999     0     0     0    
2019/06/11  16:06:00  BASE  2.8224   359  3.1458   4    -3.8  98    -4.1  29    0     999.2    NA       0.0000   9999     0     0     0    
2019/06/11  16:07:00  BASE  3.06348  5    3.35748  8    -3.8  97    -4.2  29    0     999.2    NA       0.0000   9999     0     0     0    
2019/06/11  16:08:00  BASE  3.26928  7    3.59856  6    -3.8  97    -4.1  29    0     999.1    NA       0.0000   9999     0     0     0    
2019/06/11  16:09:00  BASE  3.38688  3    3.59856  360  -3.8  97    -4.1  29    0     999.1    NA       0.0000   9999     0     0     0    
2019/06/11  16:10:00  BASE  3.234    360  3.59856  360  -3.7  97    -4.1  28    0     999.1    NA       0.0000   9999     0     0     0    
2019/06/11  16:11:00  BASE  2.9988   2    3.59856  360  -3.7  97    -4.1  28    0     999.2    NA       0.0000   9999     0     0     0    
2019/06/11  16:12:00  BASE  2.75184  1    3.59856  360  -3.7  97    -4.1  28    0     998.8    NA       0.0000   9999     0     0     0    
2019/06/11  16:13:00  BASE  2.76948  359  3.59856  360  -3.8  97    -4.2  27    0     999.2    NA       0.0000   9999     0     0     0    
2019/06/11  16:14:00  BASE  2.80476  3    3.59856  360  -3.8  97    -4.2  27    0     999.3    NA       0.0000   9999     0     0     0    
2019/06/11  16:15:00  BASE  2.36376  6    3.59856  360  -3.8  97    -4.2  27    0     999.4    NA       0.0000   9999     1770  0     0    
2019/06/11  16:16:00  BASE  2.26968  3    3.59856  360  -3.7  97    -4.1  26    0     999.4    NA       0.0000   9999     1670  0     0    
2019/06/11  16:17:00  BASE  2.58132  355  3.59856  360  -3.7  97    -4.1  26    0     999.4    NA       0.0000   9999     0     0     0    
2019/06/11  16:18:00  BASE  2.69304  352  3.59856  360  -3.7  97    -4.1  26    0     999.4    NA       0.0000   9999     1740  0     0    
2019/06/11  16:19:00  BASE  2.84004  351  3.29868  5    -3.7  97    -4.1  25    0     999.4    NA       0.0000   9999     1770  0     0    
2019/06/11  16:20:00  BASE  2.6166   349  3.26928  347  -3.7  97    -4.1  25    0     999.4    NA       0.0000   9999     1510  0     0    
2019/06/11  16:21:00  BASE  2.02272  338  3.26928  347  -3.7  97    -4.1  25    0     999.4    NA       0.0000   9999     1380  0     0    
2019/06/11  16:22:00  BASE  1.88748  346  3.26928  347  -3.7  98    -4.0  25    0     999.3    NA       0.0000   9999     1280  0     0    
2019/06/11  16:23:00  BASE  2.058    1    3.26928  347  -3.7  98    -4.0  26    0     999.2    NA       0.0000   9999     1150  1710  0    
2019/06/11  16:24:00  BASE  2.2344   348  3.26928  347  -3.7  98    -4.0  26    0     999.2    NA       0.0000   9999     1350  0     0    
2019/06/11  16:25:00  BASE  2.48724  341  3.26928  347  -3.7  98    -4.0  26    0     999.2    NA       0.0000   9999     1380  1900  0    
2019/06/11  16:26:00  BASE  2.56368  342  3.26928  347  -3.8  98    -4.0  26    0     999.2    NA       0.0000   9999     1770  0     0    
2019/06/11  16:27:00  BASE  2.46372  342  3.26928  347  -3.8  98    -4.1  26    0     999.2    NA       0.0000   9999     1210  0     0    
2019/06/11  16:28:00  BASE  2.34024  336  3.26928  347  -3.8  98    -4.1  26    0     999.2    NA       0.0000   9999     1310  0     0    
2019/06/11  16:29:00  BASE  2.1756   323  3.234    350  -3.7  98    -4.0  26    0     999.2    NA       0.0000   9999     1540  0     0    
2019/06/11  16:30:00  BASE  2.3814   323  3.234    350  -3.7  98    -4.0  29    0     998.8    NA       0.0000   9999     0     0     0    
2019/06/11  16:31:00  BASE  2.43432  332  3.234    350  -3.6  98    -3.9  33    0     998.6    NA       0.0000   9999     1080  0     0    
2019/06/11  16:32:00  BASE  2.18736  334  3.234    350  -3.6  98    -3.9  38    0     998.3    NA       0.0000   9999     1080  0     0    
2019/06/11  16:33:00  BASE  2.32848  331  3.234    350  -3.6  98    -3.8  38    0     999.1    NA       0.0000   9999     1120  0     0    
2019/06/11  16:34:00  BASE  2.79888  330  4.08072  320  -3.6  98    -3.8  34    0     999.2    NA       0.0000   9999     1150  0     0    
2019/06/11  16:35:00  BASE  3.42804  322  4.2042   322  -3.6  98    -3.8  30    0     999.2    NA       0.0000   9999     950   0     0    
2019/06/11  16:36:00  BASE  3.7632   305  4.2042   322  -3.5  99    -3.7  27    0     999.1    NA       0.0000   9999     980   0     0    
2019/06/11  16:37:00  BASE  3.81612  294  4.2042   322  -3.5  99    -3.7  27    0     999.2    NA       0.0000   9999     1740  0     0    
2019/06/11  16:38:00  BASE  3.75732  294  4.2042   322  -3.5  99    -3.6  29    0     999.2    NA       0.0000   9999     1770  0     0    
2019/06/11  16:39:00  BASE  3.61032  297  4.2042   322  -3.5  99    -3.6  31    0     999.3    NA       0.0000   9999     1840  0     0    
2019/06/11  16:40:00  BASE  3.78672  295  4.56876  292  -3.4  99    -3.5  32    0     999.4    NA       0.0000   9999     1020  2030  0    
2019/06/11  16:41:00  BASE  3.66912  297  4.56876  292  -3.4  99    -3.5  32    0     999.3    NA       0.0000   9999     1050  2000  0    
2019/06/11  16:42:00  BASE  3.28104  296  4.56876  292  -3.4  100   -3.5  30    0     999.4    NA       0.0000   9999     1410  0     0    
2019/06/11  16:43:00  BASE  3.33984  288  4.56876  292  -3.4  100   -3.4  28    0     999.5    NA       0.0000   9999     1640  0     0    
2019/06/11  16:44:00  BASE  3.234    273  4.56876  292  -3.3  100   -3.3  26    0     999.5    NA       0.0000   9999     1670  0     0    
2019/06/11  16:45:00  BASE  3.06348  263  4.56876  292  -3.2  100   -3.2  25    0     999.5    NA       0.0000   9999     1540  0     0    
2019/06/11  16:46:00  BASE  3.33396  263  5.292    254  -3.2  100   -3.2  24    0     999.5    NA       0.0000   9999     1310  1800  0    
2019/06/11  16:47:00  BASE  4.13364  259  5.292    265  -3.1  100   -3.1  23    0     999.5    NA       0.0000   9999     1610  0     0    
2019/06/11  16:48:01  BASE  5.03916  256  5.95644  247  -3.1  100   -3.1  21    0     999.5    NA       0.0000   9999     1410  0     0    
2019/06/11  16:49:01  BASE  4.56288  258  5.95644  247  -3.1  100   -3.1  20    0     999.0    NA       0.0000   9999     1380  0     0    
2019/06/11  16:50:01  BASE  4.11012  261  5.95644  247  -3.2  100   -3.2  20    0     999.5    NA       0.0000   9999     1640  0     0    
2019/06/11  16:51:01  BASE  4.3806   263  5.95644  247  -3.2  100   -3.2  20    0     999.5    NA       0.0000   9999     1670  0     0    
2019/06/11  16:52:01  BASE  4.42764  262  5.95644  247  -3.2  100   -3.2  20    0     999.4    NA       0.0000   9999     1210  0     0    
2019/06/11  16:53:01  BASE  4.56288  259  5.95644  247  -3.3  100   -3.3  20    0     999.5    NA       0.0000   9999     1350  0     0    
2019/06/11  16:54:01  BASE  4.40412  260  5.95644  247  -3.3  100   -3.3  20    0     999.4    NA       0.0000   9999     1080  1670  0    
2019/06/11  16:55:01  BASE  4.40412  260  5.95644  247  -3.3  100   -3.3  20    0     999.5    NA       0.0000   9999     1150  0     0    
2019/06/11  16:56:01  BASE  4.87452  258  5.95644  247  -3.3  100   -3.3  20    0     999.4    NA       0.0000   9999     1180  0     0    
2019/06/11  16:57:01  BASE  4.8804   258  5.95644  247  -3.3  100   -3.3  19    0     999.4    NA       0.0000   9999     1280  0     0    
2019/06/11  16:58:01  BASE  4.52172  261  5.65656  256  -3.3  100   -3.3  19    0     999.4    NA       0.0000   9999     1280  0     0    
2019/06/11  16:59:01  BASE  4.39824  260  5.65656  256  -3.3  100   -3.3  19    0     999.4    NA       0.0000   9999     1310  0     0    
2019/06/11  17:00:01  BASE  4.73928  256  5.65656  256  -3.4  100   -3.4  18    0     999.5    NA       0.0000   9999     1250  0     0    
2019/06/11  17:01:01  BASE  5.10972  254  5.65656  247  -3.4  100   -3.4  17    0     999.5    NA       0.0000   9999     1250  0     0    
2019/06/11  17:02:01  BASE  4.65108  257  5.65656  247  -3.4  100   -3.4  16    0     999.5    NA       0.0000   9999     1570  0     0    
2019/06/11  17:03:01  BASE  4.04544  263  5.65656  247  -3.4  100   -3.4  16    0     999.5    NA       0.0000   9999     950   1710  0    
2019/06/11  17:04:01  BASE  3.69264  272  5.65656  247  -3.4  100   -3.4  17    0     999.3    NA       0.0000   9999     1050  0     0    
2019/06/11  17:05:01  BASE  3.34572  273  5.65656  247  -3.4  100   -3.4  18    0     998.7    NA       0.0000   9999     1050  0     0    
2019/06/11  17:06:00  BASE  3.03408  269  5.65656  247  -3.4  100   -3.4  18    0     999.6    NA       0.0000   9999     1080  0     0    
2019/06/11  17:07:00  BASE  3.28104  272  5.65656  247  -3.4  100   -3.4  19    0     999.6    NA       0.0000   9999     1350  0     0    
2019/06/11  17:08:00  BASE  3.75732  274  5.65656  247  -3.4  100   -3.4  19    0     999.6    NA       0.0000   9999     1210  0     0    
2019/06/11  17:09:00  BASE  3.92784  268  5.65656  247  -3.4  100   -3.4  18    0     999.6    NA       0.0000   9999     1280  0     0    
2019/06/11  17:10:00  BASE  3.82788  260  5.65656  247  -3.4  100   -3.4  18    0     999.5    NA       0.0000   9999     1250  0     0    
2019/06/11  17:11:00  BASE  3.82788  255  4.99212  255  -3.4  100   -3.4  17    0     999.5    NA       0.0000   9999     1280  0     0    
2019/06/11  17:12:00  BASE  3.9984   253  4.86864  252  -3.4  100   -3.4  16    0     999.5    NA       0.0000   9999     1280  0     0    
2019/06/11  17:13:00  BASE  4.07484  251  4.86864  252  -3.5  100   -3.5  16    0     999.5    NA       0.0000   9999     1280  0     0    
2019/06/11  17:14:00  BASE  3.87492  246  4.86864  252  -3.5  100   -3.5  15    0     998.8    NA       0.0000   9999     1310  0     0    
2019/06/11  17:15:00  BASE  3.39276  238  4.86864  252  -3.6  100   -3.6  14    0     999.6    NA       0.0000   9999     1350  0     0    
2019/06/11  17:16:00  BASE  2.94     234  4.86864  252  -3.6  100   -3.6  13    0     999.4    NA       0.0000   9999     1380  0     0    
2019/06/11  17:17:00  BASE  2.79888  234  4.86864  252  -3.7  100   -3.7  13    0     999.6    NA       0.0000   9999     2000  0     0    
2019/06/11  17:18:00  BASE  3.11052  238  4.86864  252  -3.7  100   -3.7  13    0     999.6    NA       0.0000   9999     1250  0     0    
2019/06/11  17:19:00  BASE  3.48096  244  4.86864  252  -3.6  100   -3.6  13    0     998.3    NA       0.0000   9999     1280  0     0    
2019/06/11  17:20:00  BASE  4.06308  247  4.86864  243  -3.6  100   -3.6  14    0     999.4    NA       0.0000   9999     1480  0     0    
2019/06/11  17:21:00  BASE  4.65696  248  5.292    245  -3.6  100   -3.6  14    0     999.6    NA       0.0000   9999     1540  0     0    
2019/06/11  17:22:00  BASE  4.33356  247  5.292    245  -3.6  100   -3.6  14    0     999.6    NA       0.0000   9999     1410  0     0    
2019/06/11  17:23:00  BASE  3.36924  243  5.292    245  -3.6  100   -3.6  13    0     999.6    NA       0.0000   9999     1410  0     0    
2019/06/11  17:24:00  BASE  2.80476  247  5.292    245  -3.7  100   -3.7  13    0     999.7    NA       0.0000   9999     1120  0     0    
2019/06/11  17:25:00  BASE  2.34612  253  5.292    245  -3.7  100   -3.7  13    0     999.7    NA       0.0000   9999     1050  0     0    
2019/06/11  17:26:00  BASE  1.86396  255  5.292    245  -3.7  100   -3.7  13    0     999.5    NA       0.0000   9999     1250  0     0    
2019/06/11  17:27:00  BASE  1.98156  255  5.292    245  -3.6  100   -3.6  13    0     999.7    NA       0.0000   9999     1310  0     0    
2019/06/11  17:28:00  BASE  2.29908  255  5.292    245  -3.6  100   -3.6  13    0     999.3    NA       0.0000   9999     1210  0     0    
2019/06/11  17:29:00  BASE  2.38728  255  5.292    245  -3.6  100   -3.6  13    0     998.6    NA       0.0000   9999     1540  0     0    
2019/06/11  17:30:00  BASE  2.40492  251  5.292    245  -3.5  100   -3.5  13    0     999.6    NA       0.0000   9999     1250  0     0    
2019/06/11  17:31:00  BASE  2.646    247  4.116    242  -3.5  100   -3.5  12    0     999.7    NA       0.0000   9999     1280  0     0    
2019/06/11  17:32:00  BASE  2.8812   246  3.59856  240  -3.5  100   -3.5  11    0     999.7    NA       0.0000   9999     1250  0     0    
2019/06/11  17:33:00  BASE  2.6754   242  3.2046   256  -3.5  100   -3.5  10    0     999.3    NA       0.0000   9999     1280  0     0    
2019/06/11  17:34:00  BASE  2.48724  244  3.087    227  -3.5  100   -3.5  10    0     999.7    NA       0.0000   9999     1180  0     0    
2019/06/11  17:35:00  BASE  2.39904  253  3.087    227  -3.5  100   -3.5  10    0     999.7    NA       0.0000   9999     1250  0     0    
2019/06/11  17:36:00  BASE  2.37552  256  3.087    227  -3.5  100   -3.5  10    0     998.5    NA       0.0000   9999     1210  0     0    
2019/06/11  17:37:00  BASE  2.56368  263  4.02192  265  -3.5  100   -3.5  10    0     999.6    NA       0.0000   9999     1250  0     0    
2019/06/11  17:38:00  BASE  2.9988   266  4.02192  265  -3.5  100   -3.5  10    0     999.6    NA       0.0000   9999     1280  0     0    
2019/06/11  17:39:00  BASE  3.06348  268  4.02192  265  -3.5  100   -3.5  10    0     999.6    NA       0.0000   9999     1350  0     0    
2019/06/11  17:40:00  BASE  3.05172  275  4.02192  265  -3.5  100   -3.5  11    0     999.6    NA       0.0000   9999     1350  0     0    
2019/06/11  17:41:00  BASE  3.4104   273  4.02192  265  -3.5  100   -3.5  10    0     999.6    NA       0.0000   9999     1150  0     0    
2019/06/11  17:42:00  BASE  3.21636  269  4.02192  265  -3.6  100   -3.6  10    0     999.6    NA       0.0000   9999     1350  0     0    
2019/06/11  17:43:00  BASE  2.7342   264  4.02192  265  -3.6  100   -3.6  10    0     999.6    NA       0.0000   9999     1380  0     0    
2019/06/11  17:44:00  BASE  2.27556  263  4.02192  265  -3.6  100   -3.6  10    0     999.5    NA       0.0000   9999     1380  0     0    
2019/06/11  17:45:00  BASE  2.1462   271  4.02192  265  -3.6  100   -3.6  10    0     999.5    NA       0.0000   9999     1350  0     0    
2019/06/11  17:46:00  BASE  2.205    278  4.02192  265  -3.6  100   -3.6  10    0     999.5    NA       0.0000   9999     1250  0     0    
2019/06/11  17:47:00  BASE  2.08152  267  3.99252  256  -3.6  100   -3.6  9     0     999.5    NA       0.0000   9999     1250  0     0    
2019/06/11  17:48:00  BASE  1.95216  252  3.81024  271  -3.6  100   -3.6  9     0     999.5    NA       0.0000   9999     1350  0     0    
2019/06/11  17:49:01  BASE  1.92864  252  3.81024  271  -3.6  100   -3.6  8     0     999.5    NA       0.0000   9999     1280  0     0    
2019/06/11  17:50:01  BASE  2.32848  256  3.81024  271  -3.6  100   -3.6  8     0     999.5    NA       0.0000   9999     1180  0     0    
2019/06/11  17:51:01  BASE  2.2344   256  3.35748  255  -3.6  100   -3.6  8     0     999.5    NA       0.0000   9999     1250  0     0    
2019/06/11  17:52:01  BASE  1.90512  248  3.35748  255  -3.6  100   -3.6  7     0     999.5    NA       0.0000   9999     1280  0     0    
2019/06/11  17:53:01  BASE  2.11092  246  3.35748  255  -3.6  100   -3.6  7     0     999.6    NA       0.0000   9999     1180  0     0    
2019/06/11  17:54:01  BASE  2.64012  256  3.35748  255  -3.6  100   -3.6  7     0     999.6    NA       0.0000   9999     1180  0     0    
2019/06/11  17:55:01  BASE  2.84004  258  3.35748  255  -3.6  100   -3.6  6     0     999.6    NA       0.0000   9999     1120  0     0    
2019/06/11  17:56:01  BASE  2.499    254  3.35748  255  -3.5  100   -3.5  6     0     999.6    NA       0.0000   9999     1150  0     0    
2019/06/11  17:57:01  BASE  2.65188  248  3.72204  235  -3.5  100   -3.5  6     0     999.6    NA       0.0000   9999     1120  0     0    
2019/06/11  17:58:01  BASE  3.12228  240  3.99252  238  -3.5  100   -3.5  6     0     999.6    NA       0.0000   9999     1050  0     0    
2019/06/11  17:59:01  BASE  3.32808  243  4.08072  241  -3.5  100   -3.5  6     0     999.7    NA       0.0000   9999     1050  0     0    
2019/06/11  18:00:01  BASE  3.51036  252  4.47468  262  -3.5  100   -3.5  6     0     999.6    NA       0.0000   9999     1020  0     0    
2019/06/11  18:01:01  BASE  3.7926   259  4.47468  261  -3.6  100   -3.6  6     0     999.6    NA       0.0000   9999     1080  0     0    
2019/06/11  18:02:01  BASE  3.8808   258  4.50996  259  -3.6  100   -3.6  6     0     999.5    NA       0.0000   9999     1020  0     0    
2019/06/11  18:03:01  BASE  3.71616  257  4.50996  259  -3.6  100   -3.6  6     0     999.6    NA       0.0000   9999     1020  0     0    
2019/06/11  18:04:01  BASE  3.5868   260  4.50996  259  -3.7  100   -3.7  6     0     999.7    NA       0.0000   9999     1080  0     0    
2019/06/11  18:05:01  BASE  3.29868  262  4.50996  259  -3.7  100   -3.7  5     0     999.7    NA       0.0000   9999     1080  0     0    
2019/06/11  18:06:01  BASE  3.06936  268  4.50996  259  -3.7  100   -3.7  5     0     999.7    NA       0.0000   9999     1080  0     0    
2019/06/11  18:07:01  BASE  3.31044  266  4.50996  259  -3.7  100   -3.7  5     0     999.7    NA       0.0000   9999     1080  0     0    
2019/06/11  18:08:01  BASE  3.22812  260  4.50996  259  -3.7  100   -3.7  5     0     999.7    NA       0.0000   9999     1080  0     0    
2019/06/11  18:09:01  BASE  3.39276  256  4.62756  253  -3.7  100   -3.7  5     0     999.7    NA       0.0000   9999     1080  0     0    
2019/06/11  18:10:01  BASE  3.84552  256  4.62756  253  -3.7  100   -3.7  6     0     999.7    NA       0.0000   9999     1120  0     0    
2019/06/11  18:11:01  BASE  3.66912  261  4.62756  253  -3.7  100   -3.7  5     0     999.7    NA       0.0000   9999     1080  0     0    
2019/06/11  18:12:01  BASE  3.234    263  4.62756  253  -3.8  100   -3.8  5     0     999.7    NA       0.0000   9999     1120  0     0    
2019/06/11  18:13:01  BASE  3.50448  261  4.83924  256  -3.8  100   -3.8  5     0     999.6    NA       0.0000   9999     1210  0     0    
2019/06/11  18:14:00  BASE  4.25124  255  4.93332  254  -3.8  100   -3.8  5     0     999.6    NA       0.0000   9999     1120  0     0    
2019/06/11  18:15:00  BASE  4.59228  252  5.08032  254  -3.8  100   -3.8  5     0     999.6    NA       0.0000   9999     980   0     0    
2019/06/11  18:16:00  BASE  4.35708  252  5.08032  254  -3.8  100   -3.8  6     0     999.7    NA       0.0000   9999     950   0     0    
2019/06/11  18:17:00  BASE  3.86904  243  5.08032  254  -3.8  100   -3.8  6     0     999.7    NA       0.0000   9999     890   0     0    
2019/06/11  18:18:00  BASE  3.63972  235  5.08032  254  -3.9  100   -3.9  6     0     999.7    NA       0.0000   9999     850   1280  0    
2019/06/11  18:19:00  BASE  3.37512  232  5.08032  254  -3.9  100   -3.9  6     0     999.7    NA       0.0000   9999     1280  0     0    
2019/06/11  18:20:00  BASE  2.7636   230  5.08032  254  -3.9  100   -3.9  5     0     999.7    NA       0.0000   9999     1280  0     0    
2019/06/11  18:21:00  BASE  2.12268  241  5.08032  254  -3.9  100   -3.9  5     0     999.7    NA       0.0000   9999     1120  0     0    
2019/06/11  18:22:00  BASE  2.06388  256  5.08032  254  -3.9  100   -3.9  5     0     999.7    NA       0.0000   9999     1050  0     0    
2019/06/11  18:23:00  BASE  2.27556  266  5.08032  254  -3.9  100   -3.9  5     0     999.7    NA       0.0000   9999     1080  0     0    
2019/06/11  18:24:00  BASE  2.09916  263  5.08032  254  -3.9  100   -3.9  5     0     999.7    NA       0.0000   9999     1120  0     0    
2019/06/11  18:25:00  BASE  1.62288  249  4.62756  241  -3.9  100   -3.9  5     0     999.7    NA       0.0000   9999     1250  0     0    
2019/06/11  18:26:00  BASE  1.47588  250  4.116    246  -3.9  100   -3.9  5     0     999.7    NA       0.0000   9999     1280  0     0    
2019/06/11  18:27:00  BASE  1.68168  262  3.96312  229  -3.9  100   -3.9  5     0     999.7    NA       0.0000   9999     1180  0     0    
2019/06/11  18:28:00  BASE  1.87572  264  3.59856  224  -3.9  100   -3.9  5     0     999.7    NA       0.0000   9999     1180  0     0    
2019/06/11  18:29:00  BASE  1.7346   261  3.1458   266  -3.9  100   -3.9  5     0     999.7    NA       0.0000   9999     1120  0     0    
2019/06/11  18:30:00  BASE  1.91688  267  3.1458   266  -3.9  100   -3.9  6     0     999.7    NA       0.0000   9999     1180  0     0    
2019/06/11  18:31:00  BASE  2.53428  276  3.1752   280  -3.8  100   -3.8  6     0     999.7    NA       0.0000   9999     1210  0     0    
2019/06/11  18:32:00  BASE  2.85768  276  3.51036  278  -3.8  100   -3.8  6     0     999.7    NA       0.0000   9999     1250  0     0    
2019/06/11  18:33:00  BASE  2.96352  273  3.86904  273  -3.8  100   -3.8  6     0     999.7    NA       0.0000   9999     1250  0     0    
2019/06/11  18:34:00  BASE  3.22224  278  4.05132  284  -3.8  100   -3.8  6     0     999.7    NA       0.0000   9999     1250  0     0    
2019/06/11  18:35:00  BASE  3.38688  280  4.05132  284  -3.8  100   -3.8  6     0     999.7    NA       0.0000   9999     1250  0     0    
2019/06/11  18:36:00  BASE  3.06348  276  4.05132  284  -3.8  100   -3.8  6     0     999.7    NA       0.0000   9999     1210  0     0    
2019/06/11  18:37:00  BASE  2.54016  277  4.05132  284  -3.9  100   -3.9  6     0     999.8    NA       0.0000   9999     950   0     0    
2019/06/11  18:38:00  BASE  2.6166   270  4.05132  284  -3.9  100   -3.9  6     0     999.8    NA       0.0000   9999     1050  0     0    
2019/06/11  18:39:00  BASE  3.07524  263  4.05132  284  -3.9  100   -3.9  5     0     999.8    NA       0.0000   9999     1080  0     0    
2019/06/11  18:40:00  BASE  2.93412  274  4.05132  284  -3.9  100   -3.9  6     0     999.7    NA       0.0000   9999     1050  0     0    
2019/06/11  18:41:00  BASE  2.7636   275  4.05132  284  -3.9  100   -3.9  6     0     999.7    NA       0.0000   9999     1120  0     0    
2019/06/11  18:42:00  BASE  2.94588  270  4.05132  284  -3.8  100   -3.8  6     0     999.7    NA       0.0000   9999     1080  0     0    
2019/06/11  18:43:00  BASE  3.21048  269  4.65696  264  -3.8  100   -3.8  6     0     999.7    NA       0.0000   9999     1020  0     0    
2019/06/11  18:44:00  BASE  3.7338   266  4.65696  264  -3.8  100   -3.8  6     0     999.7    NA       0.0000   9999     980   0     0    
2019/06/11  18:45:00  BASE  4.0866   266  4.65696  264  -3.8  100   -3.8  6     0     999.8    NA       0.0000   9999     1020  0     0    
2019/06/11  18:46:00  BASE  4.31004  265  5.59776  257  -3.9  100   -3.9  5     0     999.8    NA       0.0000   9999     1020  0     0    
2019/06/11  18:47:00  BASE  4.22184  267  5.59776  257  -3.9  100   -3.9  5     0     999.8    NA       0.0000   9999     1120  0     0    
2019/06/11  18:48:00  BASE  3.35748  268  5.59776  257  -3.9  100   -3.9  5     0     999.8    NA       0.0000   9999     1050  0     0    
2019/06/11  18:49:00  BASE  2.44608  258  5.59776  257  -4.0  100   -4.0  5     0     999.9    NA       0.0000   9999     890   0     0    
2019/06/11  18:50:00  BASE  2.12856  261  5.59776  257  -4.0  100   -4.0  4     0     999.9    NA       0.0000   9999     950   0     0    
2019/06/11  18:51:00  BASE  2.05212  278  5.59776  257  -4.0  100   -4.0  4     0     999.9    NA       0.0000   9999     1080  0     0    
2019/06/11  18:52:00  BASE  1.7934   280  5.59776  257  -4.0  100   -4.0  4     0     999.9    NA       0.0000   9999     920   0     0    
2019/06/11  18:53:00  BASE  2.11092  276  5.59776  257  -4.0  100   -4.0  4     0     999.9    NA       0.0000   9999     1050  0     0    
2019/06/11  18:54:00  BASE  2.86356  271  5.59776  257  -4.0  100   -4.0  3     0     1000.0   NA       0.0000   9999     1020  0     0    
2019/06/11  18:55:00  BASE  3.38688  269  5.59776  257  -3.9  100   -3.9  3     0     1000.0   NA       0.0000   9999     1050  0     0    
2019/06/11  18:56:00  BASE  3.28692  268  5.145    271  -3.9  100   -3.9  3     0     1000.0   NA       0.0000   9999     950   0     0    
2019/06/11  18:57:00  BASE  3.1458   257  5.145    271  -3.9  100   -3.9  3     0     1000.1   NA       0.0000   9999     920   0     0    
2019/06/11  18:58:00  BASE  3.3516   247  5.145    271  -3.9  100   -3.9  3     0     1000.1   NA       0.0000   9999     920   0     0    
2019/06/11  18:59:00  BASE  3.8514   247  5.145    271  -3.9  100   -3.9  3     0     1000.1   NA       0.0000   9999     1180  0     0    
2019/06/11  19:00:00  BASE  4.40412  250  5.145    271  -3.9  100   -3.9  3     0     1000.1   NA       0.0000   9999     1080  0     0    
2019/06/11  19:01:00  BASE  4.4688   253  5.145    271  -3.9  100   -3.9  3     0     1000.2   NA       0.0000   9999     1080  0     0    
2019/06/11  19:02:01  BASE  4.59816  257  5.50368  257  -4.0  100   -4.0  2     0     1000.2   NA       0.0000   9999     1120  0     0    
2019/06/11  19:03:01  BASE  4.85688  258  5.50368  257  -4.0  100   -4.0  2     0     1000.2   NA       0.0000   9999     1120  0     0    
2019/06/11  19:04:01  BASE  4.32768  252  5.50368  257  -4.0  100   -4.0  2     0     1000.2   NA       0.0000   9999     1210  0     0    
2019/06/11  19:05:01  BASE  3.49272  251  5.50368  257  -4.1  100   -4.1  2     0     1000.2   NA       0.0000   9999     1180  0     0    
2019/06/11  19:06:01  BASE  3.58092  254  5.50368  257  -4.1  100   -4.1  2     0     1000.2   NA       0.0000   9999     1210  0     0    
2019/06/11  19:07:01  BASE  3.27516  253  5.50368  257  -4.1  100   -4.1  2     0     1000.2   NA       0.0000   9999     1080  0     0    
2019/06/11  19:08:01  BASE  3.22224  253  5.50368  257  -4.1  100   -4.1  2     0     1000.2   NA       0.0000   9999     1050  0     0    
2019/06/11  19:09:01  BASE  3.52212  248  5.50368  257  -4.1  100   -4.1  2     0     1000.2   NA       0.0000   9999     950   0     0    
2019/06/11  19:10:01  BASE  3.04584  246  5.50368  257  -4.1  100   -4.1  2     0     1000.3   NA       0.0000   9999     1050  0     0    
2019/06/11  19:11:01  BASE  2.72832  248  5.50368  257  -4.1  100   -4.1  1     0     1000.3   NA       0.0000   9999     1150  0     0    
2019/06/11  19:12:01  BASE  3.08112  252  5.41548  253  -4.1  100   -4.1  1     0     1000.3   NA       0.0000   9999     1080  0     0    
2019/06/11  19:13:01  BASE  3.60444  254  4.86864  247  -4.1  100   -4.1  1     0     1000.3   NA       0.0000   9999     1150  0     0    
2019/06/11  19:14:01  BASE  3.97488  250  4.86864  247  -4.1  100   -4.1  1     0     1000.3   NA       0.0000   9999     1150  0     0    
2019/06/11  19:15:01  BASE  4.10424  253  4.86864  247  -4.1  100   -4.1  1     0     1000.3   NA       0.0000   9999     1150  0     0    
2019/06/11  19:16:01  BASE  3.33396  259  4.62756  253  -4.1  100   -4.1  1     0     1000.3   NA       0.0000   9999     1020  0     0    
2019/06/11  19:17:01  BASE  2.26968  258  4.62756  253  -4.1  100   -4.1  1     0     1000.3   NA       0.0000   9999     920   0     0    
2019/06/11  19:18:01  BASE  1.86984  247  4.62756  253  -4.1  100   -4.1  1     0     1000.2   NA       0.0000   9999     1020  0     0    
2019/06/11  19:19:01  BASE  1.69932  235  4.62756  253  -4.1  100   -4.1  1     0     1000.2   NA       0.0000   9999     1280  0     0    
2019/06/11  19:20:01  BASE  1.24068  229  4.62756  253  -4.1  100   -4.1  1     0     1000.2   NA       0.0000   9999     1310  0     0    
2019/06/11  19:21:01  BASE  1.0878   239  4.62756  253  -4.2  100   -4.2  0     0     1000.2   NA       0.0000   9999     1310  0     0    
2019/06/11  19:22:01  BASE  1.15836  250  4.62756  253  -4.2  100   -4.2  0     0     1000.2   NA       0.0000   9999     1280  0     0    
2019/06/11  19:23:01  BASE  1.09956  259  4.62756  253  -4.2  100   -4.2  0     0     1000.2   NA       0.0000   9999     1250  0     0    
2019/06/11  19:24:01  BASE  1.01724  287  4.38648  265  -4.2  100   -4.2  0     0     1000.1   NA       0.0000   9999     1250  0     0    
2019/06/11  19:25:01  BASE  0.65856  309  3.99252  249  -4.2  100   -4.2  0     0     1000.1   NA       0.0000   9999     1250  0     0    
2019/06/11  19:26:01  BASE  0.72324  301  2.24028  248  -4.2  100   -4.2  0     0     1000.1   NA       0.0000   9999     1280  0     0    
2019/06/11  19:27:01  BASE  1.15836  284  2.24028  248  -4.2  100   -4.2  0     0     1000.2   NA       0.0000   9999     1250  0     0    
2019/06/11  19:28:01  BASE  1.18188  278  1.78752  228  -4.1  100   -4.1  0     0     1000.2   NA       0.0000   9999     1250  0     0    
2019/06/11  19:29:01  BASE  1.176    283  1.69344  267  -4.1  100   -4.1  0     0     1000.2   NA       0.0000   9999     1250  0     0    
2019/06/11  19:30:01  BASE  1.4112   293  1.87572  302  -4.1  100   -4.1  0     0     1000.1   NA       0.0000   9999     1210  0     0    
2019/06/11  19:31:01  BASE  1.47     307  1.87572  302  -4.1  100   -4.1  0     0     1000.2   NA       0.0000   9999     1250  0     0    
2019/06/11  19:32:01  BASE  1.54056  300  2.32848  301  -4.1  100   -4.1  0     0     1000.2   NA       0.0000   9999     1210  0     0    
2019/06/11  19:33:01  BASE  1.8522   281  2.42256  271  -4.1  100   -4.1  0     0     1000.2   NA       0.0000   9999     1120  0     0    
2019/06/11  19:34:01  BASE  1.74636  282  2.42256  271  -4.1  100   -4.1  0     0     1000.3   NA       0.0000   9999     1150  0     0    
2019/06/11  19:35:01  BASE  1.99332  294  2.99292  295  -4.0  100   -4.0  0     0     1000.2   NA       0.0000   9999     1210  0     0    
2019/06/11  19:36:01  BASE  2.36964  294  2.99292  295  -4.0  100   -4.0  0     0     1000.2   NA       0.0000   9999     1250  0     0    
2019/06/11  19:37:01  BASE  2.16972  290  2.99292  295  -4.0  100   -4.0  0     0     1000.2   NA       0.0000   9999     1210  0     0    
2019/06/11  19:38:01  BASE  2.1756   284  2.99292  295  -4.0  100   -4.0  0     0     1000.2   NA       0.0000   9999     1250  0     0    
2019/06/11  19:39:01  BASE  2.32848  267  3.1458   250  -4.0  100   -4.0  0     0     1000.3   NA       0.0000   9999     1250  0     0    
2019/06/11  19:40:01  BASE  2.21088  262  3.1458   250  -4.0  100   -4.0  0     0     1000.3   NA       0.0000   9999     1210  0     0    
2019/06/11  19:41:01  BASE  2.16384  266  3.1458   250  -4.0  100   -4.0  0     0     1000.3   NA       0.0000   9999     1210  0     0    
2019/06/11  19:42:01  BASE  2.499    257  3.29868  250  -4.0  100   -4.0  0     0     1000.3   NA       0.0000   9999     1150  0     0    
2019/06/11  19:43:01  BASE  2.97528  251  3.59856  250  -4.0  100   -4.0  0     0     1000.3   NA       0.0000   9999     1210  0     0    
2019/06/11  19:44:01  BASE  3.34572  250  3.93372  248  -4.0  100   -4.0  0     0     1000.3   NA       0.0000   9999     1280  0     0    
2019/06/11  19:45:01  BASE  3.6162   252  4.1748   259  -4.0  100   -4.0  0     0     1000.2   NA       0.0000   9999     1280  0     0    
2019/06/11  19:46:01  BASE  3.86316  251  4.29828  248  -4.0  100   -4.0  0     0     1000.3   NA       0.0000   9999     1250  0     0    
2019/06/11  19:47:01  BASE  3.78672  242  4.29828  235  -4.0  100   -4.0  0     0     1000.3   NA       0.0000   9999     1180  0     0    
2019/06/11  19:48:01  BASE  3.21048  234  4.29828  235  -4.1  100   -4.1  0     0     1000.3   NA       0.0000   9999     1080  0     0    
2019/06/11  19:49:01  BASE  2.81652  232  4.29828  235  -4.1  100   -4.1  0     0     1000.3   NA       0.0000   9999     1180  0     0    
2019/06/11  19:50:01  BASE  2.61072  230  4.29828  235  -4.1  100   -4.1  0     0     1000.3   NA       0.0000   9999     1250  0     0    
2019/06/11  19:51:01  BASE  2.3814   230  4.29828  235  -4.1  100   -4.1  0     0     1000.3   NA       0.0000   9999     1210  0     0    
2019/06/11  19:52:00  BASE  2.2344   223  4.29828  235  -4.1  100   -4.1  0     0     1000.3   NA       0.0000   9999     1150  0     0    
2019/06/11  19:53:00  BASE  1.86396  207  4.29828  235  -4.1  100   -4.1  0     0     1000.3   NA       0.0000   9999     1350  0     0    
2019/06/11  19:54:00  BASE  1.52292  198  4.29828  235  -4.1  100   -4.1  0     0     1000.3   NA       0.0000   9999     1350  0     0    
2019/06/11  19:55:00  BASE  1.31712  208  4.29828  235  -4.1  100   -4.1  0     0     1000.2   NA       0.0000   9999     1350  0     0    
2019/06/11  19:56:00  BASE  1.39944  225  4.29828  235  -4.1  100   -4.1  0     0     1000.2   NA       0.0000   9999     1310  0     0    
2019/06/11  19:57:00  BASE  2.19912  235  3.2046   247  -4.1  100   -4.1  0     0     1000.1   NA       0.0000   9999     1380  0     0    
2019/06/11  19:58:01  BASE  2.94     243  3.26928  247  -4.1  100   -4.1  0     0     1000.1   NA       0.0000   9999     1380  0     0    
2019/06/11  19:59:01  BASE  2.9988   243  3.26928  252  -4.1  100   -4.1  0     0     1000.0   NA       0.0000   9999     1410  0     0    
2019/06/11  20:00:01  BASE  2.85768  237  3.26928  252  -4.2  100   -4.2  0     0     999.9    NA       0.0000   9999     1280  0     0    
2019/06/11  20:01:00  BASE  2.86356  243  3.35748  257  -4.2  100   -4.2  0     0     999.9    NA       0.0000   9999     1180  0     0    
2019/06/11  20:02:01  BASE  2.7636   248  3.35748  257  -4.2  100   -4.2  0     0     1000.0   NA       0.0000   9999     1570  0     0    
2019/06/11  20:03:01  BASE  2.34024  249  3.35748  257  -4.2  100   -4.2  0     0     1000.1   NA       0.0000   9999     1350  0     0    
2019/06/11  20:04:00  BASE  1.97568  256  3.35748  257  -4.2  100   -4.2  0     0     1000.1   NA       0.0000   9999     1410  0     0    
2019/06/11  20:05:00  BASE  1.97568  259  3.35748  257  -4.2  100   -4.2  0     0     1000.1   NA       0.0000   9999     1510  0     0    
2019/06/11  20:06:00  BASE  1.8522   258  3.35748  257  -4.2  100   -4.2  0     0     1000.1   NA       0.0000   9999     2000  0     0    
2019/06/11  20:07:00  BASE  1.97568  265  3.35748  257  -4.2  100   -4.2  0     0     1000.1   NA       0.0000   9999     1350  2000  0    
2019/06/11  20:08:00  BASE  1.81104  270  3.35748  257  -4.2  100   -4.2  0     0     1000.1   NA       0.0000   9999     1180  0     0    
2019/06/11  20:09:00  BASE  1.48764  262  3.35748  257  -4.2  100   -4.2  0     0     1000.1   NA       0.0000   9999     1150  0     0    
2019/06/11  20:10:00  BASE  1.82868  251  3.35748  257  -4.2  100   -4.2  0     0     1000.1   NA       0.0000   9999     1280  0     0    
2019/06/11  20:11:00  BASE  1.98156  238  2.96352  247  -4.2  100   -4.2  0     0     1000.1   NA       0.0000   9999     1280  0     0    
2019/06/11  20:12:00  BASE  1.63464  224  2.81064  237  -4.2  100   -4.2  0     0     1000.1   NA       0.0000   9999     1180  0     0    
2019/06/11  20:13:00  BASE  0.86436  208  2.81064  237  -4.2  100   -4.2  0     0     1000.1   NA       0.0000   9999     1150  0     0    
2019/06/11  20:14:01  BASE  0.56448  206  2.81064  237  -4.1  100   -4.1  0     0     1000.1   NA       0.0000   9999     1150  0     0    
2019/06/11  20:15:00  BASE  0.79968  217  2.81064  237  -4.1  100   -4.1  0     0     1000.1   NA       0.0000   9999     1210  0     0    
2019/06/11  20:16:00  BASE  0.95844  226  2.81064  237  -4.1  100   -4.1  0     0     1000.2   NA       0.0000   9999     1280  0     0    
2019/06/11  20:17:00  BASE  1.02312  234  2.81064  237  -4.1  100   -4.1  0     0     1000.2   NA       0.0000   9999     1280  0     0    
2019/06/11  20:18:00  BASE  0.9114   235  2.81064  237  -4.1  100   -4.1  0     0     1000.1   NA       0.0000   9999     1280  0     0    
2019/06/11  20:19:00  BASE  0.77616  239  2.81064  237  -4.1  100   -4.1  0     0     1000.1   NA       0.0000   9999     1250  0     0    
2019/06/11  20:20:00  BASE  0.89376  237  2.81064  237  -4.1  100   -4.1  0     0     1000.2   NA       0.0000   9999     1280  0     0    
2019/06/11  20:21:00  BASE  1.28772  224  1.87572  220  -4.1  100   -4.1  0     0     1000.2   NA       0.0000   9999     1310  0     0    
2019/06/11  20:22:00  BASE  1.74048  221  2.0286   228  -4.1  100   -4.1  0     0     1000.2   NA       0.0000   9999     1310  0     0    
2019/06/11  20:23:00  BASE  2.26968  228  3.53976  238  -4.1  100   -4.1  0     0     1000.2   NA       0.0000   9999     1310  0     0    
2019/06/11  20:24:00  BASE  3.05172  239  3.72204  243  -4.1  100   -4.1  0     0     1000.2   NA       0.0000   9999     1310  0     0    
2019/06/11  20:25:00  BASE  3.2634   247  3.72204  243  -4.1  100   -4.1  0     0     1000.2   NA       0.0000   9999     1350  0     0    
2019/06/11  20:26:00  BASE  2.66952  252  3.72204  243  -4.1  100   -4.1  0     0     1000.2   NA       0.0000   9999     1410  0     0    
2019/06/11  20:27:00  BASE  2.27556  244  3.72204  243  -4.1  100   -4.1  0     0     1000.2   NA       0.0000   9999     1350  0     0    
2019/06/11  20:28:00  BASE  2.41668  238  3.72204  243  -4.1  100   -4.1  0     0     1000.2   NA       0.0000   9999     1310  0     0    
2019/06/11  20:29:00  BASE  2.31084  248  3.72204  243  -4.1  100   -4.1  0     0     1000.2   NA       0.0000   9999     1250  0     0    
2019/06/11  20:30:00  BASE  1.7346   262  3.72204  243  -4.1  100   -4.1  0     0     1000.2   NA       0.0000   9999     1210  0     0    
2019/06/11  20:31:00  BASE  1.27008  270  3.72204  243  -4.1  100   -4.1  0     0     1000.2   NA       0.0000   9999     1120  0     0    
2019/06/11  20:32:01  BASE  0.9996   279  3.72204  243  -4.1  100   -4.1  0     0     1000.2   NA       0.0000   9999     1210  0     0    
2019/06/11  20:33:01  BASE  0.75264  286  3.72204  243  -4.1  100   -4.1  0     0     1000.2   NA       0.0000   9999     1180  0     0    
2019/06/11  20:34:01  BASE  0.7938   276  3.38688  248  -4.2  100   -4.2  0     0     1000.2   NA       0.0000   9999     1310  0     0    
2019/06/11  20:35:01  BASE  0.65268  262  3.1164   244  -4.2  100   -4.2  0     0     1000.2   NA       0.0000   9999     1250  0     0    
2019/06/11  20:36:01  BASE  0.1764   266  3.1164   244  -4.1  100   -4.1  0     0     1000.2   NA       0.0000   9999     1180  0     0    
2019/06/11  20:37:01  BASE  0        276  3.1164   244  -4.1  100   -4.1  0     0     1000.2   NA       0.0000   9999     1120  0     0    
2019/06/11  20:38:01  BASE  0.02352  280  2.45196  251  -4.1  100   -4.1  0     0     1000.2   NA       0.0000   9999     1150  0     0    
2019/06/11  20:39:01  BASE  0.14112  283  2.1168   262  -4.1  100   -4.1  0     0     1000.2   NA       0.0000   9999     1180  0     0    
2019/06/11  20:40:01  BASE  0.4704   285  1.42296  286  -4.1  100   -4.1  0     0     1000.2   NA       0.0000   9999     1180  0     0    
2019/06/11  20:41:01  BASE  0.71148  282  1.1466   279  -4.1  100   -4.1  0     0     1000.2   NA       0.0000   9999     1150  0     0    
2019/06/11  20:42:00  BASE  0.45864  278  1.0878   259  -4.1  100   -4.1  0     0     1000.2   NA       0.0000   9999     1080  0     0    
2019/06/11  20:43:00  BASE  0.09996  276  1.0878   259  -4.1  100   -4.1  0     0     1000.2   NA       0.0000   9999     1150  0     0    
2019/06/11  20:44:00  BASE  0        285  0.9996   252  -4.1  100   -4.1  0     0     1000.2   NA       0.0000   9999     1120  0     0    
2019/06/11  20:45:00  BASE  0        294  0.81732  283  -4.1  100   -4.1  0     0     1000.2   NA       0.0000   9999     1150  0     0    
2019/06/11  20:46:00  BASE  0.02352  297  0.81732  283  -4.1  100   -4.1  0     0     1000.2   NA       0.0000   9999     1250  0     0    
2019/06/11  20:47:00  BASE  0.38808  301  1.1172   306  -4.1  100   -4.1  0     0     1000.1   NA       0.0000   9999     1150  0     0    
2019/06/11  20:48:00  BASE  0.9114   307  1.18188  307  -4.1  100   -4.1  0     0     1000.1   NA       0.0000   9999     1150  0     0    
2019/06/11  20:49:00  BASE  1.09956  309  1.21128  312  -4.1  100   -4.1  0     0     1000.1   NA       0.0000   9999     1120  0     0    
2019/06/11  20:50:01  BASE  0.92316  308  1.21128  312  -4.1  100   -4.1  0     0     1000.1   NA       0.0000   9999     1180  0     0    
2019/06/11  20:51:01  BASE  0.72912  307  1.21128  312  -4.1  100   -4.1  0     0     1000.1   NA       0.0000   9999     1150  0     0    
2019/06/11  20:52:01  BASE  0.3822   311  1.21128  312  -4.1  100   -4.1  0     0     1000.1   NA       0.0000   9999     1150  0     0    
2019/06/11  20:53:01  BASE  0.0294   313  1.21128  312  -4.1  100   -4.1  0     0     1000.1   NA       0.0000   9999     1210  0     0    
2019/06/11  20:54:01  BASE  0        309  1.21128  312  -4.1  100   -4.1  0     0     1000.2   NA       0.0000   9999     1180  0     0    
2019/06/11  20:55:01  BASE  0.294    303  1.21128  312  -4.1  100   -4.1  0     0     1000.2   NA       0.0000   9999     1180  0     0    
2019/06/11  20:56:01  BASE  0.57624  305  1.21128  312  -4.1  100   -4.1  0     0     1000.2   NA       0.0000   9999     1150  0     0    
2019/06/11  20:57:01  BASE  0.64092  318  1.21128  312  -4.1  100   -4.1  0     0     1000.2   NA       0.0000   9999     1180  0     0    
2019/06/11  20:58:01  BASE  0.7644   328  1.21128  312  -4.1  100   -4.1  0     0     1000.2   NA       0.0000   9999     1210  0     0    
2019/06/11  20:59:01  BASE  0.8526   333  0.9996   308  -4.1  100   -4.1  0     0     1000.2   NA       0.0000   9999     1250  0     0    
2019/06/11  21:00:01  BASE  0.882    332  1.029    336  -4.1  100   -4.1  0     0     1000.3   NA       0.0000   9999     1210  0     0    
2019/06/11  21:01:01  BASE  0.86436  325  1.0878   324  -4.1  100   -4.1  0     0     1000.3   NA       0.0000   9999     1150  0     0    
2019/06/11  21:02:01  BASE  0.71736  318  1.0878   324  -4.1  100   -4.1  0     0     1000.3   NA       0.0000   9999     1120  0     0    
2019/06/11  21:03:01  BASE  0.38808  316  1.0878   324  -4.1  100   -4.1  0     0     1000.3   NA       0.0000   9999     1210  0     0    
2019/06/11  21:04:01  BASE  0.46452  323  1.0878   324  -4.1  100   -4.1  0     0     1000.3   NA       0.0000   9999     1180  0     0    
2019/06/11  21:05:01  BASE  0.62328  323  1.0878   324  -4.1  100   -4.1  0     0     1000.3   NA       0.0000   9999     1150  0     0    
2019/06/11  21:06:01  BASE  0.2646   303  1.0878   324  -4.1  100   -4.1  0     0     1000.3   NA       0.0000   9999     1250  0     0    
2019/06/11  21:07:01  BASE  0.11172  283  1.0878   324  -4.1  100   -4.1  0     0     1000.3   NA       0.0000   9999     1250  0     0    
2019/06/11  21:08:01  BASE  0.11172  275  1.0878   324  -4.0  100   -4.0  0     0     1000.3   NA       0.0000   9999     1210  0     0    
2019/06/11  21:09:01  BASE  0        272  1.0878   324  -4.0  100   -4.0  0     0     1000.3   NA       0.0000   9999     1210  0     0    
2019/06/11  21:10:01  BASE  0.34692  265  1.0878   324  -4.0  100   -4.0  0     0     1000.3   NA       0.0000   9999     1310  0     0    
2019/06/11  21:11:01  BASE  0.84084  256  1.35828  220  -4.0  100   -4.0  0     0     1000.3   NA       0.0000   9999     1310  0     0    
2019/06/11  21:12:01  BASE  1.31712  240  2.1756   208  -4.0  100   -4.0  0     0     1000.3   NA       0.0000   9999     1280  0     0    
2019/06/11  21:13:01  BASE  1.4994   247  2.24028  260  -4.0  100   -4.0  0     0     1000.3   NA       0.0000   9999     1280  0     0    
2019/06/11  21:14:01  BASE  2.43432  258  4.75104  254  -4.0  100   -4.0  0     0     1000.3   NA       0.0000   9999     1280  0     0    
2019/06/11  21:15:01  BASE  3.969    254  5.08032  257  -4.0  100   -4.0  0     0     1000.3   NA       0.0000   9999     1250  0     0    
2019/06/11  21:16:01  BASE  3.92196  257  5.08032  257  -4.0  100   -4.0  0     0     1000.3   NA       0.0000   9999     1310  0     0    
2019/06/11  21:17:01  BASE  2.71656  260  5.08032  257  -4.1  100   -4.1  0     0     1000.3   NA       0.0000   9999     1250  0     0    
2019/06/11  21:18:01  BASE  1.68756  269  5.08032  257  -4.1  100   -4.1  0     0     1000.3   NA       0.0000   9999     1210  0     0    
2019/06/11  21:19:01  BASE  1.54644  267  5.08032  257  -4.1  100   -4.1  0     0     1000.3   NA       0.0000   9999     1120  0     0    
2019/06/11  21:20:01  BASE  1.93452  261  5.08032  257  -4.1  100   -4.1  0     0     1000.3   NA       0.0000   9999     1280  0     0    
2019/06/11  21:21:01  BASE  2.19912  261  5.08032  257  -4.0  100   -4.0  0     0     1000.4   NA       0.0000   9999     1350  0     0    
2019/06/11  21:22:01  BASE  2.1462   267  5.08032  257  -4.0  100   -4.0  0     0     1000.4   NA       0.0000   9999     1280  0     0    
2019/06/11  21:23:01  BASE  1.59936  267  5.08032  257  -4.0  100   -4.0  0     0     1000.4   NA       0.0000   9999     1250  0     0    
2019/06/11  21:24:01  BASE  0.84084  254  5.08032  257  -4.0  100   -4.0  0     0     1000.5   NA       0.0000   9999     1210  0     0    
2019/06/11  21:25:01  BASE  0.4116   247  4.41588  266  -4.0  100   -4.0  0     0     1000.5   NA       0.0000   9999     1310  0     0    
2019/06/11  21:26:01  BASE  0.42336  236  2.78124  249  -4.0  100   -4.0  0     0     1000.5   NA       0.0000   9999     1350  0     0    
2019/06/11  21:27:01  BASE  0.37044  220  2.54016  259  -4.0  100   -4.0  0     0     1000.5   NA       0.0000   9999     1350  0     0    
2019/06/11  21:28:01  BASE  0.18816  213  2.54016  259  -4.0  100   -4.0  0     0     1000.5   NA       0.0000   9999     1310  0     0    
2019/06/11  21:29:01  BASE  0.13524  208  2.54016  259  -4.0  100   -4.0  0     0     1000.5   NA       0.0000   9999     1310  0     0    
2019/06/11  21:30:01  BASE  0.05292  190  2.54016  259  -4.0  100   -4.0  0     0     1000.5   NA       0.0000   9999     1310  0     0    
2019/06/11  21:31:01  BASE  0        146  2.35788  265  -4.0  100   -4.0  0     0     1000.6   NA       0.0000   9999     1280  0     0    
2019/06/11  21:32:01  BASE  0.10584  142  1.81692  262  -4.0  100   -4.0  0     0     1000.7   NA       0.0000   9999     1310  0     0    
2019/06/11  21:33:01  BASE  0.40572  184  0.9702   210  -4.0  100   -4.0  0     0     1000.7   NA       0.0000   9999     1350  0     0    
2019/06/11  21:34:01  BASE  0.71148  222  0.9702   227  -4.0  100   -4.0  0     0     1000.8   NA       0.0000   9999     1310  0     0    
2019/06/11  21:35:01  BASE  0.65856  251  0.9702   227  -4.0  100   -4.0  0     0     1000.7   NA       0.0000   9999     1250  0     0    
2019/06/11  21:36:01  BASE  0.8232   269  1.48176  279  -4.0  100   -4.0  0     0     1000.7   NA       0.0000   9999     1310  0     0    
2019/06/11  21:37:01  BASE  1.29948  273  1.96392  268  -4.0  100   -4.0  0     0     1000.7   NA       0.0000   9999     1310  0     0    
2019/06/11  21:38:01  BASE  1.64052  263  2.1462   251  -4.0  100   -4.0  0     0     1000.7   NA       0.0000   9999     1380  0     0    
2019/06/11  21:39:01  BASE  1.52292  263  2.1462   251  -4.0  100   -4.0  0     0     1000.7   NA       0.0000   9999     1410  0     0    
2019/06/11  21:40:01  BASE  1.0584   267  2.1462   251  -4.0  100   -4.0  0     0     1000.8   NA       0.0000   9999     1510  0     0    
2019/06/11  21:41:01  BASE  0.68796  257  2.1462   251  -3.9  100   -3.9  0     0     1000.8   NA       0.0000   9999     1480  0     0    
2019/06/11  21:42:01  BASE  0.3234   259  2.1462   251  -3.9  100   -3.9  0     0     1000.7   NA       0.0000   9999     1350  0     0    
2019/06/11  21:43:01  BASE  0.62328  228  2.45196  192  -3.9  100   -3.9  0     0     1000.8   NA       0.0000   9999     1280  0     0    
2019/06/11  21:44:01  BASE  1.69344  201  2.69304  224  -3.9  100   -3.9  0     0     1000.7   NA       0.0000   9999     1310  0     0    
2019/06/11  21:45:01  BASE  2.48724  212  3.51036  216  -3.9  100   -3.9  0     0     1000.8   NA       0.0000   9999     1280  0     0    
2019/06/11  21:46:01  BASE  2.6166   216  3.51036  216  -3.9  100   -3.9  0     0     1000.8   NA       0.0000   9999     1250  0     0    
2019/06/11  21:47:01  BASE  2.1462   206  3.51036  216  -3.9  100   -3.9  0     0     1000.8   NA       0.0000   9999     1250  0     0    
2019/06/11  21:48:01  BASE  1.68756  199  3.51036  216  -3.9  100   -3.9  0     0     1000.8   NA       0.0000   9999     1440  0     0    
2019/06/11  21:49:01  BASE  1.06428  198  3.51036  216  -3.9  100   -3.9  0     0     1000.8   NA       0.0000   9999     1410  1900  0    
2019/06/11  21:50:01  BASE  0.2352   201  3.51036  216  -3.9  100   -3.9  0     0     1000.8   NA       0.0000   9999     1380  2070  0    
2019/06/11  21:51:01  BASE  0.13524  213  3.51036  216  -4.0  100   -4.0  0     0     1000.8   NA       0.0000   9999     1440  0     0    
2019/06/11  21:52:01  BASE  0.13524  233  3.51036  216  -4.0  100   -4.0  0     0     1000.8   NA       0.0000   9999     1380  0     0    
2019/06/11  21:53:00  BASE  0.07644  260  3.51036  216  -4.0  99    -4.1  0     0     1000.7   NA       0.0000   9999     1440  0     0    
2019/06/11  21:54:01  BASE  0.45276  264  3.51036  216  -4.0  99    -4.1  0     0     1000.7   NA       0.0000   9999     1440  0     0    
2019/06/11  21:55:00  BASE  0.45276  248  2.90472  220  -4.0  99    -4.1  0     0     1000.7   NA       0.0000   9999     1440  0     0    
2019/06/11  21:56:00  BASE  0.07644  223  2.0874   208  -3.9  99    -4.1  0     0     1000.6   NA       0.0000   9999     1350  0     0    
2019/06/11  21:57:00  BASE  0.0882   195  1.90512  200  -3.9  99    -4.0  0     0     1000.5   NA       0.0000   9999     1540  0     0    
2019/06/11  21:58:00  BASE  0.42924  202  1.0878   190  -3.9  99    -4.0  0     0     1000.6   NA       0.0000   9999     1440  0     0    
2019/06/11  21:59:00  BASE  0.74676  218  1.18188  238  -3.9  99    -4.0  0     0     1000.7   NA       0.0000   9999     1440  0     0    
2019/06/11  22:00:00  BASE  0.94668  226  1.21128  226  -3.9  99    -4.1  0     0     1000.7   NA       0.0000   9999     1480  0     0    
2019/06/11  22:01:00  BASE  0.98196  239  1.48176  242  -3.9  98    -4.1  0     0     1000.7   NA       0.0000   9999     1570  0     0    
2019/06/11  22:02:00  BASE  1.25244  242  1.96392  234  -3.9  98    -4.1  0     0     1000.7   NA       0.0000   9999     1480  0     0    
2019/06/11  22:03:00  BASE  1.5582   245  1.96392  234  -3.9  98    -4.2  0     0     1000.7   NA       0.0000   9999     1510  0     0    
2019/06/11  22:04:00  BASE  1.72284  263  2.48136  271  -3.9  98    -4.2  0     0     1000.8   NA       0.0000   9999     1480  0     0    
2019/06/11  22:05:00  BASE  2.12268  260  2.54016  243  -4.0  98    -4.2  0     0     1000.8   NA       0.0000   9999     1510  0     0    
2019/06/11  22:06:00  BASE  2.21088  246  2.54016  243  -4.0  98    -4.2  0     0     1000.8   NA       0.0000   9999     1440  0     0    
2019/06/11  22:07:00  BASE  1.911    241  2.54016  243  -4.0  98    -4.2  0     0     1000.8   NA       0.0000   9999     1480  0     0    
2019/06/11  22:08:00  BASE  1.5288   232  2.54016  243  -4.0  98    -4.2  0     0     1000.8   NA       0.0000   9999     1540  0     0    
2019/06/11  22:09:00  BASE  1.09956  228  2.54016  243  -3.9  98    -4.2  0     0     1000.8   NA       0.0000   9999     1510  0     0    
2019/06/11  22:10:00  BASE  0.93492  221  2.54016  243  -3.9  98    -4.2  0     0     1000.9   NA       0.0000   9999     1540  0     0    
2019/06/11  22:11:00  BASE  1.13484  217  2.54016  243  -3.9  98    -4.2  0     0     1000.9   NA       0.0000   9999     1480  0     0    
2019/06/11  22:12:00  BASE  0.9996   210  2.54016  243  -3.9  98    -4.2  0     0     1000.9   NA       0.0000   9999     1540  0     0    
2019/06/11  22:13:01  BASE  0.42336  218  2.54016  243  -3.9  97    -4.2  0     0     1000.9   NA       0.0000   9999     1510  0     0    
2019/06/11  22:14:00  BASE  0.34104  258  2.54016  243  -3.8  97    -4.2  0     0     1000.9   NA       0.0000   9999     1510  0     0    
2019/06/11  22:15:00  BASE  0.7938   286  2.29908  247  -3.8  97    -4.2  0     0     1000.9   NA       0.0000   9999     1510  0     0    
2019/06/11  22:16:00  BASE  1.14072  276  1.9992   246  -3.8  97    -4.3  0     0     1000.9   NA       0.0000   9999     1570  0     0    
2019/06/11  22:17:01  BASE  1.4406   259  1.90512  264  -3.9  97    -4.3  0     0     1001.0   NA       0.0000   9999     1610  0     0    
2019/06/11  22:18:01  BASE  1.66404  249  1.96392  240  -3.9  96    -4.4  0     0     1001.0   NA       0.0000   9999     1610  0     0    
2019/06/11  22:19:01  BASE  1.75812  238  2.0286   243  -3.9  96    -4.4  0     0     1001.0   NA       0.0000   9999     1570  0     0    
2019/06/11  22:20:00  BASE  1.8816   225  2.63424  212  -3.9  96    -4.5  0     0     1001.0   NA       0.0000   9999     1510  0     0    
2019/06/11  22:21:00  BASE  2.21088  215  2.63424  212  -4.0  96    -4.5  0     0     1001.0   NA       0.0000   9999     1540  0     0    
2019/06/11  22:22:00  BASE  2.34024  212  2.72244  217  -4.0  96    -4.5  0     0     1000.9   NA       0.0000   9999     1380  1740  0    
2019/06/11  22:23:00  BASE  1.90512  206  2.72244  217  -4.0  96    -4.5  0     0     1000.9   NA       0.0000   9999     1410  0     0    
2019/06/11  22:24:00  BASE  1.25244  187  2.72244  217  -3.9  96    -4.5  0     0     1000.9   NA       0.0000   9999     1570  0     0    
2019/06/11  22:25:00  BASE  0.882    174  2.72244  217  -3.9  96    -4.4  0     0     1000.8   NA       0.0000   9999     1540  0     0    
2019/06/11  22:26:00  BASE  0.4998   187  2.72244  217  -3.9  96    -4.4  0     0     1000.8   NA       0.0000   9999     1540  0     0    
2019/06/11  22:27:00  BASE  0.40572  219  2.72244  217  -3.9  96    -4.5  0     0     1000.7   NA       0.0000   9999     1540  0     0    
2019/06/11  22:28:00  BASE  0.83496  256  2.72244  217  -3.9  96    -4.5  0     0     1000.7   NA       0.0000   9999     1480  0     0    
2019/06/11  22:29:00  BASE  1.19952  269  2.72244  217  -3.9  96    -4.5  0     0     1000.7   NA       0.0000   9999     1480  0     0    
2019/06/11  22:30:01  BASE  1.48764  251  2.72244  217  -3.9  96    -4.5  0     0     1000.7   NA       0.0000   9999     1410  0     0    
2019/06/11  22:31:00  BASE  1.63464  240  2.72244  217  -3.9  96    -4.5  0     0     1000.8   NA       0.0000   9999     1350  0     0    
2019/06/11  22:32:00  BASE  1.72872  230  2.1462   230  -3.9  96    -4.4  0     0     1000.9   NA       0.0000   9999     1380  0     0    
2019/06/11  22:33:00  BASE  1.33476  242  2.1462   230  -3.9  96    -4.4  0     0     1000.9   NA       0.0000   9999     1480  0     0    
2019/06/11  22:34:00  BASE  0.441    275  2.1462   230  -3.8  96    -4.3  0     0     1000.9   NA       0.0000   9999     1440  0     0    
2019/06/11  22:35:00  BASE  0        281  2.1462   230  -3.8  97    -4.3  0     0     1000.9   NA       0.0000   9999     1440  0     0    
2019/06/11  22:36:00  BASE  0        234  2.1462   230  -3.8  97    -4.3  0     0     1000.9   NA       0.0000   9999     1380  0     0    
2019/06/11  22:37:00  BASE  0.0294   198  2.1462   230  -3.8  97    -4.3  0     0     1000.9   NA       0.0000   9999     1440  0     0    
2019/06/11  22:38:00  BASE  0.43512  215  2.1462   230  -3.8  97    -4.3  0     0     1000.9   NA       0.0000   9999     1480  0     0    
2019/06/11  22:39:00  BASE  0.53508  231  2.1462   230  -3.8  97    -4.3  0     0     1000.9   NA       0.0000   9999     1480  0     0    
2019/06/11  22:40:00  BASE  0.21756  238  2.1462   230  -3.8  97    -4.3  0     0     1000.9   NA       0.0000   9999     1480  0     0    
2019/06/11  22:41:00  BASE  0.147    266  2.1168   215  -3.8  97    -4.3  0     0     1000.9   NA       0.0000   9999     1440  0     0    
2019/06/11  22:42:00  BASE  0.0588   294  1.51116  224  -3.8  97    -4.2  0     0     1000.9   NA       0.0000   9999     1440  0     0    
2019/06/11  22:43:00  BASE  0        301  0.90552  231  -3.8  97    -4.2  0     0     1000.9   NA       0.0000   9999     1410  0     0    
2019/06/11  22:44:00  BASE  0        289  0.90552  231  -3.8  97    -4.2  0     0     1000.9   NA       0.0000   9999     1440  0     0    
2019/06/11  22:45:00  BASE  0.43512  268  1.18188  240  -3.8  97    -4.2  0     0     1000.9   NA       0.0000   9999     1440  0     0    
2019/06/11  22:46:00  BASE  0.9114   264  1.18188  240  -3.8  97    -4.2  0     0     1000.9   NA       0.0000   9999     1440  0     0    
2019/06/11  22:47:00  BASE  0.92316  267  1.21128  260  -3.8  97    -4.2  0     0     1000.9   NA       0.0000   9999     1480  0     0    
2019/06/11  22:48:00  BASE  1.51704  258  2.87532  240  -3.8  97    -4.2  0     0     1000.9   NA       0.0000   9999     1510  0     0    
2019/06/11  22:49:01  BASE  2.06976  238  2.87532  240  -3.8  97    -4.2  0     0     1000.9   NA       0.0000   9999     1510  0     0    
2019/06/11  22:50:01  BASE  2.11092  224  2.87532  240  -3.8  97    -4.2  0     0     1000.9   NA       0.0000   9999     1480  0     0    
2019/06/11  22:51:01  BASE  2.28144  218  2.93412  220  -3.8  97    -4.2  0     0     1000.9   NA       0.0000   9999     1480  0     0    
2019/06/11  22:52:01  BASE  1.79928  211  2.93412  220  -3.8  97    -4.1  0     0     1000.9   NA       0.0000   9999     1570  0     0    
2019/06/11  22:53:01  BASE  1.2348   213  2.93412  220  -3.8  97    -4.1  0     0     1000.9   NA       0.0000   9999     1610  0     0    
2019/06/11  22:54:01  BASE  1.53468  204  2.93412  220  -3.8  98    -4.1  0     0     1000.9   NA       0.0000   9999     1480  0     0    
2019/06/11  22:55:01  BASE  1.83456  186  2.93412  220  -3.8  98    -4.1  0     0     1000.9   NA       0.0000   9999     1510  0     0    
2019/06/11  22:56:01  BASE  1.52292  187  2.93412  220  -3.8  98    -4.2  0     0     1001.0   NA       0.0000   9999     1510  0     0    
2019/06/11  22:57:01  BASE  1.176    178  2.93412  220  -3.9  97    -4.2  0     0     1001.0   NA       0.0000   9999     1510  0     0    
2019/06/11  22:58:01  BASE  0.9702   157  2.93412  220  -3.9  97    -4.3  0     0     1001.0   NA       0.0000   9999     1640  0     0    
2019/06/11  22:59:01  BASE  0.77028  134  2.93412  220  -3.9  97    -4.3  0     0     1000.9   NA       0.0000   9999     1610  0     0    
2019/06/11  23:00:01  BASE  0.90552  119  2.93412  220  -3.9  97    -4.3  0     0     1000.9   NA       0.0000   9999     1480  0     0    
2019/06/11  23:01:01  BASE  0.97608  108  2.21088  193  -3.9  97    -4.3  0     0     1000.9   NA       0.0000   9999     1480  0     0    
2019/06/11  23:02:01  BASE  0.6762   104  2.21088  193  -4.0  97    -4.3  0     0     1000.9   NA       0.0000   9999     1480  0     0    
2019/06/11  23:03:01  BASE  0.34692  108  2.21088  193  -3.9  97    -4.3  0     0     1000.9   NA       0.0000   9999     1510  0     0    
2019/06/11  23:04:01  BASE  0.1176   110  2.1462   177  -3.9  98    -4.3  0     0     1000.9   NA       0.0000   9999     1410  0     0    
2019/06/11  23:05:01  BASE  0        90   1.60524  204  -3.9  98    -4.2  0     0     1000.9   NA       0.0000   9999     1440  0     0    
2019/06/11  23:06:01  BASE  0        73   1.35828  157  -3.9  98    -4.2  0     0     1000.9   NA       0.0000   9999     1440  0     0    
2019/06/11  23:07:01  BASE  0        162  1.27008  119  -3.8  98    -4.1  0     0     1000.9   NA       0.0000   9999     1440  0     0    
2019/06/11  23:08:01  BASE  0.07056  230  1.27008  119  -3.8  98    -4.1  0     0     1001.0   NA       0.0000   9999     1510  0     0    
2019/06/11  23:09:01  BASE  0.3822   220  1.27008  119  -3.8  98    -4.1  0     0     1001.0   NA       0.0000   9999     1510  0     0    
2019/06/11  23:10:01  BASE  0.5586   210  1.0878   115  -3.7  98    -4.1  0     0     1001.0   NA       0.0000   9999     1510  0     0    
2019/06/11  23:11:01  BASE  0.25284  205  0.87612  202  -3.7  97    -4.1  0     0     1001.0   NA       0.0000   9999     1480  0     0    
2019/06/11  23:12:01  BASE  0        191  0.87612  202  -3.7  97    -4.1  0     0     1001.0   NA       0.0000   9999     1280  0     0    
2019/06/11  23:13:01  BASE  0.14112  142  0.87612  202  -3.7  97    -4.1  0     0     1001.0   NA       0.0000   9999     1350  0     0    
2019/06/11  23:14:01  BASE  0.35868  83   0.87612  202  -3.7  97    -4.1  0     0     1001.0   NA       0.0000   9999     1350  0     0    
2019/06/11  23:15:01  BASE  0.21756  77   0.87612  202  -3.7  97    -4.1  0     0     1001.0   NA       0.0000   9999     1440  0     0    
2019/06/11  23:16:01  BASE  0.3234   288  1.0878   290  -3.8  97    -4.2  0     0     1001.0   NA       0.0000   9999     1380  0     0    
2019/06/11  23:17:01  BASE  0.74676  299  1.0878   290  -3.8  97    -4.2  0     0     1000.9   NA       0.0000   9999     1410  0     0    
2019/06/11  23:18:01  BASE  0.89376  314  1.0878   311  -3.8  97    -4.2  0     0     1000.9   NA       0.0000   9999     1440  0     0    
2019/06/11  23:19:01  BASE  1.04664  314  1.42296  310  -3.9  97    -4.3  0     0     1000.9   NA       0.0000   9999     1380  0     0    
2019/06/11  23:20:01  BASE  1.15248  300  1.42296  278  -3.9  97    -4.2  0     0     1001.0   NA       0.0000   9999     1410  0     0    
2019/06/11  23:21:01  BASE  0.74088  290  1.42296  278  -3.9  97    -4.2  0     0     1001.0   NA       0.0000   9999     1440  0     0    
2019/06/11  23:22:01  BASE  0.4998   274  1.42296  278  -3.8  98    -4.2  0     0     1001.0   NA       0.0000   9999     1480  0     0    
2019/06/11  23:23:01  BASE  0.44688  252  1.42296  278  -3.8  98    -4.1  0     0     1001.0   NA       0.0000   9999     1440  0     0    
2019/06/11  23:24:01  BASE  0.24108  256  1.42296  278  -3.8  98    -4.0  0     0     1001.0   NA       0.0000   9999     1510  0     0    
2019/06/11  23:25:01  BASE  0.49392  270  1.42296  278  -3.8  98    -4.0  0     0     1001.0   NA       0.0000   9999     1480  0     0    
2019/06/11  23:26:01  BASE  0.72912  274  1.42296  278  -3.8  98    -4.0  0     0     1001.0   NA       0.0000   9999     1480  0     0    
2019/06/11  23:27:01  BASE  0.87612  279  1.42296  278  -3.8  98    -4.0  0     0     1001.0   NA       0.0000   9999     1480  0     0    
2019/06/11  23:28:01  BASE  1.21716  278  1.69344  272  -3.8  98    -4.0  0     0     1001.0   NA       0.0000   9999     1510  0     0    
2019/06/11  23:29:00  BASE  1.60524  275  1.96392  278  -3.7  98    -4.0  0     0     1001.0   NA       0.0000   9999     1540  0     0    
2019/06/11  23:30:01  BASE  1.98744  267  2.75184  271  -3.7  98    -4.0  0     0     1001.0   NA       0.0000   9999     1510  0     0    
2019/06/11  23:31:00  BASE  2.24616  269  2.75184  271  -3.7  98    -4.0  0     0     1001.1   NA       0.0000   9999     1480  0     0    
2019/06/11  23:32:01  BASE  2.04624  287  2.75184  271  -3.7  98    -4.0  0     0     1001.1   NA       0.0000   9999     1410  0     0    
2019/06/11  23:33:00  BASE  1.4994   297  2.75184  271  -3.7  98    -4.0  0     0     1001.1   NA       0.0000   9999     0     0     0    
2019/06/11  23:34:00  BASE  1.15836  288  2.75184  271  -3.7  98    -4.0  0     0     1001.0   NA       0.0000   9999     1510  0     0    
2019/06/11  23:35:01  BASE  0.882    269  2.75184  271  -3.7  98    -4.0  0     0     1001.0   NA       0.0000   9999     1510  0     0    
2019/06/11  23:36:00  BASE  0.7644   265  2.75184  271  -3.7  98    -4.0  0     0     1001.0   NA       0.0000   9999     1480  0     0    
2019/06/11  23:37:00  BASE  0.89376  267  2.75184  271  -3.8  98    -4.0  0     0     1001.0   NA       0.0000   9999     1480  0     0    
2019/06/11  23:38:00  BASE  0.92904  268  2.75184  271  -3.8  98    -4.1  0     0     1000.9   NA       0.0000   9999     1510  0     0    
2019/06/11  23:39:01  BASE  1.17012  269  2.75184  271  -3.8  98    -4.1  0     0     1000.9   NA       0.0000   9999     1480  0     0    
2019/06/11  23:40:00  BASE  1.64052  264  2.54016  273  -3.8  98    -4.0  0     0     1000.9   NA       0.0000   9999     1480  0     0    
2019/06/11  23:41:00  BASE  1.96392  262  2.84592  265  -3.8  98    -4.1  0     0     1000.9   NA       0.0000   9999     1440  0     0    
2019/06/11  23:42:00  BASE  2.10504  268  2.84592  265  -3.8  98    -4.0  0     0     1000.9   NA       0.0000   9999     1410  0     0    
2019/06/11  23:43:00  BASE  2.22264  266  3.0576   248  -3.7  98    -4.0  0     0     1000.9   NA       0.0000   9999     1380  0     0    
2019/06/11  23:44:01  BASE  2.48724  254  3.0576   248  -3.7  98    -4.0  0     0     1000.9   NA       0.0000   9999     1350  0     0    
2019/06/11  23:45:00  BASE  2.62836  251  3.0576   248  -3.8  98    -4.0  0     0     1000.9   NA       0.0000   9999     1350  0     0    
2019/06/11  23:46:00  BASE  2.0874   254  3.0576   248  -3.7  98    -4.0  0     0     1000.9   NA       0.0000   9999     1380  0     0    
2019/06/11  23:47:00  BASE  1.54644  252  3.0576   248  -3.7  99    -3.9  0     0     1000.9   NA       0.0000   9999     1380  0     0    
2019/06/11  23:48:00  BASE  1.61112  253  3.0576   248  -3.7  99    -3.9  0     0     1000.9   NA       0.0000   9999     1380  0     0    
2019/06/11  23:49:00  BASE  1.89336  260  3.0576   248  -3.7  99    -3.9  0     0     1000.9   NA       0.0000   9999     1480  0     0    
2019/06/11  23:50:00  BASE  2.06388  261  3.0576   248  -3.7  99    -3.9  0     0     1000.9   NA       0.0000   9999     1410  0     0    
2019/06/11  23:51:00  BASE  2.22264  255  3.0576   248  -3.8  99    -3.9  0     0     1001.0   NA       0.0000   9999     1540  0     0    
2019/06/11  23:52:00  BASE  2.4108   254  3.0576   248  -3.8  99    -3.9  0     0     1001.0   NA       0.0000   9999     1540  0     0    
2019/06/11  23:53:00  BASE  2.5872   253  2.99292  252  -3.8  99    -3.9  0     0     1001.0   NA       0.0000   9999     1480  0     0    
2019/06/11  23:54:00  BASE  2.4402   256  2.99292  252  -3.8  99    -3.9  0     0     1001.0   NA       0.0000   9999     1510  0     0    
2019/06/11  23:55:00  BASE  2.08152  264  2.87532  250  -3.8  99    -4.0  0     0     1001.0   NA       0.0000   9999     1440  0     0    
2019/06/11  23:56:01  BASE  2.43432  257  3.41628  248  -3.9  99    -4.0  0     0     1001.1   NA       0.0000   9999     1380  0     0    
2019/06/11  23:57:00  BASE  2.85768  250  3.41628  248  -3.9  99    -4.0  0     0     1001.1   NA       0.0000   9999     1350  0     0    
2019/06/11  23:58:00  BASE  2.5578   252  3.41628  248  -3.9  100   -4.0  0     0     1001.1   NA       0.0000   9999     1280  0     0    
2019/06/11  23:59:00  BASE  2.11092  250  3.41628  248  -3.9  100   -3.9  0     0     1001.1   NA       0.0000   9999     1280  0     0